     2              OBSERVATION DATA    GPS                 RINEX VERSION / TYPE
teqc 2000Feb29 Duncan Agnew 20031030 01:00:38UTC            PGM / RUN BY / DATE
                                                            COMMENT
L2: 1 -> 1; 150 -> 5; 250 -> 9                              COMMENT
L2: 1 -> 1; 150 -> 5; 250 -> 9                              COMMENT
L2: 1 -> 1; 150 -> 5; 250 -> 9                              COMMENT
L2: 1 -> 1; 150 -> 5; 250 -> 9                              COMMENT
L2: 1 -> 1; 150 -> 5; 250 -> 9                              COMMENT
Original Marker Name: K526                                  COMMENT
Campaign Name: CSUSB 2002-2003                              COMMENT
4-Character Station Name: K526                              COMMENT
6-Character Antenna Code: DMRCHT                            COMMENT
Vertical Measurement Point: BPA                             COMMENT
Vertical Offset to Rinex Ref. Point: 0.0000                 COMMENT
Radial Measurement Point: RRP                               COMMENT
Radial Offset to Rinex Ref. Point: 0.0000                   COMMENT
Antenna Height from Field Measurement: 1.5020 m             COMMENT
Additional Antenna Identification Info.:                    COMMENT
Turborogue and Ashtech Choke Ring                           COMMENT
Original XYZ: 0.0000 0.0000 0.0000                          COMMENT
New XYZ position is based on association with SCEC monument COMMENT
E1D0S5B5+0011. Position of that monument is believed to be  COMMENT
valid to within 1 m horizontally; vertical accuracy         COMMENT
should be no worse than 3-times this value.                 COMMENT
                                                            COMMENT
Revised Rinex header created by UCSD GPS archive for        COMMENT
GSAC on 09-Nov-2004 (2004:314) 22:43:34 GMT                 COMMENT
For assistance contact dagnew@ucsd.edu                      COMMENT
or anderson@python.ucsd.edu                                 COMMENT
                                                            COMMENT
K526 1956                                                   MARKER NAME
ANR CAL STATE SAN BERNARDINO                                OBSERVER / AGENCY
2403 ASHTECH Z-XII3 CD00                                    REC # / TYPE / VERS
2409 DORNE-MARGOL. TYPE T                                   ANT # / TYPE
 -2416859.0000 -4702077.0000  3556539.0000                  APPROX POSITION XYZ
        1.5020        0.0000        0.0000                  ANTENNA: DELTA H/E/N
     1     1     0                                          WAVELENGTH FACT L1/2
     7    C1    L1    L2    P1    P2    S1    S2            # / TYPES OF OBSERV
     0                                                      INTERVAL
  2002     7    10    15    26   30.000000                  TIME OF FIRST OBS
  2002     7    11     0     0   30.000000                  TIME OF LAST OBS
                                                            END OF HEADER
 02  7 10 15 26 30.0000000  0  3G17G 6G29
                      5942.383 9   1367379.337 1
       236.000
                     35827.45849      4568.46143
       246.000          74.000
                      5871.203 9   1234807.266 1
       224.000
 02  7 10 15 27  0.0000000  0 10G18G17G15G 6G30G29G26G10G23G22
                     12368.05849      7648.78846                  22175583.999
       234.000         174.000
                     69958.02649     43761.65547                  21277028.019
       237.000         188.000
                     50588.77349     31469.80146                  21774549.420
       235.000         177.000
                    130831.00849     78948.18643
       246.000          74.000
                    110133.74149     11480.08043
       225.000          74.000
                     73576.90449     46286.01043                  22651509.640
       224.000          80.000
                     47410.97749     29683.25044                  22255349.324
       225.000         127.000
                    212291.76349    134694.06843
       224.000          74.000
                    137837.38049     88410.89143
       246.000          74.000
                     25233.79849     10797.53343
       208.000          74.000
 02  7 10 15 27 30.0000000  0  1G 6
                    226952.11749    154237.07443
       246.000          74.000
 02  7 10 15 28  0.0000000  0 10G18G17G15G 6G30G29G26G10G23G22
  22480122.712       37337.35449     27105.43746  22480122.345    22480127.770
       233.000         180.000
  21601602.919      200219.13149    145263.79647  21601602.252    21601607.477
       237.000         197.000
  22092283.196      144898.95049    104958.29446  22092281.981    22092288.054
       237.000         187.000
                    323943.121 9    225204.945 1
       246.000
                    508366.73849    321791.72743
       223.000          74.000
  22977668.927      212158.85249    154271.95946  22977668.491    22977674.457
       226.000         174.000
  22572254.991      137375.00349     99785.08746  22572255.373    22572261.925
       227.000         172.000
  23526984.070      608988.56149    443808.40046  23526983.788    23526988.554
       222.000         165.000
                    398589.35049    292664.91943
       246.000          74.000
                    128245.06149     91065.90543
       204.000          74.000
 02  7 10 15 28 30.0000000  0 10G18G17G15G 6G30G29G26G10G23G22
  22190542.017    -1484427.26349  -1158685.12746  22190541.118    22190545.737
       235.000         182.000
  21321992.360    -1269145.60549   -999695.74247  21321991.492    21321997.114
       237.000         198.000
  21809255.849    -1342417.65549  -1053989.69546  21809255.387    21809260.711
       238.000         187.000
  20244199.899    -1113553.41949  -1120773.74247  20244200.192    20244204.954
       246.000         206.000
  23289003.366     -827075.75549   -718812.95445  23289006.556    23289011.819
       224.000         157.000
  22698939.395    -1252570.68349   -987075.71646  22698938.702    22698945.116
       224.000         175.000
  22288902.592    -1351655.18649  -1060498.15046  22288901.764    22288909.189
       226.000         175.000
  23272727.961     -727133.26749   -597325.56145  23272727.556    23272733.550
       221.000         162.000
                  -1005092.09449  -1113415.68647                  20806098.973
       246.000         202.000
                  -1354237.80449  -1064115.53145                  23946938.976
       207.000         132.000
 02  7 10 15 29  0.0000000  0 10G18G17G15G 6G30G29G26G10G23G22
  22174184.870    -1570382.78649  -1225663.40846  22174183.872    22174189.230
       236.000         184.000
  21315574.491    -1302871.27949  -1025975.48947  21315573.506    21315579.828
       237.000         198.000
  21799425.159    -1394078.00649  -1094244.49146  21799424.652    21799430.213
       238.000         186.000
  20243902.859    -1115115.85449  -1121991.24047  20243902.768    20243907.629
       245.000         212.000
  23308061.529     -726933.64349   -640780.25345  23308062.204    23308068.915
       222.000         162.000
  22693464.223    -1281341.99049  -1009494.90946  22693463.862    22693470.630
       225.000         175.000
  22278804.699    -1404718.62849  -1101846.25246  22278804.634    22278809.907
       227.000         175.000
  23291666.715     -627610.68249   -519775.56445  23291666.105    23291672.957
       220.000         161.000
  20812229.811     -972848.63149  -1088290.91847  20812229.373    20812234.419
       246.000         211.000
  23938081.789    -1400740.80749  -1100351.64645  23938082.380    23938089.400
       209.000         141.000
 02  7 10 15 29 30.0000000  0 10G18G17G15G 6G30G29G26G10G23G22
  22157889.855    -1656013.02849  -1292388.25346  22157889.462    22157894.382
       235.000         185.000
  21309186.172    -1336441.83849  -1052134.37147  21309185.288    21309191.218
       236.000         198.000
  21789627.380    -1445566.72449  -1134365.53946  21789626.356    21789632.871
       237.000         187.000
  20243691.652    -1116226.03749  -1122856.34748  20243691.534    20243696.130
       245.000         213.000
  23327137.563     -626689.79149   -562668.29145  23327137.908    23327143.832
       219.000         162.000
  22688079.909    -1309637.25349  -1031543.15746  22688079.799    22688086.188
       226.000         175.000
  22268799.302    -1457297.04149  -1142816.44146  22268798.612    22268804.292
       226.000         174.000
  23310636.314     -527926.04449   -442099.30545  23310635.593    23310642.329
       220.000         162.000
  20818449.601     -940163.96349  -1062822.36647  20818449.108    20818454.324
       246.000         212.000
  23929327.551    -1446747.10249  -1136200.72345  23929327.901    23929334.579
       206.000         141.000
 02  7 10 15 30  0.0000000  0 10G18G17G15G 6G30G29G26G10G23G22
  22141657.233    -1741315.53149  -1358857.71146  22141655.881    22141661.084
       233.000         185.000
  21302827.450    -1369856.59749  -1078171.84447  21302827.260    21302832.595
       237.000         198.000
  21779862.210    -1496882.85549  -1174352.10246  21779862.235    21779867.605
       237.000         187.000
  20243566.942    -1116881.77649  -1123367.32848  20243566.580    20243571.552
       245.000         213.000
  23346232.412     -526346.10249   -484478.50545  23346232.859    23346238.843
       223.000         162.000
  22682786.723    -1337453.80249  -1053218.40046  22682787.143    22682792.761
       227.000         175.000
  22258886.919    -1509386.76149  -1183405.81046  22258886.424    22258892.551
       227.000         173.000
  23329636.356     -428081.06649   -364298.11646  23329636.439    23329642.605
       220.000         164.000
  20824753.047     -907038.81049  -1037010.56548  20824752.184    20824757.901
       245.000         213.000
  23920668.129    -1492254.36749  -1171660.94745  23920668.036    23920674.409
       208.000         141.000
 02  7 10 15 30 30.0000000  0 10G18G17G15G 6G30G29G26G10G23G22
  22125486.922    -1826290.20349  -1425071.71446  22125485.795    22125491.757
       233.000         185.000
  21296498.126    -1403117.70849  -1104089.59847  21296497.592    21296503.384
       237.000         198.000
  21770129.616    -1548028.25449  -1214205.63246  21770128.993    21770134.733
       236.000         186.000
  20243528.381    -1117084.09249  -1123524.99648  20243527.907    20243532.967
       244.000         213.000
  23365345.416     -425907.40749   -406214.70245  23365345.468    23365352.652
       223.000         162.000
  22677584.594    -1364791.82949  -1074520.75246  22677584.635    22677591.130
       226.000         176.000
  22249067.696    -1560986.91549  -1223613.69246  22249067.531    22249073.531
       227.000         172.000
  23348666.175     -328080.24749   -286375.47746  23348666.155    23348673.736
       224.000         166.000
  20831139.682     -873476.97949  -1010858.50448  20831139.412    20831144.656
       246.000         213.000
  23912103.441    -1537263.28049  -1206732.84045  23912103.175    23912110.694
       207.000         141.000
 02  7 10 15 31  0.0000000  0 10G18G17G15G 6G30G29G26G10G23G22
  22109379.386    -1910935.73749  -1491029.23746  22109379.115    22109383.901
       235.000         185.000
  21290197.896    -1436225.69049  -1129888.02947  21290197.633    21290202.675
       238.000         199.000
  21760429.321    -1599003.49149  -1253926.57846  21760428.939    21760434.514
       236.000         185.000
  20243576.305    -1116832.06549  -1123328.62348  20243576.174    20243581.131
       245.000         213.000
  23384475.828     -325377.09249   -327879.52346  23384475.914    23384482.141
       222.000         163.000
  22672473.772    -1391650.00049  -1095449.18746  22672473.323    22672479.757
       227.000         175.000
  22239342.083    -1612094.94949  -1263438.12646  22239342.653    22239347.929
       228.000         174.000
  23367725.072     -227926.51949   -208333.68646  23367724.861    23367731.787
       223.000         166.000
  20837609.079     -839480.48849   -984367.74448  20837608.514    20837614.158
       246.000         213.000
  23903633.556    -1581772.92449  -1241415.71345  23903634.218    23903639.471
       206.000         141.000
 02  7 10 15 31 30.0000000  0 11G21G18G17G15G 6G30G29G26G10G23G22
  24830145.959     -512581.74449   -399844.17744  24830146.108    24830154.081
       197.000         127.000
  22093334.957    -1995249.99049  -1556728.62446  22093334.343    22093339.019
       235.000         185.000
  21283927.026    -1469179.92049  -1155566.65547  21283926.634    21283931.784
       238.000         199.000
  21750761.666    -1649807.68649  -1293514.24046  21750761.081    21750767.584
       234.000         185.000
  20243711.124    -1116123.77549  -1122776.72748  20243710.841    20243716.019
       245.000         213.000
  23403623.231     -224757.04949   -249474.43846  23403623.988    23403630.080
       224.000         163.000
  22667454.809    -1418025.74449  -1116001.70946  22667454.648    22667460.029
       226.000         174.000
  22229710.901    -1662707.23649  -1302876.24246  22229710.442    22229716.831
       228.000         176.000
  23386812.588     -127621.47949   -130173.98445  23386810.428    23386819.302
       220.000         162.000
  20844160.962     -805050.27649   -957539.02048  20844160.688    20844166.002
       246.000         213.000
  23895259.206    -1625781.34449  -1275707.94345  23895258.257    23895265.054
       204.000         139.000
 02  7 10 15 32  0.0000000  0 11G21G18G17G15G 6G30G29G26G10G23G22
  24812249.937     -606626.71449   -473125.84044  24812246.639    24812258.438
       196.000         128.000
  22077354.416    -2079228.50649  -1622166.38546  22077353.666    22077358.138
       235.000         184.000
  21277685.660    -1501978.03849  -1181123.63047  21277685.405    21277691.360
       238.000         199.000
  21741127.039    -1700438.19949  -1332966.56946  21741125.962    21741132.075
       232.000         185.000
  20243933.450    -1114955.37449  -1121866.30048  20243933.377    20243938.225
       245.000         213.000
  23422787.695     -124047.73649   -170999.77746  23422788.551    23422795.297
       222.000         164.000
  22662528.308    -1443914.70449  -1136174.92346  22662527.619    22662534.229
       226.000         174.000
  22220175.123    -1712818.32249  -1341923.82546  22220175.513    22220181.341
       228.000         177.000
  23405928.749      -27164.89549    -51896.19245  23405928.163    23405934.211
       218.000         158.000
  20850795.644     -770185.50849   -930371.68848  20850795.155    20850800.443
       246.000         213.000
  23886980.735    -1669284.54149  -1309606.56545  23886980.897    23886986.502
       208.000         140.000
 02  7 10 15 32 30.0000000  0 11G21G18G17G15G 6G30G29G26G10G23G22
  24794380.769     -700529.92549   -546297.06645  24794380.957    24794392.151
       196.000         135.000
  22061437.793    -2162870.95549  -1687342.27946  22061437.085    22061441.889
       235.000         184.000
  21271473.931    -1534621.33949  -1206559.98047  21271473.435    21271479.010
       238.000         200.000
  21731525.048    -1750896.69149  -1372284.84846  21731523.849    21731530.177
       230.000         184.000
  20244243.381    -1113327.27849  -1120597.66748  20244243.152    20244248.282
       247.000         214.000
  23441968.202      -23253.32949    -92458.79646  23441968.133    23441974.477
       218.000         163.000
  22657694.447    -1469316.68349  -1155968.66246  22657693.825    22657699.953
       227.000         173.000
  22210735.024    -1762426.78649  -1380579.76746  22210735.378    22210741.388
       227.000         176.000
  23425072.894       73439.17049     26496.49845  23425072.070    23425078.574
       219.000         158.000
  20857512.294     -734889.31249   -902868.16948  20857511.705    20857517.100
       246.000         213.000
  23878798.544    -1712282.82349  -1343111.72745  23878796.833    23878805.522
       203.000         140.000
 02  7 10 15 33  0.0000000  0 11G21G18G17G15G 6G30G29G26G10G23G22
  24776538.896     -794289.87249   -619356.64545  24776538.419    24776549.253
       206.000         142.000
  22045585.433    -2246175.58949  -1752254.95346  22045584.659    22045590.026
       235.000         186.000
  21265291.432    -1567110.34049  -1231876.08947  21265290.606    21265296.509
       237.000         199.000
  21721955.698    -1801183.31749  -1411469.21546  21721954.444    21721961.471
       231.000         184.000
  20244640.879    -1111238.46349  -1118970.03648  20244640.647    20244645.592
       247.000         214.000
  23461164.188       77623.12449    -13853.91945  23461164.354    23461172.495
       220.000         161.000
  22652953.529    -1494230.05049  -1175381.69246  22652953.716    22652959.210
       226.000         173.000
  22201391.022    -1811530.13449  -1418842.12046  22201391.327    22201397.151
       228.000         177.000
  23444244.747      174188.04049    105002.01445  23444244.307    23444250.626
       221.000         160.000
  20864310.741     -699163.57849   -875029.94948  20864310.518    20864315.649
       247.000         214.000
  23870712.191    -1754775.15949  -1376222.66145  23870711.460    23870718.956
       205.000         142.000
 02  7 10 15 33 30.0000000  0 11G21G18G17G15G 6G30G29G26G10G23G22
  24758724.501     -887905.68849   -692303.98245  24758724.811    24758735.664
       210.000         147.000
  22029797.333    -2329142.26549  -1816904.28646  22029796.179    22029802.691
       235.000         187.000
  21259138.048    -1599446.19149  -1257072.85947  21259137.605    21259143.694
       238.000         200.000
  21712419.058    -1851299.29849  -1450520.62346  21712418.615    21712424.179
       231.000         184.000
  20245126.077    -1108689.13949  -1116983.56048  20245125.951    20245130.633
       248.000         214.000
  23480375.131      178577.51949     64811.73945  23480374.575    23480384.075
       217.000         160.000
  22648305.785    -1518654.66449  -1194413.84446  22648305.914    22648310.914
       226.000         174.000
  22192143.454    -1860126.84649  -1456709.66346  22192142.819    22192149.397
       228.000         177.000
  23463443.522      275078.08349    183617.56545  23463441.817    23463449.818
       218.000         160.000
  20871190.418     -663011.45649   -846859.48148  20871189.916    20871195.392
       247.000         214.000
  23862722.663    -1796761.58249  -1408939.31545  23862721.632    23862729.623
       205.000         143.000
 02  7 10 15 34  0.0000000  0 11G21G18G17G15G 6G30G29G26G10G23G22
  24740937.762     -981377.17749   -765138.76345  24740937.375    24740946.828
       210.000         146.000
  22014073.779    -2411769.88349  -1881289.41846  22014073.054    22014078.961
       235.000         187.000
  21253013.851    -1631629.71549  -1282150.93347  21253013.355    21253019.417
       239.000         200.000
  21702914.706    -1901245.12049  -1489439.43546  21702913.875    21702920.700
       230.000         184.000
  20245698.975    -1105678.83049  -1114637.88648  20245698.824    20245703.797
       247.000         214.000
  23499600.348      279606.50849    143535.47345  23499601.494    23499608.126
       221.000         160.000
  22643751.260    -1542589.33949  -1213064.25046  22643751.047    22643756.451
       228.000         174.000
  22182992.605    -1908214.68149  -1494180.67046  22182992.524    22182998.029
       228.000         176.000
  23482668.401      376106.15649    262340.66545  23482668.257    23482673.653
       218.000         158.000
  20878150.654     -626435.26249   -818358.56348  20878149.988    20878155.530
       246.000         214.000
  23854829.124    -1838241.62449  -1441261.45245  23854828.876    23854835.849
       208.000         142.000
 02  7 10 15 34 30.0000000  0 11G21G18G17G15G 6G30G29G26G10G23G22
  24723178.524    -1074702.64049   -837859.81345  24723178.120    24723186.949
       215.000         144.000
  21998415.038    -2494056.78349  -1945409.04846  21998414.624    21998419.822
       236.000         187.000
  21246918.501    -1663660.96249  -1307110.34847  21246918.185    21246923.799
       238.000         200.000
  21693442.781    -1951020.64449  -1528225.54746  21693442.352    21693448.077
       231.000         186.000
  20246359.836    -1102206.33349  -1111932.05748  20246359.687    20246364.388
       247.000         213.000
  23518839.536      380707.28049    222315.17145  23518840.286    23518846.234
       220.000         161.000
  22639290.248    -1566032.35549  -1231331.53546  22639289.926    22639296.117
       226.000         176.000
  22173939.102    -1955790.92949  -1531253.06446  22173938.971    22173944.632
       228.000         175.000
  23501919.248      477269.93949    341169.50145  23501917.811    23501925.830
       218.000         156.000
  20885191.217     -589436.84449   -789528.64648  20885190.464    20885196.003
       246.000         213.000
  23847032.426    -1879213.96049  -1473187.93745  23847031.304    23847039.084
       203.000         143.000
 02  7 10 15 35  0.0000000  0 11G21G18G17G15G 6G30G29G26G10G23G22
  24705447.527    -1167880.56249   -910465.87145  24705447.585    24705455.937
       210.000         141.000
  21982821.580    -2576001.41949  -2009261.97846  21982821.100    21982826.308
       237.000         187.000
  21240852.177    -1695539.96849  -1331951.13647  21240852.004    21240857.499
       238.000         200.000
  21684003.370    -2000625.88849  -1566878.97446  21684002.697    21684008.727
       231.000         186.000
  20247108.790    -1098270.58549  -1108865.24648  20247108.329    20247113.461
       247.000         213.000
  23538091.808      481876.92749    301148.53845  23538093.317    23538098.990
       225.000         161.000
  22634923.160    -1588982.06949  -1249214.41546  22634922.969    22634928.173
       228.000         177.000
  22164983.614    -2002852.78549  -1567924.59946  22164983.751    22164989.437
       228.000         176.000
  23521195.708      578567.18749    420102.33545  23521194.106    23521202.611
       220.000         155.000
  20892311.827     -552017.87449   -760371.02348  20892311.104    20892316.727
       246.000         213.000
  23839332.339    -1919677.34249  -1504717.84245  23839331.944    23839340.166
       205.000         145.000
 02  7 10 15 35 30.0000000  0 11G21G18G17G15G 6G30G29G26G10G23G22
  24687744.720    -1260909.19249   -982955.65145  24687742.951    24687753.731
       211.000         139.000
  21967293.678    -2657601.60949  -2072846.49746  21967293.229    21967298.255
       236.000         187.000
  21234814.810    -1727266.69949  -1356673.27247  21234814.484    21234820.104
       238.000         201.000
  21674596.213    -2050060.68449  -1605399.58447  21674596.169    21674601.542
       234.000         188.000
  20247946.130    -1093870.29549  -1105436.47048  20247945.919    20247951.086
       247.000         213.000
  23557356.699      583112.99149    380033.66045  23557357.081    23557362.590
       224.000         162.000
  22630650.279    -1611436.75949  -1266711.59446  22630650.207    22630655.579
       226.000         176.000
  22156126.610    -2049397.24049  -1604192.99646  22156126.803    22156132.369
       227.000         176.000
  23540497.118      679995.73949    499137.49245  23540497.233    23540502.819
       220.000         157.000
  20899512.165     -514179.88649   -730886.89348  20899511.579    20899517.029
       246.000         213.000
  23831729.603    -1959630.69449  -1535850.30545  23831729.837    23831735.279
       207.000         143.000
 02  7 10 15 36  0.0000000  0 11G21G18G17G15G 6G30G29G26G10G23G22
  24670070.891    -1353786.33849  -1055327.39845  24670069.346    24670079.809
       212.000         138.000
  21951831.600    -2738855.40549  -2136161.10646  21951831.074    21951835.575
       236.000         187.000
  21228806.580    -1758840.55049  -1381276.27247  21228806.313    21228811.436
       239.000         200.000
  21665221.673    -2099324.35149  -1643786.85047  21665221.000    21665226.553
       233.000         189.000
  20248872.236    -1089004.00349  -1101644.56548  20248871.888    20248876.996
       247.000         213.000
  23576633.631      684413.26349    458968.80245  23576634.246    23576640.397
       222.000         161.000
  22626471.829    -1633394.04349  -1283821.16346  22626470.830    22626478.102
       227.000         176.000
  22147368.495    -2095421.18649  -1640055.82346  22147368.366    22147374.484
       227.000         176.000
  23559823.133      781553.60049    578273.42445  23559822.634    23559827.372
       222.000         156.000
  20906791.977     -475924.32149   -701077.37947  20906791.589    20906796.747
       245.000         212.000
  23824224.336    -1999072.08749  -1566583.86845  23824223.963    23824230.890
       208.000         143.000
 02  7 10 15 36 30.0000000  0 11G21G18G17G15G 6G30G29G26G10G23G22
  24652425.273    -1446513.71349  -1127582.46445  24652425.061    24652434.009
       214.000         138.000
  21936435.120    -2819764.44549  -2199207.08847  21936434.213    21936439.554
       235.000         188.000
  21222826.864    -1790264.93049  -1405762.80447  21222826.233    21222832.208
       239.000         200.000
  21655879.123    -2148420.05349  -1682043.22347  21655878.507    21655884.313
       235.000         190.000
  20249886.525    -1083674.01749  -1097491.34248  20249886.325    20249891.314
       247.000         213.000
  23595921.484      785771.39749    537949.08645  23595922.533    23595928.954
       222.000         160.000
  22622387.720    -1654856.03849  -1300544.81246  22622387.357    22622393.416
       229.000         177.000
  22138709.488    -2140925.25449  -1675513.52346  22138709.550    22138715.574
       228.000         177.000
  23579172.880      883235.26249    657505.82545  23579172.888    23579178.495
       220.000         159.000
  20914150.303     -437256.23749   -670946.41647  20914149.546    20914155.021
       245.000         212.000
  23816816.012    -2038003.95749  -1596920.39145  23816815.312    23816822.168
       205.000         141.000
 02  7 10 15 37  0.0000000  0 11G21G18G17G15G 6G30G29G26G10G23G22
  24634808.537    -1539090.46849  -1199720.10645  24634807.698    24634818.009
       213.000         138.000
  21921104.332    -2900328.10849  -2261983.94547  21921104.025    21921109.034
       236.000         189.000
  21216875.228    -1821541.07849  -1430133.83047  21216874.244    21216880.330
       238.000         201.000
  21646568.320    -2197348.91149  -1720169.58647  21646567.253    21646573.652
       235.000         192.000
  20250989.029    -1077880.38049  -1092976.83248  20250988.962    20250993.770
       248.000         213.000
  23615219.655      887183.78249    616971.59745  23615219.754    23615229.753
       219.000         159.000
  22618398.018    -1675822.29449  -1316882.14446  22618397.479    22618403.799
       228.000         176.000
  22130149.605    -2185907.88749  -1710564.91046  22130149.276    22130155.535
       229.000         179.000
  23598545.313      985037.43649    736832.09845  23598545.267    23598550.364
       220.000         160.000
  20921586.523     -398178.47649   -640496.22747  20921585.838    20921591.549
       246.000         212.000
  23809504.446    -2076426.25749  -1626859.84345  23809504.123    23809510.595
       206.000         140.000
 02  7 10 15 37 30.0000000  0 11G21G18G17G15G 6G30G29G26G10G23G22
  24617221.610    -1631510.54949  -1271735.66445  24617220.283    24617230.091
       212.000         135.000
  21905840.471    -2980540.33849  -2324486.95247  21905840.092    21905845.314
       236.000         191.000
  21210952.565    -1852664.45549  -1454385.81247  21210952.023    21210957.767
       238.000         201.000
  21637290.023    -2246106.36249  -1758162.38547  21637289.216    21637295.710
       237.000         193.000
  20252180.908    -1071617.36249  -1088096.57148  20252180.727    20252185.852
       247.000         213.000
  23634528.435      988652.03349    696037.62645  23634529.776    23634537.166
       222.000         158.000
  22614503.938    -1696286.36949  -1332828.17146  22614504.224    22614508.908
       230.000         177.000
  22121690.300    -2230361.73849  -1745204.26746  22121689.883    22121695.952
       229.000         177.000
  23617941.002     1086962.05049    816253.76645  23617940.670    23617946.974
       218.000         160.000
  20929101.335     -358688.14749   -609724.55747  20929100.945    20929106.214
       245.000         212.000
  23802291.152    -2114333.23349  -1656397.72545  23802290.967    23802298.429
       208.000         142.000
 02  7 10 15 38  0.0000000  0 11G21G18G17G15G 6G30G29G26G10G23G22
  24599664.526    -1723772.63249  -1343628.13244  24599661.649    24599670.753
       208.000         131.000
  21890643.840    -3060399.61549  -2386714.92547  21890643.193    21890648.270
       236.000         191.000
  21205059.091    -1883635.13649  -1478518.80947  21205058.793    21205064.239
       238.000         201.000
  21628044.379    -2294692.45949  -1796021.66147  21628043.197    21628049.532
       237.000         194.000
  20253462.226    -1064884.09449  -1082849.88448  20253462.100    20253467.077
       247.000         214.000
  23653847.627     1090173.45649    775145.12245  23653848.372    23653855.108
       218.000         155.000
  22610705.666    -1716247.19449  -1348382.05746  22610705.824    22610710.214
       227.000         177.000
  22113332.047    -2274284.34649  -1779429.67846  22113331.789    22113337.206
       227.000         175.000
  23637359.511     1189006.63649    895768.91345  23637358.317    23637365.939
       218.000         160.000
  20936694.288     -318787.33149   -578633.03347  20936693.699    20936699.175
       245.000         212.000
  23795175.968    -2151724.17749  -1685533.52345  23795174.913    23795181.818
       208.000         141.000
 02  7 10 15 38 30.0000000  0 11G21G18G17G15G 6G30G29G26G10G23G22
  24582137.957    -1815875.91849  -1415396.83544  24582137.221    24582142.832
       208.000         130.000
  21875514.447    -3139904.92249  -2448667.07547  21875513.837    21875518.555
       237.000         189.000
  21199194.614    -1914453.91649  -1502533.44647  21199193.953    21199199.926
       238.000         201.000
  21618831.203    -2343107.84049  -1833747.91947  21618830.875    21618836.147
       239.000         194.000
  20254833.178    -1057680.33249  -1077236.57348  20254833.021    20254838.018
       247.000         214.000
  23673176.219     1191744.45249    854291.19445  23673177.101    23673183.817
       219.000         156.000
  22607003.215    -1735703.79749  -1363543.03946  22607002.908    22607007.633
       226.000         177.000
  22105075.287    -2317673.88549  -1813239.69946  22105075.025    22105081.017
       229.000         176.000
  23656800.332     1291168.02249    975375.11345  23656798.899    23656807.236
       221.000         161.000
  20944364.822     -278478.60349   -547223.64947  20944364.218    20944369.426
       246.000         212.000
  23788159.182    -2188598.60149  -1714266.81345  23788158.211    23788166.375
       206.000         142.000
 02  7 10 15 39  0.0000000  0 11G21G18G17G15G 6G30G29G26G10G23G22
  24564641.120    -1907821.22349  -1487042.45844  24564639.114    24564649.344
       208.000         131.000
  21860452.163    -3219057.61649  -2510344.46947  21860451.604    21860456.009
       236.000         188.000
  21193358.356    -1945123.32649  -1526431.68747  21193357.744    21193363.615
       238.000         201.000
  21609650.130    -2391355.04649  -1871343.12747  21609649.311    21609655.816
       238.000         195.000
  20256293.226    -1050007.81049  -1071258.00548  20256292.980    20256298.159
       247.000         214.000
  23692513.214     1293359.54249    933471.65745  23692513.414    23692520.117
       217.000         156.000
  22603396.382    -1754657.53549  -1378312.18046  22603395.295    22603401.662
       227.000         176.000
  22096920.149    -2360530.26449  -1846634.26046  22096920.550    22096925.844
       230.000         177.000
  23676262.296     1393441.39549   1055068.58945  23676260.676    23676269.416
       220.000         160.000
  20952112.109     -237766.46849   -515499.92547  20952111.605    20952117.014
       246.000         212.000
  23781240.204    -2224958.27849  -1742599.02145  23781238.941    23781246.463
       210.000         144.000
 02  7 10 15 39 30.0000000  0 11G21G18G17G15G 6G30G29G26G10G23G22
  24547175.108    -1999605.96449  -1558562.93545  24547174.435    24547182.892
       208.000         133.000
  21845457.519    -3297854.88949  -2571744.90247  21845457.005    21845461.195
       237.000         188.000
  21187550.727    -1975642.48049  -1550212.84647  21187550.014    21187555.892
       238.000         201.000
  21600501.103    -2439432.94249  -1908806.39547  21600500.005    21600506.335
       239.000         195.000
  20257842.937    -1041864.55649  -1064912.62648  20257842.697    20257847.733
       245.000         213.000
  23711858.099     1395017.16749   1012685.24945  23711857.643    23711864.557
       216.000         154.000
  22599885.658    -1773105.61649  -1392687.31646  22599885.655    22599891.201
       228.000         176.000
  22088867.053    -2402849.91149  -1879610.60346  22088866.566    22088872.486
       230.000         177.000
  23695745.347     1495825.79949   1134848.58645  23695745.207    23695752.168
       219.000         156.000
  20959936.045     -196651.66249   -483462.43147  20959935.529    20959941.036
       245.000         212.000
  23774419.429    -2260801.13149  -1770528.51845  23774418.662    23774426.736
       211.000         144.000
 02  7 10 15 40  0.0000000  0 11G21G18G17G15G 6G30G29G26G10G23G22
  24529739.599    -2091228.22049  -1629956.83145  24529738.595    24529748.626
       205.000         133.000
  21830530.949    -3376294.36549  -2632866.53647  21830530.308    21830535.655
       238.000         189.000
  21181771.806    -2006010.91149  -1573876.56347  21181771.275    21181777.183
       239.000         201.000
  21591384.555    -2487340.92049  -1946137.28147  21591383.496    21591389.746
       239.000         196.000
  20259482.422    -1033248.92649  -1058199.17048  20259482.172    20259487.171
       245.000         213.000
  23731210.554     1496715.13149   1091930.28245  23731211.104    23731218.105
       218.000         155.000
  22596471.729    -1791046.28249  -1406667.07546  22596471.618    22596477.175
       226.000         175.000
  22080916.592    -2444629.75749  -1912166.32046  22080915.530    22080921.656
       230.000         178.000
  23715249.014     1598319.22649   1214713.55545  23715248.895    23715256.520
       217.000         154.000
  20967836.391     -155135.56549   -451112.24447  20967836.079    20967841.284
       246.000         212.000
  23767697.468    -2296125.61149  -1798054.09445  23767696.146    23767704.226
       206.000         143.000
 02  7 10 15 40 30.0000000  0 11G21G18G17G15G 6G30G29G26G10G23G22
  24512335.300    -2182687.17649  -1701223.41845  24512334.204    24512344.167
       202.000         132.000
  21815672.578    -3454375.61549  -2693709.04247  21815672.324    21815676.937
       239.000         190.000
  21176021.586    -2036229.20549  -1597423.28547  21176020.986    21176026.405
       239.000         201.000
  21582300.143    -2535079.71749  -1983336.32447  21582299.665    21582305.777
       239.000         196.000
  20261211.894    -1024160.80749  -1051117.53548  20261211.975    20261216.460
       246.000         213.000
  23750570.085     1598449.76149   1171203.88345  23750571.312    23750577.379
       217.000         155.000
  22593154.361    -1808478.97249  -1420250.98446  22593153.995    22593160.471
       226.000         175.000
  22073069.205    -2485868.09049  -1944300.08546  22073068.493    22073074.651
       229.000         179.000
  23734773.018     1700918.73849   1294661.15845  23734770.870    23734779.948
       213.000         153.000
  20975812.632     -113220.70449   -418451.32947  20975812.207    20975817.325
       247.000         212.000
  23761074.258    -2330931.64449  -1825175.70045  23761073.221    23761079.822
       205.000         142.000
 02  7 10 15 41  0.0000000  0 11G21G18G17G15G 6G30G29G26G10G23G22
  24494962.348    -2273980.88749  -1772361.31344  24494960.931    24494973.037
       205.000         130.000
  21800882.851    -3532096.55149  -2754270.78547  21800882.993    21800887.301
       238.000         192.000
  21170300.033    -2066297.03849  -1620852.77147  21170299.297    21170305.051
       238.000         201.000
  21573248.274    -2582648.30349  -2020402.74047  21573247.761    21573253.640
       241.000         196.000
  20263031.563    -1014598.67849  -1043666.54348  20263031.175    20263035.955
       245.000         213.000
  23769936.422     1700219.06849   1250504.49145  23769936.316    23769944.122
       216.000         156.000
  22589934.196    -1825401.53749  -1433437.40046  22589934.074    22589939.537
       228.000         176.000
  22065325.355    -2526561.75249  -1976009.42646  22065325.603    22065331.766
       229.000         179.000
  23754316.755     1803622.75649   1374690.15845  23754314.670    23754325.177
       211.000         151.000
  20983864.458      -70908.26949   -385480.61947  20983863.763    20983869.513
       246.000         212.000
  23754549.958    -2365217.79749  -1851892.17145  23754550.397    23754556.759
       208.000         142.000
 02  7 10 15 41 30.0000000  0 11G21G18G17G15G 6G30G29G26G10G23G22
  24477621.336    -2365108.87649  -1843370.05244  24477622.405    24477629.270
       206.000         127.000
  21786161.827    -3609456.56249  -2814551.29247  21786161.324    21786166.157
       237.000         192.000
  21164606.674    -2096215.33949  -1644165.73547  21164605.938    21164612.180
       238.000         201.000
  21564228.493    -2630047.82749  -2057337.42347  21564227.966    21564233.738
       239.000         195.000
  20264941.368    -1004562.76149  -1035846.37248  20264941.273    20264946.064
       246.000         213.000
  23789308.566     1802019.23249   1329829.13045  23789308.994    23789317.438
       215.000         156.000
  22586811.085    -1841813.85249  -1446226.22146  22586811.466    22586816.744
       230.000         176.000
  22057685.522    -2566709.29149  -2007293.22746  22057685.722    22057692.108
       229.000         179.000
  23773879.749     1906427.83749   1454797.89445  23773879.786    23773887.874
       213.000         152.000
  20991991.298      -28201.41749   -352202.57347  20991990.567    20991995.947
       245.000         212.000
  23748124.437    -2398984.01749  -1878203.54445  23748125.395    23748129.248
       206.000         141.000
 02  7 10 15 42  0.0000000  0 11G21G18G17G15G 6G30G29G26G10G23G22
  24460312.411    -2456069.29049  -1914248.20144  24460313.228    24460320.142
       208.000         128.000
  21771509.727    -3686453.95549  -2874549.23647  21771509.118    21771513.787
       238.000         191.000
  21158941.880    -2125984.06149  -1667362.14047  21158941.300    21158947.683
       239.000         201.000
  21555240.876    -2677278.33849  -2094140.42447  21555240.278    21555246.017
       240.000         195.000
  20266941.492     -994052.03849  -1027656.21748  20266941.159    20266946.005
       245.000         213.000
  23808685.888     1903847.60649   1409175.76645  23808687.099    23808694.200
       216.000         155.000
  22583785.354    -1857714.52149  -1458616.34546  22583784.461    22583790.611
       229.000         176.000
  22050150.129    -2606308.33349  -2038149.60546  22050149.869    22050155.526
       228.000         178.000
  23793461.849     2009331.49749   1534982.47345  23793461.419    23793470.997
       213.000         155.000
  21000192.867       14898.07549   -318618.57147  21000192.259    21000197.745
       246.000         212.000
  23741798.233    -2432229.63549  -1904109.26345  23741796.296    23741804.441
       204.000         140.000
 02  7 10 15 42 30.0000000  0 11G21G18G17G15G 6G30G29G26G10G23G22
  24443035.487    -2546860.72749  -1984994.64845  24443034.719    24443044.123
       207.000         133.000
  21756926.929    -3763087.15449  -2934263.38547  21756926.313    21756930.679
       237.000         190.000
  21153305.578    -2155603.14949  -1690441.95447  21153304.812    21153310.747
       238.000         201.000
  21546285.407    -2724339.52149  -2130811.47347  21546283.858    21546290.537
       237.000         193.000
  20269032.160     -983065.60749  -1019095.38048  20269032.031    20269036.603
       245.000         213.000
  23828068.188     2005701.58149   1488542.35245  23828068.262    23828076.715
       215.000         154.000
  22580857.204    -1873101.81149  -1470606.43646  22580856.868    22580862.862
       227.000         176.000
  22042719.584    -2645356.21849  -2068576.51646  22042719.183    22042724.642
       230.000         177.000
  23813062.113     2112331.75949   1615242.33345  23813060.411    23813069.896
       212.000         154.000
  21008468.906       58388.51849   -284729.93347  21008468.630    21008473.692
       246.000         212.000
  23735570.726    -2464953.46649  -1929608.37045  23735570.746    23735577.375
       209.000         141.000
 02  7 10 15 43  0.0000000  0 11G21G18G17G15G 6G30G29G26G10G23G22
  24425791.059    -2637481.22149  -2055607.91645  24425789.188    24425799.686
       209.000         138.000
  21742413.708    -3839354.83449  -2993692.70247  21742412.911    21742417.304
       238.000         190.000
  21147697.747    -2185072.24249  -1713404.89147  21147697.044    21147702.986
       238.000         201.000
  21537362.181    -2771231.12649  -2167350.38647  21537361.645    21537366.962
       239.000         193.000
  20271213.527     -971602.64649  -1010163.22348  20271213.171    20271218.339
       245.000         213.000
  23847454.758     2107578.39349   1567926.73345  23847454.371    23847463.531
       214.000         154.000
  22578027.027    -1887974.59849  -1482195.62546  22578026.557    22578032.352
       227.000         176.000
  22035394.504    -2683850.56349  -2098572.10246  22035394.174    22035399.355
       229.000         177.000
  23832680.279     2215426.66049   1695575.95145  23832679.669    23832687.718
       213.000         153.000
  21016818.983      102267.92049   -250538.21447  21016818.479    21016823.882
       247.000         212.000
  23729443.393    -2497154.69349  -1954700.24545  23729442.449    23729450.573
       206.000         141.000
 02  7 10 15 43 30.0000000  0 11G21G18G17G15G 6G30G29G26G10G23G22
  24408579.339    -2727929.80149  -2126087.22745  24408578.493    24408588.393
       209.000         143.000
  21727970.373    -3915255.32449  -3052835.91347  21727969.480    21727974.161
       238.000         191.000
  21142118.382    -2214391.68249  -1736251.21147  21142117.337    21142123.694
       238.000         201.000
  21528471.345    -2817953.01149  -2203757.05447  21528471.030    21528476.595
       239.000         193.000
  20273485.689     -959662.28449  -1000859.07448  20273485.418    20273490.551
       245.000         213.000
  23866845.081     2209475.42649   1647326.86345  23866846.146    23866853.009
       216.000         155.000
  22575294.897    -1902331.67449  -1493382.96246  22575295.448    22575300.333
       228.000         176.000
  22028175.002    -2721789.07149  -2128134.55246  22028174.602    22028180.615
       229.000         178.000
  23852316.211     2318613.59649   1775981.25845  23852315.775    23852323.900
       214.000         151.000
  21025242.589      146534.26149   -216044.98247  21025241.808    21025247.192
       245.000         212.000
  23723415.317    -2528832.66749  -1979384.43545  23723416.231    23723420.607
       207.000         139.000
 02  7 10 15 44  0.0000000  0 11G21G18G17G15G 6G30G29G26G10G23G22
  24391399.992    -2818207.03049  -2196433.03845  24391399.096    24391409.309
       216.000         146.000
  21713596.641    -3990789.77849  -3111693.89647  21713595.690    21713600.725
       237.000         193.000
  21136567.101    -2243563.87649  -1758982.78947  21136566.799    21136572.268
       239.000         201.000
  21519612.352    -2864507.81449  -2240033.52147  21519612.342    21519617.438
       239.000         192.000
  20275848.460     -947246.10649   -991184.14948  20275848.322    20275853.327
       245.000         213.000
  23886238.528     2311387.45549   1726738.70245  23886239.510    23886246.367
       219.000         155.000
  22572660.764    -1916174.21849  -1504169.37646  22572660.362    22572666.660
       226.000         176.000
  22021061.359    -2759171.74149  -2157263.87946  22021061.426    22021066.822
       229.000         179.000
  23871968.911     2421887.92049   1856454.70045  23871968.790    23871976.046
       213.000         148.000
  21033738.984      191183.27549   -181253.56347  21033738.346    21033743.581
       245.000         211.000
  23717486.121    -2559988.98649  -2003662.07145  23717484.657    23717492.334
       205.000         138.000
 02  7 10 15 44 30.0000000  0 11G21G18G17G15G 6G30G29G26G10G23G22
  24374254.396    -2908308.68249  -2266642.03445  24374253.066    24374262.203
       216.000         148.000
  21699293.290    -4065953.82249  -3170263.25747  21699292.532    21699297.838
       238.000         193.000
  21131044.515    -2272585.77149  -1781597.26447  21131044.173    21131049.630
       240.000         202.000
  21510785.787    -2910892.36049  -2276177.30547  21510784.204    21510790.612
       237.000         191.000
  20278302.516     -934350.24849   -981135.45748  20278302.333    20278307.383
       246.000         213.000
  23905634.755     2413314.79049   1806162.43845  23905634.793    23905642.719
       219.000         155.000
  22570125.315    -1929498.05749  -1514551.59146  22570125.317    22570132.031
       228.000         178.000
  22014054.406    -2795993.14049  -2185955.88746  22014054.197    22014060.278
       228.000         179.000
  23891638.177     2525250.63249   1936996.98245  23891637.843    23891644.624
       210.000         144.000
  21042308.470      236216.10349   -146163.06547  21042307.793    21042313.405
       245.000         211.000
  23711657.366    -2590619.88249  -2027530.30645  23711656.182    23711662.553
       204.000         138.000
 02  7 10 15 45  0.0000000  0 11G21G18G17G15G 6G30G29G26G10G23G22
  24357142.044    -2998234.53649  -2336714.02645  24357141.392    24357149.445
       214.000         148.000
  21685060.593    -4140746.84149  -3228543.50947  21685059.646    21685065.048
       238.000         194.000
  21125550.301    -2301458.36949  -1804095.40447  21125549.426    21125555.334
       238.000         202.000
  21501991.200    -2957107.72249  -2312189.25947  21501990.182    21501995.991
       238.000         190.000
  20280847.778     -920975.16949   -970713.34148  20280847.781    20280852.328
       246.000         213.000
  23925033.248     2515253.54449   1885595.08945  23925033.764    23925041.200
       221.000         154.000
  22567688.646    -1942303.01249  -1524529.47946  22567688.484    22567694.979
       227.000         178.000
  22007154.503    -2832252.15949  -2214209.65746  22007154.684    22007161.146
       228.000         179.000
  23911323.550     2628698.24349   2017605.39845  23911323.295    23911332.006
       210.000         145.000
  21050950.417      281629.71149   -110775.85547  21050949.941    21050955.251
       245.000         211.000
  23705928.319    -2620725.62049  -2050989.37945  23705927.628    23705934.398
       206.000         138.000
 02  7 10 15 45 30.0000000  0 11G21G18G17G15G 6G30G29G26G10G23G22
  24340063.468    -3087982.50849  -2406647.38145  24340061.706    24340070.710
       213.000         147.000
  21670898.768    -4215167.11549  -3286533.30847  21670897.720    21670903.331
       237.000         193.000
  21120084.396    -2330181.35949  -1826476.95247  21120084.060    21120089.658
       239.000         202.000
  21493229.094    -3003153.21449  -2348068.85747  21493228.118    21493234.311
       236.000         190.000
  20283484.483     -907119.70449   -959916.87948  20283484.396    20283489.092
       246.000         213.000
  23944433.400     2617201.52549   1965034.91845  23944433.933    23944440.989
       218.000         152.000
  22565351.013    -1954587.57849  -1534101.86946  22565350.853    22565357.049
       228.000         179.000
  22000362.176    -2867946.07849  -2242023.09146  22000362.496    22000368.394
       230.000         180.000
  23931025.041     2732228.85849   2098278.54145  23931024.846    23931032.689
       215.000         148.000
  21059664.562      327422.53449    -75093.15847  21059663.978    21059669.427
       245.000         211.000
  23700299.869    -2650305.35949  -2074038.51245  23700298.665    23700306.927
       205.000         141.000
 02  7 10 15 46  0.0000000  0 11G21G18G17G15G 6G30G29G26G10G23G22
  24323018.950    -3177551.62549  -2476441.39945  24323017.365    24323026.693
       212.000         146.000
  21656808.001    -4289214.05649  -3344232.18747  21656806.905    21656812.514
       237.000         192.000
  21114647.059    -2358755.48149  -1848742.50047  21114646.514    21114652.254
       239.000         202.000
  21484499.008    -3049029.47849  -2383816.58547  21484498.281    21484504.640
       235.000         191.000
  20286212.523     -892783.88349   -948746.13048  20286212.238    20286217.217
       246.000         213.000
  23963834.602     2719155.33849   2044479.28845  23963835.752    23963842.647
       218.000         151.000
  22563112.528    -1966351.34849  -1543268.42946  22563112.482    22563118.454
       228.000         178.000
  21993677.662    -2903073.50549  -2269395.10246  21993677.574    21993683.343
       229.000         180.000
  23950741.916     2835839.67949   2179014.13845  23950741.956    23950749.455
       215.000         152.000
  21068450.342      373591.87449    -39117.07047  21068449.576    21068455.082
       245.000         211.000
  23694770.717    -2679358.92749  -2096677.62345  23694767.884    23694778.369
       203.000         138.000
 02  7 10 15 46 30.0000000  0 11G21G18G17G15G 6G30G29G26G10G23G22
  24306008.535    -3266940.90949  -2546095.30145  24306007.081    24306017.257
       212.000         146.000
  21642788.571    -4362886.30049  -3401639.09647  21642788.160    21642792.607
       239.000         192.000
  21109237.989    -2387180.67349  -1870892.00747  21109237.269    21109243.007
       239.000         202.000
  21475801.329    -3094736.30349  -2419432.28247  21475800.283    21475806.958
       235.000         190.000
  20289032.092     -877966.97849   -937200.51648  20289031.935    20289036.705
       246.000         213.000
  23983236.643     2821112.31949   2123926.12645  23983239.819    23983244.050
       218.000         152.000
  22560973.254    -1977593.09549  -1552028.23446  22560972.264    22560979.256
       226.000         177.000
  21987101.443    -2937631.98049  -2296323.76746  21987101.476    21987107.069
       230.000         180.000
  23970473.452     2939528.43349   2259810.48445  23970472.887    23970479.699
       213.000         152.000
  21077307.392      420135.76749     -2849.12247  21077306.764    21077312.347
       245.000         210.000
  23689342.145    -2707885.74349  -2118906.36845  23689341.790    23689347.738
       204.000         137.000
 02  7 10 15 47  0.0000000  0 11G21G18G17G15G 6G30G29G26G10G23G22
  24289032.706    -3356148.43749  -2615607.57945  24289032.293    24289042.366
       210.000         146.000
  21628840.826    -4436182.25249  -3458752.78547  21628839.956    21628844.865
       238.000         193.000
  21103857.195    -2415456.59049  -1892925.19847  21103856.744    21103862.470
       240.000         202.000
  21467135.835    -3140273.60849  -2454915.88347  21467135.232    21467141.677
       235.000         190.000
  20291943.386     -862668.17649   -925279.39048  20291943.190    20291947.823
       246.000         213.000
  24002638.782     2923069.87549   2203373.42345  24002640.828    24002647.765
       216.000         150.000
  22558933.429    -1988311.70949  -1560380.39846  22558933.106    22558939.399
       227.000         177.000
  21980633.825    -2971619.31549  -2322807.38946  21980633.694    21980638.937
       230.000         179.000
  23990219.250     3043293.37649   2340666.21745  23990217.998    23990227.992
       212.000         153.000
  21086235.349      467052.39049     33709.26547  21086234.614    21086240.023
       245.000         210.000
  23684014.120    -2735885.03749  -2140724.00845  23684014.178    23684021.807
       207.000         138.000
 02  7 10 15 47 30.0000000  0 11G21G18G17G15G 6G30G29G26G10G23G22
  24272091.791    -3445173.50449  -2684977.61645  24272091.741    24272099.910
       215.000         145.000
  21614964.891    -4509100.94849  -3515572.50747  21614964.541    21614969.351
       238.000         194.000
  21098504.863    -2443583.78349  -1914842.49947  21098504.399    21098510.021
       239.000         202.000
  21458502.564    -3185641.62049  -2490267.57447  21458501.509    21458508.080
       235.000         190.000
  20294946.453     -846887.11049   -912982.47247  20294946.241    20294951.147
       246.000         212.000
  24022040.355     3025024.97849   2282818.79245  24022040.607    24022049.809
       212.000         149.000
  22556993.340    -1998506.44749  -1568324.34246  22556993.328    22556999.285
       227.000         176.000
  21974275.276    -3005033.62149  -2348844.51146  21974275.156    21974280.746
       230.000         179.000
  24009979.193     3147131.71749   2421579.10945  24009977.558    24009986.425
       214.000         152.000
  21095233.760      514339.40649     70556.26747  21095233.244    21095238.771
       245.000         210.000
  23678786.697    -2763356.57949  -2162130.38145  23678787.327    23678793.782
       207.000         137.000
 02  7 10 15 48  0.0000000  0 11G21G18G17G15G 6G30G29G26G10G23G22
  24255186.003    -3534014.62049  -2754204.36045  24255186.204    24255193.990
       215.000         145.000
  21601160.894    -4581641.29149  -3572097.42247  21601160.328    21601165.782
       239.000         195.000
  21093180.700    -2471562.21449  -1936643.88347  21093179.815    21093186.170
       238.000         202.000
  21449901.507    -3230840.50049  -2525487.48147  21449900.793    21449906.823
       235.000         189.000
  20298041.390     -830623.19449   -900309.30548  20298041.268    20298046.108
       246.000         213.000
  24041440.834     3126974.69749   2362259.96445  24041439.788    24041449.131
       211.000         146.000
  22555153.216    -2008176.26349  -1575859.26546  22555153.142    22555160.553
       227.000         177.000
  21968026.216    -3037872.94349  -2374433.58046  21968026.042    21968032.231
       229.000         180.000
  24029752.629     3251040.98449   2502547.29845  24029751.959    24029759.391
       211.000         151.000
  21104302.306      561994.69349    107690.22647  21104301.696    21104307.432
       245.000         210.000
  23673659.564    -2790299.96649  -2183125.25645  23673659.557    23673665.277
       207.000         134.000
 02  7 10 15 48 30.0000000  0 11G21G18G17G15G 6G30G29G26G10G23G22
  24238315.363    -3622670.47949  -2823286.74745  24238314.814    24238321.957
       214.000         143.000
  21587429.148    -4653801.89949  -3628326.45747  21587428.304    21587433.723
       238.000         195.000
  21087884.773    -2499392.09349  -1958329.50347  21087884.281    21087889.987
       240.000         202.000
  21441332.599    -3275870.07249  -2560575.45547  21441331.615    21441338.324
       234.000         189.000
  20301228.334     -813876.04449   -887259.59948  20301228.122    20301233.033
       246.000         213.000
  24060839.582     3228916.37949   2441694.86945  24060837.559    24060847.445
       207.000         142.000
  22553413.279    -2017320.41149  -1582984.57846  22553413.627    22553419.400
       228.000         178.000
  21961886.898    -3070135.18149  -2399572.97546  21961886.652    21961892.932
       229.000         180.000
  24049538.820     3355019.13149   2583569.09745  24049537.901    24049545.559
       208.000         146.000
  21113440.464      610015.96349    145109.38047  21113439.910    21113445.138
       246.000         210.000
  23668633.295    -2816714.66849  -2203708.12745  23668633.926    23668640.939
       208.000         136.000
 02  7 10 15 49  0.0000000  0 11G21G18G17G15G 6G30G29G26G10G23G22
  24221480.083    -3711139.60149  -2892223.66345  24221477.480    24221486.060
       209.000         139.000
  21573769.902    -4725581.36249  -3684258.48447  21573769.100    21573774.283
       237.000         195.000
  21082617.413    -2527073.13849  -1979899.16247  21082617.408    21082622.322
       240.000         202.000
  21432796.028    -3320730.08849  -2595531.31247  21432794.965    21432801.390
       234.000         189.000
  20304507.391     -796644.76949   -873832.64748  20304507.102    20304512.041
       246.000         213.000
  24080236.174     3330847.57749   2521121.63345  24080235.510    24080245.681
       209.000         139.000
  22551773.645    -2025937.66949  -1589699.31446  22551773.252    22551779.629
       229.000         178.000
  21955857.879    -3101818.17949  -2424261.02646  21955857.766    21955863.681
       230.000         179.000
  24069337.843     3459064.10649   2664643.00445  24069336.915    24069344.960
       210.000         142.000
  21122647.950      658401.55649    182812.42047  21122647.405    21122652.690
       246.000         210.000
  23663707.677    -2842599.91249  -2223878.46145  23663706.027    23663713.549
       207.000         137.000
 02  7 10 15 49 30.0000000  0 11G21G18G17G15G 6G30G29G26G10G23G22
  24204680.268    -3799421.03249  -2961014.30745  24204678.550    24204689.768
       208.000         137.000
  21560183.380    -4796978.66749  -3739892.71847  21560183.076    21560188.122
       239.000         196.000
  21077378.413    -2554605.32149  -2001352.82047  21077377.785    21077383.047
       240.000         202.000
  21424291.643    -3365420.66649  -2630355.12947  21424290.452    21424296.572
       233.000         189.000
  20307878.556     -778929.13249   -860028.28248  20307878.149    20307883.058
       246.000         213.000
  24099630.699     3432765.38249   2600537.93245  24099630.373    24099639.209
       208.000         136.000
  22550234.282    -2034027.21349  -1596002.85446  22550233.818    22550240.148
       228.000         178.000
  21949939.387    -3132919.99949  -2448496.19746  21949939.053    21949945.560
       230.000         180.000
  24089149.549     3563173.70549   2745767.29745  24089148.400    24089156.841
       208.000         142.000
  21131924.380      707149.33149    220797.67847  21131923.674    21131929.371
       246.000         210.000
  23658882.533    -2867955.55349  -2243636.11745  23658882.217    23658888.213
       208.000         137.000
 02  7 10 15 50  0.0000000  0 11G21G18G17G15G 6G30G29G26G10G23G22
  24187916.673    -3887513.31849  -3029657.55645  24187916.914    24187925.291
       211.000         139.000
  21546670.018    -4867992.49349  -3795228.13147  21546669.601    21546674.104
       240.000         196.000
  21072167.334    -2581988.98849  -2022690.74247  21072166.493    21072172.143
       239.000         202.000
  21415819.491    -3409941.98549  -2665047.06347  21415819.037    21415825.378
       234.000         189.000
  20311342.001     -760728.63449   -845846.09448  20311341.951    20311346.455
       246.000         213.000
  24119022.081     3534666.77349   2679941.45045  24119022.658    24119029.680
       213.000         137.000
  22548795.393    -2041588.32249  -1601894.63546  22548795.594    22548801.152
       229.000         177.000
  21944131.914    -3163438.78349  -2472277.04846  21944131.804    21944138.095
       230.000         180.000
  24108973.004     3667345.64549   2826940.14245  24108973.015    24108980.225
       211.000         141.000
  21141269.232      756257.04749    259063.41347  21141268.624    21141274.300
       246.000         210.000
  23654158.354    -2892781.24049  -2262980.82645  23654156.258    23654164.915
       204.000         139.000
 02  7 10 15 50 30.0000000  0 11G21G18G17G15G 6G30G29G26G10G23G22
  24171189.740    -3975414.57249  -3098151.94945  24171189.424    24171198.725
       212.000         141.000
  21533229.690    -4938621.70649  -3850263.84847  21533228.826    21533233.482
       238.000         194.000
  21066984.588    -2609223.95049  -2043912.79447  21066983.950    21066990.247
       240.000         202.000
  21407379.693    -3454293.97249  -2699607.04447  21407379.130    21407384.910
       234.000         189.000
  20314897.870     -742042.68749   -831285.63347  20314897.489    20314902.674
       245.000         212.000
  24138409.902     3636549.30549   2759330.27145  24138411.885    24138418.110
       216.000         138.000
  22547457.309    -2048620.16549  -1607373.98746  22547456.601    22547462.980
       227.000         177.000
  21938435.732    -3193372.59149  -2495602.08046  21938435.807    21938441.577
       230.000         180.000
  24128807.491     3771577.49049   2908159.64545  24128806.385    24128815.386
       210.000         143.000
  21150682.314      805722.57749    297607.96147  21150682.018    21150687.109
       247.000         210.000
  23649534.824    -2917076.58449  -2281912.25745  23649533.878    23649541.393
       207.000         139.000
 02  7 10 15 51  0.0000000  0 11G21G18G17G15G 6G30G29G26G10G23G22
  24154498.893    -4063126.27849  -3166498.65745  24154499.288    24154505.306
       215.000         145.000
  21519862.335    -5008867.39749  -3905000.71247  21519861.980    21519866.424
       240.000         195.000
  21061829.893    -2636312.56849  -2065020.81147  21061829.439    21061835.291
       240.000         202.000
  21398971.693    -3498478.54749  -2734036.57147  21398971.420    21398976.512
       234.000         189.000
  20318545.688     -722872.95749   -816348.20147  20318545.364    20318550.264
       245.000         212.000
  24157793.273     3738407.18449   2838699.67745  24157793.318    24157802.617
       217.000         141.000
  22546219.610    -2055123.90349  -1612441.83746  22546219.627    22546224.454
       228.000         176.000
  21932850.901    -3222721.41749  -2518471.28846  21932851.153    21932856.039
       231.000         180.000
  24148652.843     3875865.07549   2989422.62845  24148651.866    24148660.148
       213.000         146.000
  21160162.708      855541.74049    336428.06947  21160162.145    21160167.091
       246.000         210.000
  23645012.001    -2940843.16749  -2300431.71545  23645010.460    23645019.726
       207.000         139.000
 02  7 10 15 51 30.0000000  0 11G21G18G17G15G 6G30G29G26G10G23G22
  24137844.744    -4150644.89249  -3234694.88545  24137844.078    24137851.602
       216.000         147.000
  21506568.724    -5078725.71749  -3959435.73847  21506567.953    21506573.071
       237.000         196.000
  21056703.530    -2663252.06349  -2086012.63647  21056702.958    21056708.227
       240.000         202.000
  21390596.080    -3542493.08549  -2768333.60547  21390595.309    21390601.605
       235.000         190.000
  20322286.244     -703216.54449   -801031.53947  20322285.904    20322290.850
       245.000         212.000
  24177172.008     3840242.17949   2918051.48045  24177172.891    24177181.467
       217.000         144.000
  22545083.056    -2061096.29149  -1617095.63746  22545082.005    22545088.597
       228.000         176.000
  21927378.139    -3251481.02149  -2540881.36846  21927378.382    21927383.249
       229.000         178.000
  24168509.096     3980208.94849   3070729.44145  24168509.369    24168516.377
       214.000         148.000
  21169710.330      905715.02349    375524.11347  21169709.635    21169715.175
       246.000         209.000
  23640590.337    -2964078.22349  -2318536.95445  23640589.750    23640596.645
       209.000         142.000
 02  7 10 15 52  0.0000000  0 11G21G18G17G15G 6G30G29G26G10G23G22
  24121227.517    -4237968.81249  -3302739.42045  24121227.392    24121234.351
       216.000         147.000
  21493349.006    -5148195.75349  -4013568.20947  21493348.395    21493353.431
       238.000         196.000
  21051605.432    -2690042.71649  -2106888.47347  21051604.657    21051610.290
       239.000         202.000
  21382252.796    -3586337.50749  -2802498.08147  21382251.965    21382257.655
       235.000         190.000
  20326119.372     -683072.94549   -785335.25547  20326119.141    20326124.190
       245.000         212.000
  24196545.500     3942050.37449   2997382.39645  24196545.060    24196554.526
       214.000         145.000
  22544047.835    -2066536.49049  -1621334.75646  22544047.631    22544052.800
       228.000         176.000
  21922017.796    -3279649.61949  -2562830.91246  21922017.973    21922022.890
       231.000         179.000
  24188375.589     4084606.55849   3152078.11245  24188374.877    24188382.407
       210.000         145.000
  21179324.900      956240.09249    414894.27747  21179324.219    21179329.866
       245.000         209.000
  23636270.067    -2986781.57349  -2336227.91245  23636269.261    23636276.768
       210.000         142.000
 02  7 10 15 52 30.0000000  0 11G21G18G17G15G 6G30G29G26G10G23G22
  24104647.324    -4325097.90349  -3370632.14545  24104646.740    24104655.229
       217.000         147.000
  21480203.268    -5217276.94949  -4067397.69047  21480202.675    21480207.908
       240.000         197.000
  21046535.424    -2716685.48049  -2127649.07147  21046534.867    21046540.597
       240.000         202.000
  21373941.720    -3630012.67649  -2836530.66847  21373940.849    21373946.576
       234.000         190.000
  20330045.186     -662442.77649   -769259.81147  20330044.923    20330049.835
       245.000         212.000
  24215912.928     4043827.05849   3076688.48945  24215913.752    24215920.596
       214.000         143.000
  22543113.828    -2071444.97749  -1625159.53946  22543114.227    22543120.162
       229.000         177.000
  21916770.178    -3307226.31749  -2584319.23346  21916770.226    21916775.334
       231.000         180.000
  24208251.447     4189054.68349   3233466.19345  24208250.667    24208258.510
       210.000         142.000
  21189005.874     1007113.85749    454536.15447  21189005.267    21189010.830
       245.000         209.000
  23632050.990    -3008953.80149  -2353505.02445  23632050.042    23632058.235
       209.000         143.000
 02  7 10 15 53  0.0000000  0 11G21G18G17G15G 6G30G29G26G10G23G22
  24088104.644    -4412030.11049  -3438371.44845  24088102.783    24088112.913
       217.000         149.000
  21467131.875    -5285967.54749  -4120922.80347  21467130.915    21467136.319
       240.000         197.000
  21041493.897    -2743179.23549  -2148293.55647  21041493.347    21041498.847
       240.000         202.000
  21365662.870    -3673517.71749  -2870430.68347  21365661.960    21365668.092
       234.000         190.000
  20334063.854     -641324.73549   -752804.21447  20334063.551    20334068.624
       246.000         212.000
  24235274.775     4145572.70549   3155970.69545  24235276.117    24235283.671
       216.000         147.000
  22542281.483    -2075819.89449  -1628568.57446  22542282.243    22542286.142
       229.000         178.000
  21911635.669    -3334208.21849  -2605344.08846  21911635.890    21911640.484
       231.000         181.000
  24228136.801     4293552.27449   3314892.78845  24228137.429    24228143.551
       212.000         144.000
  21198752.954     1058335.03649    494448.74147  21198752.329    21198757.650
       245.000         208.000
  23627933.142    -3030593.74249  -2370367.29745  23627932.093    23627939.842
       212.000         146.000
 02  7 10 15 53 30.0000000  0 11G21G18G17G15G 6G30G29G26G10G23G22
  24071599.569    -4498764.26149  -3505956.42545  24071598.489    24071607.773
       218.000         153.000
  21454134.907    -5354267.15149  -4174143.24247  21454134.642    21454139.253
       238.000         197.000
  21036480.469    -2769524.90649  -2168822.65547  21036479.708    21036485.208
       240.000         202.000
  21357416.376    -3716853.58249  -2904198.88047  21357415.779    21357421.899
       235.000         190.000
  20338175.287     -619719.23549   -735968.78148  20338175.204    20338180.269
       246.000         213.000
  24254629.941     4247282.69549   3235225.04645  24254631.438    24254638.975
       217.000         150.000
  22541550.509    -2079661.33849  -1631561.89946  22541550.419    22541557.042
       229.000         178.000
  21906614.456    -3360594.60449  -2625904.87546  21906614.336    21906620.134
       230.000         181.000
  24248031.307     4398096.10549   3396355.39945  24248032.047    24248037.527
       212.000         147.000
  21208565.652     1109900.84949    534629.87047  21208565.046    21208570.536
       244.000         208.000
  23623916.264    -3051701.94949  -2386815.30445  23623916.073    23623922.930
       213.000         146.000
 02  7 10 15 54  0.0000000  0 11G21G18G17G15G 6G30G29G26G10G23G22
  24055132.315    -4585299.69849  -3573386.54645  24055130.500    24055140.730
       217.000         154.000
  21441212.531    -5422174.68149  -4227058.17647  21441212.148    21441216.562
       239.000         196.000
  21031495.220    -2795722.52049  -2189236.38147  21031494.609    21031500.253
       240.000         202.000
  21349202.138    -3760019.96849  -2937835.01147  21349201.016    21349207.095
       234.000         190.000
  20342379.544     -597625.83449   -718753.16247  20342379.194    20342384.359
       245.000         212.000
  24273977.673     4348954.40649   3314449.58645  24273978.334    24273986.170
       217.000         152.000
  22540921.158    -2082968.57849  -1634138.98246  22540920.435    22540927.351
       229.000         178.000
  21901706.889    -3386383.57149  -2646000.16046  21901706.584    21901713.169
       232.000         182.000
  24267934.112     4502684.53749   3477852.76445  24267933.110    24267940.054
       209.000         144.000
  21218443.482     1161809.31949    575078.00347  21218442.758    21218448.505
       243.000         208.000
  23620001.066    -3072278.21849  -2402848.77845  23620000.184    23620007.448
       216.000         148.000
 02  7 10 15 54 30.0000000  0 11G21G18G17G15G 6G30G29G26G10G23G22
  24038703.294    -4671634.45749  -3640660.30845  24038702.503    24038712.682
       218.000         156.000
  21428365.187    -5489688.09949  -4279665.99947  21428364.422    21428369.197
       238.000         196.000
  21026538.414    -2821770.99249  -2209533.89347  21026537.901    21026543.467
       240.000         202.000
  21341020.295    -3803016.05049  -2971338.44447  21341019.560    21341025.588
       234.000         190.000
  20346676.915     -575043.29849   -701156.40347  20346676.689    20346682.009
       245.000         212.000
  24293317.800     4450586.08649   3393642.90845  24293318.815    24293326.367
       217.000         153.000
  22540393.772    -2085740.25449  -1636298.74946  22540393.310    22540399.712
       229.000         178.000
  21896913.516    -3411572.49549  -2665627.88846  21896913.562    21896919.790
       230.000         183.000
  24287845.148     4607316.18349   3559383.81745  24287844.005    24287852.495
       215.000         147.000
  21228386.371     1214059.21649    615792.18947  21228385.704    21228391.040
       243.000         208.000
  23616187.046    -3092321.33249  -2418466.83145  23616186.644    23616194.504
       218.000         151.000
 02  7 10 15 55  0.0000000  0 11G21G18G17G15G 6G30G29G26G10G23G22
  24022312.394    -4757768.94949  -3707778.01545  24022311.830    24022320.429
       219.000         156.000
  21415592.518    -5556808.61649  -4331967.66747  21415591.764    21415596.897
       238.000         197.000
  21021609.641    -2847672.41449  -2229716.82547  21021609.103    21021614.843
       242.000         203.000
  21332870.464    -3845843.64949  -3004710.58647  21332869.762    21332875.614
       234.000         191.000
  20351066.971     -551973.38349   -683179.86147  20351066.580    20351071.944
       244.000         212.000
  24312649.308     4552172.98349   3472801.35345  24312649.073    24312658.356
       215.000         152.000
  22539967.999    -2087977.49849  -1638042.05846  22539967.905    22539973.612
       229.000         177.000
  21892234.340    -3436161.67649  -2684788.26546  21892234.551    21892239.749
       231.000         182.000
  24307763.668     4711986.83349   3640945.29645  24307762.576    24307769.476
       217.000         147.000
  21238393.374     1266646.27549    656769.09947  21238392.687    21238398.163
       243.000         208.000
  23612474.245    -3111833.30549  -2433670.99345  23612473.685    23612480.062
       218.000         152.000
 02  7 10 15 55 30.0000000  0 11G21G18G17G15G 6G30G29G26G10G23G22
  24005960.346    -4843699.75249  -3774736.98245  24005959.680    24005967.016
       219.000         156.000
  21402895.383    -5623532.58749  -4383960.34947  21402894.684    21402899.684
       240.000         198.000
  21016709.290    -2873424.27649  -2249783.21547  21016708.545    21016714.498
       241.000         203.000
  21324753.150    -3888500.26449  -3037949.49847  21324752.341    21324758.174
       235.000         191.000
  20355550.253     -528413.44749   -664821.49447  20355549.796    20355555.171
       244.000         211.000
  24331972.228     4653714.81049   3551924.69545  24331972.406    24331981.121
       213.000         152.000
  22539644.519    -2089677.32349  -1639366.60946  22539644.039    22539649.711
       230.000         176.000
  21887670.167    -3460147.06649  -2703478.16546  21887670.361    21887675.650
       230.000         181.000
  24327689.499     4816696.76049   3722537.35745  24327687.532    24327696.487
       213.000         147.000
  21248464.538     1319570.69249    698008.88547  21248463.915    21248469.650
       244.000         208.000
  23608862.823    -3130811.49449  -2448459.22645  23608861.066    23608869.578
       217.000         153.000
 02  7 10 15 56  0.0000000  0 11G21G18G17G15G 6G30G29G26G10G23G22
  23989646.907    -4929427.32249  -3841537.59145  23989645.904    23989655.156
       221.000         157.000
  21390273.536    -5689860.51249  -4435644.42147  21390273.002    21390278.528
       240.000         199.000
  21011837.012    -2899028.02649  -2269734.19047  21011836.079    21011841.659
       241.000         203.000
  21316668.149    -3930987.27349  -3071056.25247  21316667.208    21316673.385
       234.000         191.000
  20360126.616     -504364.60249   -646082.15547  20360126.398    20360131.607
       245.000         212.000
  24351285.525     4755207.55749   3631009.80345  24351285.456    24351294.766
       211.000         148.000
  22539423.101    -2090840.82049  -1640273.23246  22539422.972    22539427.926
       230.000         177.000
  21883220.942    -3483528.34049  -2721697.32146  21883221.381    21883226.496
       229.000         181.000
  24347621.923     4921442.60949   3804157.39345  24347620.643    24347627.989
       211.000         145.000
  21258599.210     1372828.85849    739508.73547  21258598.638    21258604.580
       243.000         208.000
  23605352.862    -3149257.14849  -2462832.50645  23605351.845    23605357.665
       217.000         154.000
 02  7 10 15 56 30.0000000  0 11G21G18G17G15G 6G30G29G26G10G23G22
  23973372.606    -5014949.50549  -3908178.17045  23973372.000    23973380.651
       221.000         157.000
  21377727.403    -5755790.81549  -4487018.65347  21377727.137    21377732.190
       241.000         200.000
  21006993.055    -2924483.24149  -2289569.41947  21006992.452    21006997.934
       242.000         203.000
  21308615.259    -3973304.43949  -3104030.65947  21308614.453    21308620.532
       235.000         191.000
  20364796.141     -479826.30549   -626961.42847  20364795.965    20364801.157
       246.000         212.000
  24370589.269     4856649.03149   3710054.92745  24370590.381    24370598.195
       209.000         146.000
  22539304.117    -2091466.78749  -1640760.99546  22539304.194    22539308.024
       228.000         176.000
  21878886.902    -3506303.72549  -2739444.34446  21878886.472    21878892.643
       229.000         181.000
  24367560.500     5026222.56449   3885804.00545  24367559.719    24367565.666
       209.000         142.000
  21268797.192     1426419.07749    781267.32447  21268796.738    21268802.506
       243.000         208.000
  23601944.213    -3167169.81349  -2476790.45445  23601943.415    23601950.677
       220.000         157.000
 02  7 10 15 57  0.0000000  0 11G21G18G17G15G 6G30G29G26G10G23G22
  23957137.576    -5100265.24449  -3974657.90845  23957136.529    23957146.114
       219.000         155.000
  21365257.187    -5821322.34149  -4538082.15347  21365256.131    21365261.889
       239.000         199.000
  21002177.413    -2949789.85449  -2309288.86347  21002177.095    21002182.404
       241.000         204.000
  21300594.987    -4015451.38449  -3136872.42647  21300594.225    21300599.924
       234.000         191.000
  20369558.878     -454798.02649   -607458.89547  20369558.348    20369563.873
       245.000         212.000
  24389883.033     4958036.53449   3789057.95545  24389884.274    24389892.219
       212.000         144.000
  22539287.319    -2091554.75649  -1640829.54846  22539287.436    22539292.457
       229.000         176.000
  21874668.392    -3528471.31349  -2756717.76046  21874667.883    21874674.087
       230.000         181.000
  24387505.528     5131034.56349   3967475.61745  24387504.072    24387511.988
       210.000         142.000
  21279057.894     1480339.18849    823282.97047  21279057.195    21279062.800
       243.000         208.000
  23598636.878    -3184549.42449  -2490333.03845  23598635.924    23598642.935
       220.000         158.000
 02  7 10 15 57 30.0000000  0 11G21G18G17G15G 6G30G29G26G10G23G22
  23940941.991    -5185373.59349  -4040976.03645  23940940.602    23940949.397
       216.000         155.000
  21352862.927    -5886454.44349  -4588834.40947  21352862.261    21352867.483
       240.000         199.000
  20997390.115    -2974948.01149  -2328892.61947  20997389.500    20997395.141
       241.000         204.000
  21292607.028    -4057428.06049  -3169581.50547  21292606.465    21292612.333
       235.000         191.000
  20374414.883     -429279.73649   -587574.53347  20374414.686    20374419.778
       245.000         212.000
  24409166.218     5059367.14549   3868016.71745  24409166.925    24409174.026
       207.000         142.000
  22539373.041    -2091104.46649  -1640478.67846  22539371.947    22539379.005
       227.000         176.000
  21870565.902    -3550029.98549  -2773516.70246  21870565.792    21870571.722
       231.000         181.000
  24407456.322     5235876.34249   4049170.43245  24407454.331    24407463.044
       208.000         140.000
  21289380.858     1534586.83149    865553.83847  21289380.129    21289386.019
       243.000         208.000
  23595431.028    -3201396.16449  -2503460.40045  23595430.304    23595437.803
       219.000         159.000
 02  7 10 15 58  0.0000000  0 11G21G18G17G15G 6G30G29G26G10G23G22
  23924785.470    -5270276.19749  -4107133.87645  23924785.266    23924794.457
       217.000         155.000
  21340544.480    -5951188.31249  -4639276.35847  21340544.089    21340549.010
       240.000         199.000
  20992630.481    -2999959.92649  -2348382.42347  20992629.395    20992635.275
       240.000         204.000
  21284651.125    -4099236.90749  -3202159.82947  21284650.543    21284656.643
       235.000         192.000
  20379363.725     -403273.45249   -567309.91547  20379363.450    20379368.371
       245.000         212.000
  24428437.051     5160636.18749   3946927.44745  24428436.955    24428444.506
       204.000         137.000
  22539560.719    -2090117.57149  -1639709.67546  22539560.847    22539566.260
       227.000         176.000
  21866579.178    -3570980.31449  -2789841.62046  21866578.972    21866585.138
       231.000         183.000
  24427411.742     5340743.73349   4130885.11545  24427409.326    24427419.980
       203.000         138.000
  21299765.340     1589157.62949    908076.51847  21299764.730    21299770.557
       243.000         208.000
  23592326.349    -3217712.10849  -2516174.15045  23592325.953    23592332.896
       221.000         160.000
 02  7 10 15 58 30.0000000  0 11G21G18G17G15G 6G30G29G26G10G23G22
  23908669.250    -5354967.31449  -4173126.85545  23908668.064    23908676.468
       217.000         155.000
  21328302.773    -6015519.18749  -4689404.27947  21328302.393    21328306.958
       241.000         198.000
  20987899.424    -3024821.44249  -2367755.03147  20987898.910    20987904.578
       240.000         204.000
  21276727.926    -4140873.78049  -3234604.13747  21276726.938    21276733.431
       235.000         192.000
  20384406.177     -376775.18349   -546661.93747  20384405.839    20384411.020
       245.000         212.000
  24447696.013     5261844.80649   4025791.13445  24447695.593    24447704.230
       206.000         136.000
  22539851.370    -2088589.75349  -1638519.16946  22539850.926    22539857.518
       226.000         176.000
  21862709.142    -3591316.96849  -2805688.34146  21862708.832    21862715.386
       231.000         183.000
  24447372.544     5445638.31049   4212621.03245  24447371.817    24447379.064
       210.000         143.000
  21310211.666     1644053.51149    950852.50747  21310210.998    21310216.371
       243.000         207.000
  23589323.254    -3233493.54049  -2528471.39545  23589322.242    23589328.999
       220.000         161.000
 02  7 10 15 59  0.0000000  0 11G21G18G17G15G 6G30G29G26G10G23G22
  23892593.180    -5439447.57849  -4238955.52345  23892591.933    23892599.732
       219.000         154.000
  21316137.602    -6079447.86249  -4739218.80047  21316137.265    21316141.936
       241.000         199.000
  20983196.728    -3049534.40549  -2387011.88947  20983196.186    20983201.970
       240.000         204.000
  21268837.084    -4182340.32449  -3266915.73047  21268836.371    21268842.332
       236.000         192.000
  20389542.006     -349786.47549   -525631.79947  20389541.734    20389547.035
       245.000         212.000
  24466942.948     5362988.66449   4104604.34145  24466941.609    24466952.653
       203.000         134.000
  22540244.730    -2086522.35549  -1636908.22646  22540244.433    22540250.622
       226.000         176.000
  21858956.021    -3611040.24449  -2821057.11946  21858956.210    21858961.898
       231.000         183.000
  24467338.021     5550556.48449   4294375.38445  24467337.964    24467346.020
       212.000         146.000
  21320719.015     1699270.39749    993878.62047  21320718.364    21320724.242
       243.000         207.000
  23586421.591    -3248741.97649  -2540353.32045  23586419.891    23586427.861
       219.000         161.000
 02  7 10 15 59 30.0000000  0 11G21G18G17G15G 6G30G29G26G10G23G22
  23876557.545    -5523716.03849  -4304619.16545  23876557.893    23876565.753
       219.000         154.000
  21304049.173    -6142973.15849  -4788718.99447  21304048.614    21304053.560
       240.000         201.000
  20978522.369    -3074098.40149  -2406152.66247  20978521.522    20978527.339
       240.000         204.000
  21260978.854    -4223636.15749  -3299094.30047  21260978.301    21260984.309
       236.000         193.000
  20394771.260     -322306.74449   -504219.04147  20394771.074    20394776.141
       245.000         212.000
  24486177.138     5464065.42949   4183365.29245  24486177.522    24486186.166
       210.000         133.000
  22540740.963    -2083914.56149  -1634876.18546  22540740.680    22540747.054
       226.000         176.000
  21855319.937    -3630148.35749  -2835946.55646  21855319.997    21855325.496
       230.000         181.000
  24487307.562     5655496.53849   4376146.72745  24487307.740    24487316.142
       213.000         148.000
  21331287.211     1754806.33549   1037153.35547  21331286.708    21331292.235
       243.000         207.000
  23583621.229    -3263457.30449  -2551819.84145  23583620.699    23583627.867
       220.000         161.000
 02  7 10 16  0  0.0000000  0 11G21G18G17G15G 6G30G29G26G10G23G22
  23860562.237    -5607771.60249  -4370116.93645  23860561.177    23860569.254
       217.000         153.000
  21292037.553    -6206094.40549  -4837904.35447  21292037.489    21292041.735
       241.000         201.000
  20973876.201    -3098513.78149  -2425177.63047  20973875.488    20973881.265
       239.000         204.000
  21253152.911    -4264761.67349  -3331140.14547  21253151.979    21253158.312
       237.000         193.000
  20400093.912     -294336.20749   -482423.83447  20400093.589    20400098.730
       245.000         212.000
  24505398.755     5565072.27549   4262071.77445  24505398.985    24505407.748
       208.000         134.000
  22541340.088    -2080766.33649  -1632423.02246  22541340.655    22541346.123
       227.000         177.000
  21851801.013    -3648640.18349  -2850355.76246  21851800.973    21851806.877
       231.000         181.000
  24507280.796     5760455.81349   4457933.09945  24507279.254    24507289.075
       207.000         146.000
  21341915.736     1810658.89549   1080674.80847  21341915.369    21341920.945
       244.000         207.000
  23580922.367    -3277639.89849  -2562871.23145  23580921.997    23580929.499
       221.000         162.000
 02  7 10 16  0 30.0000000  0 11G21G18G17G15G 6G30G29G26G10G23G22
  23844607.663    -5691613.00849  -4435447.84245  23844606.522    23844615.986
       216.000         152.000
  21280103.171    -6268810.33549  -4886773.89547  21280102.602    21280107.495
       240.000         201.000
  20969258.413    -3122779.97749  -2444086.36047  20969257.725    20969263.637
       239.000         204.000
  21245359.597    -4305716.44549  -3363052.96147  21245359.234    21245364.879
       237.000         194.000
  20405510.056     -265874.56949   -460245.95647  20405509.790    20405514.829
       245.000         211.000
  24524606.228     5666006.84749   4340721.90345  24524606.538    24524615.876
       211.000         138.000
  22542042.399    -2077076.95549  -1629548.19046  22542043.008    22542047.159
       229.000         177.000
  21848399.691    -3666514.06849  -2864283.44946  21848399.258    21848404.910
       231.000         181.000
  24527257.206     5865432.96349   4539733.35845  24527256.224    24527264.929
       205.000         142.000
  21352604.129     1866826.27949   1124441.57747  21352603.690    21352609.031
       243.000         207.000
  23578325.094    -3291289.45849  -2573507.29345  23578323.966    23578331.110
       221.000         162.000
 02  7 10 16  1  0.0000000  0 11G21G18G17G15G 6G30G29G26G10G23G22
  23828693.703    -5775240.07849  -4500611.72245  23828693.239    23828700.258
       218.000         152.000
  21268245.798    -6331121.00249  -4935327.62647  21268245.210    21268249.975
       240.000         200.000
  20964669.079    -3146897.67049  -2462879.36847  20964669.012    20964674.155
       241.000         204.000
  21237598.759    -4346500.71849  -3394832.92047  21237598.147    21237603.877
       237.000         194.000
  20411019.507     -236922.43049   -437685.87547  20411019.375    20411024.246
       245.000         211.000
  24543799.252     5766865.96549   4419313.25745  24543797.273    24543809.286
       208.000         139.000
  22542847.482    -2072846.89649  -1626252.06046  22542847.232    22542852.188
       228.000         176.000
  21845116.060    -3683769.38749  -2877729.13446  21845115.961    21845121.426
       230.000         181.000
  24547236.514     5970425.02349   4621545.28345  24547236.012    24547245.165
       207.000         138.000
  21363351.808     1923305.53349   1168451.36747  21363351.130    21363356.852
       244.000         207.000
  23575828.964    -3304406.85349  -2583728.65445  23575828.554    23575836.493
       222.000         162.000
 02  7 10 16  1 30.0000000  0 11G21G18G17G15G 6G30G29G26G10G23G22
  23812820.964    -5858650.88749  -4565607.08745  23812820.128    23812828.048
       217.000         151.000
  21256465.860    -6393024.76649  -4983564.29947  21256465.465    21256469.973
       241.000         200.000
  20960108.214    -3170866.23349  -2481556.17547  20960107.939    20960113.006
       241.000         204.000
  21229870.298    -4387113.88049  -3426479.52447  21229869.197    21229875.995
       236.000         194.000
  20416622.419     -207479.12349   -414743.05947  20416622.107    20416626.916
       245.000         211.000
  24562977.344     5867647.31549   4497843.98345  24562978.804    24562986.134
       211.000         137.000
  22543755.603    -2068075.08549  -1622533.74546  22543755.243    22543761.007
       227.000         176.000
  21841950.487    -3700404.17549  -2890691.30246  21841950.153    21841955.374
       230.000         180.000
  24567218.224     6075430.58749   4703367.69045  24567216.280    24567227.043
       197.000         135.000
  21374158.444     1980094.92849   1212702.81747  21374158.018    21374163.522
       243.000         207.000
  23573434.299    -3316991.71849  -2593535.08746  23573434.291    23573440.191
       222.000         163.000
 02  7 10 16  2  0.0000000  0 11G21G18G17G15G 6G30G29G26G10G23G22
  23796989.760    -5941843.70549  -4630432.58945  23796989.197    23796997.260
       218.000         151.000
  21244763.690    -6454520.15849  -5031482.75447  21244763.186    21244767.687
       241.000         201.000
  20955575.729    -3194685.09449  -2500116.32447  20955574.777    20955580.566
       240.000         204.000
  21222174.485    -4427555.48349  -3457992.45447  21222173.255    21222179.733
       236.000         193.000
  20422318.812     -177544.26749   -391417.21447  20422318.643    20422323.755
       245.000         211.000
  24582140.517     5968348.99749   4576312.63645  24582141.208    24582148.753
       208.000         138.000
  22544766.858    -2062761.01949  -1618392.91746  22544766.833    22544770.977
       228.000         176.000
  21838903.427    -3716416.60849  -2903168.51246  21838903.482    21838909.425
       233.000         182.000
  24587202.149     6180448.24449   4785199.55644  24587203.233    24587206.332
       204.000         130.000
  21385023.910     2037192.85949   1257194.68947  21385023.516    21385029.346
       244.000         207.000
  23571140.936    -3329043.77549  -2602926.31346  23571139.560    23571147.052
       223.000         164.000
 02  7 10 16  2 30.0000000  0 11G21G18G17G15G 6G30G29G26G10G23G22
  23781200.104    -6024818.53149  -4695088.19845  23781198.619    23781206.667
       217.000         151.000
  21233139.101    -6515607.80849  -5079083.48147  21233138.344    21233142.837
       241.000         201.000
  20951071.281    -3218355.34749  -2518560.67147  20951070.246    20951076.292
       239.000         204.000
  21214511.047    -4467826.68849  -3489372.61747  21214509.780    21214516.164
       235.000         193.000
  20428108.651     -147119.05149   -367709.27147  20428108.475    20428113.565
       245.000         212.000
  24601287.463     6068967.21449   4654716.24945  24601286.764    24601296.650
       206.000         137.000
  22545881.162    -2056905.45149  -1613830.13646  22545880.652    22545886.102
       226.000         175.000
  21835974.894    -3731806.74949  -2915160.82746  21835975.139    21835981.003
       232.000         183.000
  24607188.489     6285474.89149   4867038.40645  24607188.028    24607195.481
       206.000         135.000
  21395947.358     2094596.00049   1301924.38747  21395946.694    21395952.675
       243.000         207.000
  23568948.537    -3340564.31449  -2611903.38346  23568947.297    23568954.974
       222.000         164.000
 02  7 10 16  3  0.0000000  0 11G21G18G17G15G 6G30G29G26G10G23G22
  23765452.256    -6107573.52049  -4759572.52545  23765451.390    23765460.640
       218.000         152.000
  21221592.460    -6576285.86649  -5126365.05647  21221591.958    21221596.249
       241.000         201.000
  20946595.323    -3241876.00949  -2536888.46147  20946594.584    20946600.241
       240.000         204.000
  21206880.202    -4507926.38849  -3520619.13647  21206879.403    21206886.050
       236.000         193.000
  20433991.900     -116202.33749   -343618.35547  20433991.782    20433996.629
       245.000         212.000
  24620417.899     6169500.39249   4733053.61845  24620417.869    24620428.348
       207.000         138.000
  22547098.627    -2050507.33049  -1608844.58946  22547098.349    22547103.445
       227.000         176.000
  21833165.089    -3746572.26949  -2926666.41246  21833165.394    21833170.728
       232.000         183.000
  24627176.033     6390509.40649   4948883.40445  24627175.461    24627183.095
       210.000         140.000
  21406928.633     2152303.07249   1346890.90547  21406928.242    21406933.678
       243.000         206.000
  23566857.577    -3351552.56349  -2620465.71646  23566857.384    23566863.927
       221.000         164.000
 02  7 10 16  3 30.0000000  0 11G21G18G17G15G 6G30G29G26G10G23G22
  23749746.448    -6190108.40249  -4823885.35245  23749746.643    23749754.194
       220.000         155.000
  21210123.910    -6636553.80649  -5173327.05447  21210123.367    21210128.146
       241.000         201.000
  20942148.006    -3265247.09549  -2555099.69747  20942147.343    20942152.938
       241.000         204.000
  21199282.107    -4547854.59249  -3551732.02147  21199281.793    21199287.371
       237.000         193.000
  20439968.625      -84794.47049   -319144.71747  20439968.504    20439973.492
       247.000         212.000
  24639532.413     6269945.63349   4811322.38945  24639534.046    24639541.020
       209.000         140.000
  22548419.535    -2043566.56749  -1603436.20746  22548419.834    22548424.757
       228.000         177.000
  21830474.295    -3760712.55249  -2937684.81546  21830474.007    21830479.797
       231.000         183.000
  24647164.568     6495549.47749   5030732.70945  24647164.573    24647172.935
       211.000         145.000
  21417967.349     2210311.54449   1392092.28647  21417966.810    21417972.103
       243.000         205.000
  23564867.952    -3362009.28549  -2628613.79846  23564867.122    23564873.995
       219.000         163.000
 02  7 10 16  4  0.0000000  0 11G21G18G17G15G 6G30G29G26G10G23G22
  23734082.580    -6272423.03849  -4888026.56045  23734082.487    23734090.450
       220.000         158.000
  21198733.157    -6696412.17149  -5219969.90347  21198732.273    21198737.396
       240.000         202.000
  20937728.874    -3288469.83249  -2573195.34047  20937727.983    20937733.774
       241.000         204.000
  21191716.528    -4587612.48049  -3582712.19647  21191715.840    21191721.766
       236.000         194.000
  20446038.579      -52896.67249   -294289.32047  20446038.462    20446043.392
       246.000         212.000
  24658629.446     6370299.18349   4889519.77945  24658631.455    24658640.317
       214.000         142.000
  22549843.461    -2036084.37249  -1597605.92346  22549844.118    22549848.046
       229.000         178.000
  21827902.459    -3774227.52749  -2948215.96746  21827902.238    21827908.562
       230.000         183.000
  24667153.712     6600592.11749   5112583.99945  24667152.905    24667159.653
       207.000         143.000
  21429062.756     2268618.14349   1437525.96647  21429061.949    21429067.910
       241.000         205.000
  23562979.091    -3371935.79249  -2636348.77745  23562978.669    23562985.893
       220.000         162.000
 02  7 10 16  4 30.0000000  0 11G21G18G17G15G 6G30G29G26G10G23G22
  23718460.787    -6354515.48749  -4951994.64345  23718459.912    23718469.036
       220.000         159.000
  21187420.683    -6755859.34949  -5266292.35647  21187420.054    21187424.522
       241.000         201.000
  20933338.131    -3311543.51349  -2591174.83747  20933337.372    20933343.008
       241.000         204.000
  21184183.417    -4627199.47249  -3613559.19547  21184182.745    21184188.652
       237.000         194.000
  20452201.902      -20508.31849   -269051.66447  20452201.685    20452206.671
       246.000         211.000
  24677708.783     6470559.14649   4967644.21345  24677709.167    24677720.234
       208.000         144.000
  22551370.546    -2028060.00449  -1591353.17546  22551370.421    22551375.417
       230.000         178.000
  21825450.013    -3787115.35149  -2958258.42446  21825449.546    21825455.909
       231.000         183.000
  24687142.891     6705635.86449   5194436.19245  24687141.687    24687150.437
       198.000         140.000
  21440214.491     2327221.15749   1483190.63247  21440213.929    21440219.690
       242.000         204.000
  23561191.094    -3381331.61449  -2643670.22145  23561189.328    23561197.255
       216.000         161.000
 02  7 10 16  5  0.0000000  0 11G21G18G17G15G 6G30G29G26G10G23G22
  23702881.462    -6436385.40149  -5015789.32245  23702880.597    23702888.978
       217.000         158.000
  21176186.530    -6814895.01749  -5312294.15147  21176185.722    21176190.261
       241.000         202.000
  20928975.713    -3334468.23849  -2609038.26547  20928975.002    20928980.826
       241.000         204.000
  21176682.799    -4666615.51449  -3644272.98947  21176682.178    21176688.354
       236.000         194.000
  20458458.497       12370.14049   -243432.11447  20458458.204    20458463.430
       247.000         211.000
  24696769.451     6570722.64549   5045693.45845  24696770.512    24696779.455
       208.000         146.000
  22553000.866    -2019493.45349  -1584677.94146  22553000.543    22553005.987
       230.000         178.000
  21823117.028    -3799375.25149  -2967811.59346  21823117.550    21823122.853
       233.000         184.000
  24707131.369     6810678.61949   5276287.47645  24707129.390    24707139.156
       201.000         135.000
  21451422.223     2386118.06349   1529084.30047  21451421.790    21451427.005
       242.000         204.000
  23559503.909    -3390197.58449  -2650578.81545  23559502.366    23559509.325
       217.000         160.000
 02  7 10 16  5 30.0000000  0 11G21G18G17G15G 6G30G29G26G10G23G22
  23687344.929    -6518029.67749  -5079408.15945  23687343.643    23687351.294
       217.000         155.000
  21165031.244    -6873516.27949  -5357973.02047  21165030.684    21165035.380
       241.000         202.000
  20924642.039    -3357241.79749  -2626783.89847  20924641.412    20924647.043
       241.000         204.000
  21169215.116    -4705858.41449  -3674851.86947  21169214.378    21169220.425
       236.000         194.000
  20464808.737       45740.74549   -217429.07247  20464808.588    20464813.588
       246.000         211.000
  24715811.956     6670789.24649   5123667.22445  24715814.258    24715822.065
       208.000         144.000
  22554734.654    -2010382.58849  -1577578.55646  22554734.212    22554739.555
       228.000         178.000
  21820904.294    -3811004.02249  -2976872.97146  21820904.212    21820909.732
       233.000         185.000
  24727120.136     6915720.53049   5358138.21845  24727119.282    24727128.964
       200.000         134.000
  21462685.913     2445308.72049   1575206.86247  21462685.202    21462690.890
       241.000         203.000
  23557917.994    -3398531.86449  -2657073.09945  23557917.993    23557924.326
       217.000         160.000
 02  7 10 16  6  0.0000000  0 10G21G18G17G15G 6G30G29G26G23G22
  23671851.265    -6599448.23749  -5142851.10345  23671851.268    23671858.412
       219.000         156.000
  21153954.863    -6931723.06349  -5403328.92447  21153954.102    21153958.460
       241.000         202.000
  20920337.050    -3379864.67249  -2644412.12047  20920336.183    20920341.717
       240.000         204.000
  21161780.247    -4744928.52949  -3705296.11747  21161779.435    21161785.475
       236.000         194.000
  20471252.527       79602.83249   -191043.05847  20471252.207    20471257.243
       246.000         211.000
  24734834.931     6770755.79949   5201563.05345  24734831.742    24734845.262
       201.000         140.000
  22556571.918    -2000727.82349  -1570055.35646  22556571.101    22556576.889
       229.000         177.000
  21818811.670    -3822001.40249  -2985442.34446  21818811.781    21818816.898
       235.000         185.000
  21474004.938     2504790.34949   1621556.15647  21474004.136    21474009.781
       241.000         203.000
  23556433.302    -3406335.49449  -2663153.87045  23556431.952    23556439.206
       214.000         158.000
 02  7 10 16  6 30.0000000  0 10G21G18G17G15G 6G30G29G26G23G22
  23656401.092    -6680639.60149  -5206117.02945  23656400.085    23656408.476
       221.000         157.000
  21142957.539    -6989514.33049  -5448361.05547  21142956.846    21142961.396
       240.000         201.000
  20916060.798    -3402336.19049  -2661922.39547  20916060.063    20916065.742
       241.000         204.000
  21154378.368    -4783825.27049  -3735605.25447  21154377.619    21154383.857
       236.000         194.000
  20477789.855      113956.73749   -164273.80247  20477789.631    20477795.033
       247.000         212.000
  24753837.838     6870620.34149   5279379.35145  24753835.976    24753847.338
       199.000         138.000
  22558512.735    -1990528.71849  -1562107.99946  22558512.437    22558516.894
       228.000         176.000
  21816839.579    -3832365.55249  -2993518.29646  21816840.406    21816845.413
       235.000         186.000
  21485378.879     2564561.24849   1668130.85647  21485378.352    21485384.033
       241.000         203.000
  23555049.442    -3413608.14649  -2668820.91845  23555048.949    23555055.584
       214.000         157.000
 02  7 10 16  7  0.0000000  0 10G21G18G17G15G 6G30G29G26G23G22
  23640994.157    -6761604.10849  -5269206.18145  23640994.170    23641002.340
       221.000         160.000
  21132039.122    -7046890.68649  -5493069.87347  21132038.224    21132043.129
       240.000         201.000
  20911813.146    -3424657.82649  -2679315.87847  20911812.693    20911818.019
       241.000         204.000
  21147009.264    -4822550.05049  -3765780.39247  21147008.481    21147014.230
       237.000         194.000
  20484420.462      148800.69549   -137122.70447  20484420.321    20484425.339
       247.000         212.000
  24772820.923     6970378.76249   5357112.93345  24772821.652    24772831.317
       211.000         137.000
  22560556.652    -1979786.75349  -1553737.64146  22560556.002    22560561.570
       226.000         176.000
  21814987.719    -3842097.28249  -3001101.46146  21814987.329    21814993.225
       233.000         186.000
  21496807.287     2624617.62449   1714928.00547  21496806.950    21496812.703
       241.000         203.000
  23553766.192    -3420352.09749  -2674075.98445  23553764.158    23553772.105
       211.000         155.000
 02  7 10 16  7 30.0000000  0 10G21G18G17G15G 6G30G29G26G23G22
  23625630.844    -6842339.25949  -5332116.61645  23625630.017    23625639.046
       220.000         161.000
  21121199.927    -7103850.49249  -5537454.11247  21121199.258    21121204.075
       241.000         202.000
  20907594.208    -3446828.42249  -2696591.67147  20907593.414    20907599.363
       241.000         204.000
  21139673.191    -4861101.65249  -3795820.59847  21139673.099    21139678.291
       238.000         194.000
  20491144.429      184135.29749   -109589.28747  20491144.336    20491149.318
       247.000         212.000
  24791784.561     7070029.41049   5434762.60545  24791787.423    24791795.214
       213.000         140.000
  22562704.215    -1968500.95249  -1544943.50746  22562704.255    22562709.888
       228.000         176.000
  21813256.401    -3851194.60549  -3008190.29346  21813255.847    21813262.031
       234.000         184.000
  21508289.846     2684958.38149   1761946.74947  21508289.541    21508295.206
       241.000         203.000
  23552583.285    -3426566.72649  -2678918.56145  23552581.357    23552590.481
       208.000         153.000
 02  7 10 16  8  0.0000000  0 10G21G18G17G15G 6G30G29G26G23G22
  23610310.680    -6922847.14649  -5394849.97145  23610309.303    23610317.373
       218.000         160.000
  21110439.753    -7160395.66249  -5581515.25847  21110439.107    21110443.748
       240.000         202.000
  20903403.634    -3468850.33449  -2713751.59947  20903403.035    20903408.920
       240.000         204.000
  21132369.696    -4899482.45749  -3825727.71647  21132368.656    21132374.648
       238.000         195.000
  20497961.372      219958.10249    -81675.43047  20497960.987    20497966.334
       247.000         211.000
  24810726.662     7169567.47749   5512324.49645  24810729.240    24810737.559
       212.000         143.000
  22564954.973    -1956673.68449  -1535727.45246  22564954.587    22564959.701
       227.000         176.000
  21811645.637    -3859659.03249  -3014785.95646  21811645.362    21811651.476
       232.000         184.000
  21519825.539     2745578.73649   1809183.36347  21519824.835    21519830.772
       241.000         202.000
  23551500.793    -3432254.69949  -2683350.79445  23551500.845    23551506.814
       209.000         151.000
 02  7 10 16  8 30.0000000  0 10G21G18G17G15G 6G30G29G26G23G22
  23595034.300    -7003124.31749  -5457403.53445  23595032.689    23595041.666
       218.000         158.000
  21099758.972    -7216523.13849  -5625250.92147  21099758.281    21099763.410
       241.000         203.000
  20899241.786    -3490721.04349  -2730793.71147  20899241.106    20899246.993
       239.000         204.000
  21125099.065    -4937690.02249  -3855499.84547  21125098.059    21125104.454
       238.000         195.000
  20504871.548      256271.31349    -53379.45647  20504871.143    20504876.708
       246.000         211.000
  24829647.131     7268992.88149   5589798.60645  24829647.822    24829657.319
       210.000         139.000
  22567309.024    -1944302.74449  -1526087.76746  22567308.378    22567313.651
       227.000         176.000
  21810155.935    -3867487.50849  -3020886.07046  21810155.693    21810161.692
       233.000         184.000
  21531414.445     2806478.75749   1856637.90447  21531414.212    21531419.545
       242.000         202.000
  23550519.072    -3437414.43149  -2687371.35645  23550518.096    23550525.596
       206.000         150.000
 02  7 10 16  9  0.0000000  0  9G21G18G17G15G 6G29G26G23G22
  23579802.738    -7083165.85249  -5519773.50545  23579801.223    23579809.475
       217.000         158.000
  21089158.665    -7272228.25849  -5668657.47847  21089158.399    21089162.824
       241.000         203.000
  20895109.427    -3512436.44849  -2747714.80447  20895108.617    20895114.896
       240.000         204.000
  21117862.076    -4975720.22449  -3885133.76147  21117861.399    21117867.864
       238.000         196.000
  20511875.737      293078.64249    -24698.45347  20511875.464    20511880.549
       245.000         211.000
  22569767.171    -1931384.36949  -1516021.49746  22569767.245    22569772.905
       227.000         177.000
  21808788.173    -3874675.05049  -3026486.74346  21808788.430    21808793.397
       233.000         184.000
  21543056.985     2867660.36549   1904311.85647  21543056.622    21543061.926
       241.000         202.000
  23549638.509    -3442042.33549  -2690977.54045  23549637.905    23549643.222
       207.000         149.000
 02  7 10 16  9 30.0000000  0  9G21G18G17G15G 6G29G26G23G22
  23564615.831    -7162972.61649  -5581960.48645  23564616.166    23564623.754
       220.000         158.000
  21078638.428    -7327512.26849  -5711735.89447  21078637.483    21078642.209
       240.000         203.000
  20891006.345    -3533998.14349  -2764516.12247  20891005.718    20891011.763
       241.000         204.000
  21110658.564    -5013574.53049  -3914630.61347  21110658.046    21110664.093
       238.000         197.000
  20518973.598      330378.02849      4365.97747  20518973.500    20518978.596
       244.000         210.000
  22572329.473    -1917920.22549  -1505529.97346  22572329.182    22572334.994
       229.000         177.000
  21807542.356    -3881222.69649  -3031588.81246  21807543.422    21807547.186
       235.000         184.000
  21554752.331     2929119.43449   1952202.01347  21554751.886    21554757.408
       241.000         203.000
  23548858.508    -3446140.83349  -2694171.19245  23548856.766    23548865.249
       206.000         148.000
 02  7 10 16 10  0.0000000  0  9G21G18G17G15G 6G29G26G23G22
  23549472.915    -7242549.15149  -5643968.10445  23549473.169    23549479.282
       221.000         158.000
  21068197.342    -7382380.13349  -5754490.04247  21068196.701    21068201.612
       241.000         203.000
  20886931.600    -3555411.29849  -2781201.69747  20886931.148    20886936.693
       240.000         204.000
  21103487.600    -5051258.27249  -3943994.55747  21103486.980    21103492.922
       239.000         197.000
  20526164.069      368163.90149     33809.48447  20526164.052    20526169.015
       246.000         211.000
  22574994.422    -1903915.78649  -1494617.42046  22574994.097    22574999.353
       226.000         176.000
  21806417.468    -3887134.92949  -3036195.74446  21806417.551    21806422.944
       234.000         185.000
  21566499.013     2990848.31049   2000302.41647  21566498.414    21566504.170
       241.000         202.000
  23548178.038    -3449715.82449  -2696956.94545  23548178.425    23548184.492
       211.000         148.000
 02  7 10 16 10 30.0000000  0  9G21G18G17G15G 6G29G26G23G22
  23534374.430    -7321892.33749  -5705793.89245  23534373.702    23534382.556
       221.000         158.000
  21057836.020    -7436829.12249  -5796917.79547  21057835.364    21057840.100
       241.000         203.000
  20882885.515    -3576673.72649  -2797769.82347  20882885.000    20882890.626
       241.000         205.000
  21096349.659    -5088769.32049  -3973223.94047  21096348.862    21096354.315
       239.000         197.000
  20533447.414      406437.73249     63633.21947  20533447.360    20533452.469
       245.000         211.000
  22577762.351    -1889369.41849  -1483282.61746  22577761.481    22577767.333
       225.000         176.000
  21805413.707    -3892409.10749  -3040305.48146  21805413.157    21805418.841
       232.000         184.000
  21578296.893     3052846.65349   2048612.78847  21578296.236    21578302.047
       241.000         202.000
  23547597.718    -3452765.90749  -2699333.64645  23547595.239    23547605.433
       209.000         149.000
 02  7 10 16 11  0.0000000  0  9G21G18G17G15G 6G29G26G23G22
  23519320.320    -7401001.48449  -5767437.33545  23519319.534    23519328.290
       223.000         160.000
  21047554.452    -7490858.91549  -5839018.89947  21047553.982    21047558.667
       241.000         203.000
  20878868.162    -3597785.39149  -2814220.47247  20878867.571    20878872.804
       241.000         205.000
  21089244.541    -5126107.65849  -4002318.74147  21089244.110    21089249.431
       240.000         197.000
  20540823.475      445199.14449     93836.89447  20540823.214    20540828.590
       245.000         211.000
  22580633.326    -1874281.30049  -1471525.64546  22580632.503    22580639.793
       225.000         176.000
  21804531.498    -3897044.51949  -3043917.47946  21804531.017    21804537.233
       233.000         184.000
  21590145.651     3115112.24749   2097131.40847  21590145.024    21590150.840
       241.000         202.000
  23547117.161    -3455291.75149  -2701301.87445  23547116.231    23547123.412
       212.000         150.000
 02  7 10 16 11 30.0000000  0  9G21G18G17G15G 6G29G26G23G22
  23504311.278    -7479874.84349  -5828897.04845  23504310.185    23504318.811
       223.000         162.000
  21037353.015    -7544467.73849  -5880791.98747  21037352.524    21037357.309
       241.000         203.000
  20874879.598    -3618745.33849  -2830552.90247  20874878.952    20874884.133
       241.000         204.000
  21082172.415    -5163271.94249  -4031277.91447  21082171.496    21082177.687
       239.000         198.000
  20548292.444      484448.74349    124420.96947  20548292.183    20548297.680
       245.000         211.000
  22583607.594    -1858650.51149  -1459345.82846  22583607.224    22583613.891
       225.000         176.000
  21803771.255    -3901039.51449  -3047030.46446  21803771.523    21803777.098
       233.000         184.000
  21602045.100     3177644.09549   2145857.48747  21602044.596    21602050.326
       242.000         203.000
  23546736.384    -3457293.06349  -2702861.38845  23546737.953    23546743.391
       218.000         152.000
 02  7 10 16 12  0.0000000  0  9G21G18G17G15G 6G29G26G23G22
  23489346.877    -7558513.32849  -5890173.72146  23489347.063    23489354.096
       223.000         163.000
  21027231.465    -7597656.87649  -5922238.03047  21027230.721    21027235.872
       241.000         204.000
  20870919.680    -3639554.64049  -2846767.94347  20870918.814    20870924.724
       241.000         204.000
  21075133.025    -5200263.61149  -4060102.57847  21075132.160    21075138.236
       239.000         198.000
  20555853.958      524184.60449    155383.95147  20555853.639    20555858.736
       244.000         210.000
  22586684.851    -1842479.02449  -1446744.67946  22586684.534    22586691.152
       224.000         175.000
  21803132.672    -3904395.26349  -3049645.33146  21803132.426    21803138.616
       233.000         185.000
  21613994.416     3240438.04349   2194787.81247  21613993.903    21613999.548
       241.000         202.000
  23546454.975    -3458772.23749  -2704014.01945  23546453.869    23546461.804
       218.000         153.000
 02  7 10 16 12 30.0000000  0  9G21G18G17G15G 6G29G26G23G22
  23474427.343    -7636915.74849  -5951266.44045  23474426.003    23474434.398
       222.000         161.000
  21017189.971    -7650425.31949  -5963356.27347  21017189.532    21017193.918
       243.000         205.000
  20866988.526    -3660212.75149  -2862865.17747  20866987.875    20866993.977
       241.000         204.000
  21068126.666    -5237082.04349  -4088792.25347  21068125.890    21068131.487
       239.000         198.000
  20563507.972      564407.05149    186726.09347  20563507.850    20563513.082
       245.000         209.000
  22589865.080    -1825766.62749  -1433722.04046  22589864.882    22589871.786
       225.000         176.000
  21802615.999    -3907110.28549  -3051760.92746  21802616.243    21802622.139
       234.000         185.000
  21625993.260     3303492.53549   2243921.15847  21625992.887    21625998.842
       242.000         202.000
  23546273.040    -3459729.13349  -2704759.68745  23546271.326    23546280.489
       216.000         154.000
 02  7 10 16 13  0.0000000  0  9G21G18G17G15G 6G29G26G23G22
  23459553.220    -7715078.70449  -6012172.55845  23459551.111    23459560.476
       219.000         158.000
  21007229.117    -7702770.32349  -6004144.56347  21007228.388    21007233.104
       241.000         204.000
  20863086.578    -3680717.19749  -2878842.66447  20863086.106    20863091.923
       241.000         204.000
  21061153.746    -5273725.06049  -4117345.24847  21061153.137    21061158.868
       240.000         198.000
  20571255.061      605117.76649    218448.69747  20571254.727    20571260.201
       245.000         210.000
  22593148.679    -1808511.18849  -1420276.26046  22593148.629    22593155.007
       227.000         176.000
  21802221.961    -3909181.91149  -3053375.18646  21802222.196    21802227.831
       234.000         185.000
  21638041.649     3366807.36849   2293257.37047  21638041.006    21638047.036
       240.000         202.000
  23546190.453    -3460162.54549  -2705097.48045  23546190.202    23546196.561
       221.000         154.000
 02  7 10 16 13 30.0000000  0  9G21G18G17G15G 6G29G26G23G22
  23444724.591    -7793002.40049  -6072892.24945  23444725.145    23444730.627
       220.000         156.000
  20997348.682    -7754692.30949  -6044603.22247  20997348.098    20997353.052
       242.000         205.000
  20859213.798    -3701068.86649  -2894701.10747  20859213.447    20859219.196
       241.000         204.000
  21054214.253    -5310193.12149  -4145761.91747  21054213.571    21054219.652
       240.000         199.000
  20579094.741      646315.45149    250550.75147  20579094.779    20579099.403
       245.000         210.000
  22596535.343    -1790714.17349  -1406408.45946  22596535.114    22596541.019
       225.000         177.000
  21801950.107    -3910610.58049  -3054488.42146  21801950.224    21801955.753
       234.000         185.000
  21650139.087     3430379.42849   2342794.01147  21650138.891    21650144.443
       242.000         202.000
  23546207.483    -3460074.04149  -2705028.55145  23546206.331    23546215.139
       220.000         154.000
 02  7 10 16 14  0.0000000  0  9G21G18G17G15G 6G29G26G23G22
  23429941.870    -7870685.88749  -6133424.79845  23429941.059    23429948.790
       222.000         158.000
  20987548.915    -7806190.37349  -6084731.55347  20987548.423    20987552.734
       241.000         205.000
  20855370.227    -3721267.13449  -2910440.01347  20855369.748    20855375.443
       240.000         204.000
  21047307.990    -5346485.75449  -4174041.87747  21047306.803    21047313.042
       239.000         199.000
  20587027.128      688000.01549    283032.20547  20587026.988    20587031.939
       245.000         210.000
  22600025.170    -1772375.31749  -1392118.44046  22600025.058    22600030.611
       226.000         176.000
  21801800.692    -3911395.35749  -3055099.92846  21801800.568    21801805.763
       234.000         185.000
  21662285.216     3494207.04649   2392529.78847  21662284.562    21662290.127
       241.000         202.000
  23546323.772    -3459463.92749  -2704553.19245  23546321.691    23546329.121
       221.000         154.000
 02  7 10 16 14 30.0000000  0  9G21G18G17G15G 6G29G26G23G22
  23415204.895    -7948129.45649  -6193770.39045  23415205.361    23415213.005
       224.000         162.000
  20977829.601    -7857265.54349  -6124530.36747  20977829.031    20977833.392
       241.000         204.000
  20851555.632    -3741312.99549  -2926060.16747  20851555.219    20851560.513
       240.000         204.000
  21040434.823    -5382603.72049  -4202185.73147  21040433.821    21040439.881
       240.000         200.000
  20595051.825      730169.86049    315891.78847  20595051.443    20595056.781
       243.000         209.000
  22603617.898    -1753496.22149  -1377407.47446  22603617.501    22603623.622
       226.000         176.000
  21801773.751    -3911536.98749  -3055210.28046  21801773.496    21801779.138
       233.000         184.000
  21674479.169     3558286.70549   2442461.96347  21674478.591    21674484.298
       241.000         201.000
  23546538.765    -3458334.23649  -2703672.96945  23546537.811    23546545.123
       221.000         154.000
 02  7 10 16 15  0.0000000  0  9G21G18G17G15G 6G29G26G23G22
  23400514.193    -8025330.23249  -6253926.76146  23400513.791    23400521.858
       223.000         163.000
  20968191.332    -7907915.05149  -6163997.48447  20968190.913    20968195.359
       242.000         205.000
  20847770.582    -3761204.09349  -2941559.72147  20847770.009    20847775.372
       241.000         203.000
  21033595.382    -5418544.93549  -4230191.87647  21033594.745    21033599.826
       240.000         200.000
  20603168.996      772826.35949    349130.59247  20603168.833    20603174.146
       244.000         209.000
  22607313.552    -1734075.36549  -1362274.34146  22607312.803    22607319.068
       227.000         176.000
  21801869.598    -3911033.01249  -3054817.57746  21801869.250    21801874.950
       232.000         184.000
  21686720.952     3622618.09149   2492590.28647  21686720.346    21686726.349
       241.000         201.000
  23546852.845    -3456683.76249  -2702386.95245  23546851.664    23546858.263
       220.000         155.000
 02  7 10 16 15 30.0000000  0  9G21G18G17G15G 6G29G26G23G22
  23385869.439    -8102288.63949  -6313894.26746  23385868.390    23385877.251
       221.000         163.000
  20958633.912    -7958139.81149  -6203133.62947  20958633.350    20958638.075
       242.000         205.000
  20844014.794    -3780941.40249  -2956939.44547  20844014.299    20844019.711
       240.000         204.000
  21026789.583    -5454310.30249  -4258060.99347  21026788.947    21026794.829
       241.000         200.000
  20611378.673      815968.03749    382747.46847  20611378.619    20611383.773
       244.000         209.000
  22611112.210    -1714114.02949  -1346720.08146  22611112.313    22611119.206
       227.000         177.000
  21802088.070    -3909883.91849  -3053922.18046  21802088.069    21802093.441
       231.000         183.000
  21699010.103     3687198.08449   2542912.33747  21699009.558    21699015.769
       242.000         201.000
  23547265.538    -3454514.46449  -2700696.63045  23547265.707    23547271.270
       221.000         154.000
 02  7 10 16 16  0.0000000  0  9G21G18G17G15G 6G29G26G23G22
  23371271.155    -8179002.54149  -6373671.27245  23371268.737    23371278.649
       220.000         161.000
  20949157.506    -8007938.44649  -6241937.73247  20949156.731    20949161.456
       241.000         205.000
  20840288.472    -3800523.65549  -2972198.34347  20840287.789    20840293.419
       241.000         204.000
  21020017.356    -5489898.65049  -4285792.16147  21020016.695    21020022.808
       240.000         200.000
  20619680.681      859595.25049    416742.67447  20619680.442    20619685.784
       244.000         209.000
  22615013.851    -1693611.64549  -1330744.21046  22615013.992    22615018.523
       227.000         176.000
  21802429.563    -3908088.44149  -3052523.11246  21802428.273    21802435.672
       231.000         184.000
  21711346.326     3752025.35649   2593427.06947  21711345.628    21711351.309
       240.000         201.000
  23547777.192    -3451826.17349  -2698601.91845  23547776.853    23547784.269
       220.000         155.000
 02  7 10 16 16 30.0000000  0  9G21G18G17G15G 6G29G26G23G22
  23356719.248    -8255472.89049  -6433258.47845  23356718.700    23356725.145
       222.000         160.000
  20939762.029    -8057312.17149  -6280410.73847  20939761.715    20939766.144
       243.000         206.000
  20836591.306    -3819952.18149  -2987337.45347  20836590.838    20836596.206
       241.000         204.000
  21013278.430    -5525311.35349  -4313386.46847  21013277.361    21013283.607
       239.000         200.000
  20628074.708      903705.97149    451114.64247  20628074.301    20628079.693
       245.000         209.000
  22619017.840    -1672570.46449  -1314348.51246  22619017.510    22619022.833
       226.000         175.000
  21802893.900    -3905647.71249  -3050621.24046  21802893.731    21802899.858
       231.000         184.000
  21723728.886     3817096.09849   2644131.51447  21723728.226    21723734.123
       241.000         201.000
  23548387.150    -3448621.37049  -2696104.72845  23548385.732    23548393.911
       219.000         155.000
 02  7 10 16 17  0.0000000  0  9G21G18G17G15G 6G29G26G23G22
  23342214.125    -8331697.40849  -6492654.15345  23342213.152    23342219.715
       222.000         160.000
  20930447.730    -8106259.22049  -6318551.27547  20930447.253    20930451.484
       242.000         206.000
  20832923.722    -3839225.53949  -3002355.65547  20832923.087    20832928.607
       241.000         205.000
  21006573.268    -5560546.84649  -4340842.69347  21006572.532    21006578.067
       240.000         200.000
  20636560.889      948300.90449    485863.90747  20636560.676    20636565.685
       245.000         209.000
  22623124.597    -1650989.32849  -1297532.05346  22623124.727    22623130.948
       226.000         176.000
  21803481.479    -3902560.15149  -3048215.35846  21803482.073    21803487.273
       232.000         184.000
  21736157.644     3882409.53049   2695025.06047  21736157.261    21736162.768
       240.000         201.000
  23549095.221    -3444899.65349  -2693204.73845  23549095.041    23549102.069
       216.000         155.000
 02  7 10 16 17 30.0000000  0  9G21G18G17G15G 6G29G26G23G22
  23327755.653    -8407676.83549  -6551858.83245  23327754.911    23327763.091
       224.000         162.000
  20921214.456    -8154780.27149  -6356359.86347  20921214.005    20921218.276
       242.000         206.000
  20829285.513    -3858344.62149  -3017253.64547  20829284.686    20829290.494
       241.000         205.000
  20999901.793    -5595606.18149  -4368161.65647  20999901.131    20999906.512
       241.000         199.000
  20645138.834      993378.26149    520989.08047  20645138.728    20645143.922
       244.000         209.000
  22627333.715    -1628870.16849  -1280296.36946  22627333.753    22627339.112
       227.000         175.000
  21804192.029    -3898826.61449  -3045306.11146  21804191.712    21804198.609
       231.000         185.000
  21748631.965     3947962.18049   2746105.02247  21748631.716    21748636.855
       240.000         201.000
  23549901.266    -3440663.14749  -2689903.61945  23549900.433    23549908.338
       214.000         155.000
 02  7 10 16 18  0.0000000  0  9G21G18G17G15G 6G29G26G23G22
  23313344.252    -8483409.96549  -6610871.58746  23313343.798    23313352.343
       225.000         165.000
  20912062.412    -8202874.56549  -6393835.91347  20912061.851    20912066.432
       242.000         206.000
  20825676.786    -3877308.32849  -3032030.56447  20825675.815    20825681.742
       241.000         205.000
  20993263.964    -5630488.30849  -4395342.52847  20993263.066    20993269.097
       240.000         200.000
  20653808.535     1038938.19949    556490.29447  20653808.066    20653813.570
       243.000         208.000
  22631645.543    -1606212.47049  -1262641.01546  22631645.518    22631651.091
       228.000         176.000
  21805025.623    -3894446.06749  -3041892.70046  21805025.885    21805031.963
       232.000         185.000
  21761151.459     4013752.55149   2797370.22147  21761151.169    21761156.867
       241.000         201.000
  23550805.421    -3435912.00349  -2686201.45345  23550804.068    23550812.074
       213.000         153.000
 02  7 10 16 18 30.0000000  0  9G21G18G17G15G 6G29G26G23G22
  23298979.713    -8558896.52749  -6669692.20646  23298979.452    23298987.222
       224.000         167.000
  20902991.513    -8250542.23549  -6430979.52547  20902990.911    20902995.463
       242.000         206.000
  20822097.507    -3896117.13349  -3046686.77247  20822096.592    20822102.795
       240.000         205.000
  20986659.671    -5665193.53049  -4422385.54947  20986658.908    20986665.046
       241.000         201.000
  20662569.888     1084979.44449    592366.55547  20662569.711    20662575.038
       244.000         207.000
  22636059.554    -1583017.67549  -1244567.16046  22636059.302    22636064.629
       227.000         175.000
  21805982.294    -3889418.84149  -3037975.38646  21805982.283    21805988.119
       231.000         184.000
  21773715.768     4079777.85949   2848818.48547  21773715.410    21773721.437
       241.000         201.000
  23551807.185    -3430647.69549  -2682099.43945  23551805.674    23551813.889
       210.000         153.000
 02  7 10 16 19  0.0000000  0  9G21G18G17G15G 6G29G26G23G22
  23284662.331    -8634134.98049  -6728319.50146  23284662.054    23284669.424
       223.000         166.000
  20894001.964    -8297782.51549  -6467790.11047  20894001.634    20894005.773
       242.000         206.000
  20818547.860    -3914770.32749  -3061221.73047  20818547.170    20818553.012
       241.000         205.000
  20980089.271    -5699721.16749  -4449290.19447  20980088.657    20980094.619
       241.000         201.000
  20671422.874     1131501.91549    628617.80047  20671422.642    20671427.901
       243.000         208.000
  22640575.539    -1559285.79249  -1226074.79146  22640575.076    22640580.653
       226.000         174.000
  21807062.122    -3883744.45149  -3033553.78246  21807061.835    21807067.842
       231.000         184.000
  21786324.409     4146036.29349   2900448.41047  21786324.112    21786329.817
       241.000         201.000
  23552906.473    -3424870.86949  -2677598.05245  23552905.283    23552912.571
       210.000         152.000
 02  7 10 16 19 30.0000000  0  9G21G18G17G15G 6G29G26G23G22
  23270391.901    -8709125.86649  -6786753.88646  23270390.704    23270399.656
       222.000         165.000
  20885093.609    -8344596.12949  -6504268.22447  20885092.911    20885097.588
       242.000         206.000
  20815027.743    -3933268.49149  -3075635.88547  20815027.037    20815033.142
       240.000         205.000
  20973552.656    -5734071.97649  -4476057.05747  20973551.892    20973557.672
       241.000         201.000
  20680367.123     1178504.06749    665242.82347  20680367.130    20680372.452
       244.000         209.000
  22645193.447    -1535018.24149  -1207165.01546  22645193.139    22645198.297
       226.000         174.000
  21808264.935    -3877423.45649  -3028628.34546  21808264.842    21808271.326
       231.000         184.000
  21798976.714     4212524.56549   2952257.42847  21798976.163    21798981.657
       241.000         200.000
  23554102.865    -3418583.64849  -2672698.92745  23554100.825    23554108.952
       208.000         150.000
 02  7 10 16 20  0.0000000  0  9G21G18G17G15G 6G29G26G23G22
  23256169.173    -8783866.39549  -6844993.21446  23256168.490    23256176.582
       223.000         163.000
  20876266.898    -8390980.65049  -6540411.98347  20876266.631    20876270.667
       242.000         207.000
  20811537.512    -3951609.49149  -3089927.57347  20811536.973    20811542.711
       240.000         205.000
  20967050.042    -5768243.62649  -4502684.31547  20967049.274    20967054.925
       240.000         201.000
  20689402.924     1225987.26349    702242.68247  20689402.814    20689408.030
       244.000         209.000
  22649913.558    -1510213.81849  -1187836.90746  22649912.322    22649918.556
       225.000         173.000
  21809591.256    -3870453.81849  -3023197.45646  21809591.394    21809597.433
       232.000         184.000
  21811672.708     4279242.59949   3004245.48047  21811672.014    21811677.783
       239.000         200.000
  23555396.541    -3411784.83849  -2667401.18645  23555395.749    23555404.220
       207.000         149.000
 02  7 10 16 20 30.0000000  0  9G21G18G17G15G 6G29G26G23G22
  23241994.234    -8858355.69249  -6903036.74446  23241993.223    23242001.139
       225.000         165.000
  20867521.913    -8436935.68449  -6576221.07447  20867521.176    20867525.862
       241.000         206.000
  20808077.399    -3969792.60149  -3104096.23147  20808076.858    20808082.593
       240.000         205.000
  20960581.522    -5802235.52949  -4529171.50147  20960580.502    20960586.552
       240.000         201.000
  20698530.205     1273951.10249    739617.07247  20698530.146    20698535.257
       244.000         208.000
  22654735.762    -1484872.82949  -1168090.69846  22654734.993    22654740.644
       225.000         173.000
  21811040.988    -3862835.09949  -3017260.79846  21811040.591    21811046.005
       231.000         184.000
  21824412.049     4346188.55449   3056411.13147  21824411.574    21824416.995
       239.000         199.000
  23556787.560    -3404475.30349  -2661705.47945  23556786.696    23556794.380
       210.000         149.000
 02  7 10 16 21  0.0000000  0  9G21G18G17G15G 6G29G26G23G22
  23227867.176    -8932594.22849  -6960884.88046  23227867.032    23227875.037
       225.000         168.000
  20858858.479    -8482462.19349  -6611696.25447  20858858.133    20858862.431
       242.000         206.000
  20804647.188    -3987818.52149  -3118142.40047  20804646.483    20804652.200
       240.000         204.000
  20954147.010    -5836048.52849  -4555519.27947  20954146.326    20954152.311
       239.000         200.000
  20707748.570     1322393.69849    777364.51247  20707748.434    20707753.778
       243.000         208.000
  22659659.690    -1458996.78149  -1147927.55446  22659658.905    22659664.508
       225.000         174.000
  21812614.010    -3854568.23949  -3010819.09346  21812614.231    21812620.143
       232.000         184.000
  21837194.160     4413359.02949   3108751.73547  21837193.645    21837199.711
       239.000         199.000
  23558275.485    -3396657.08549  -2655613.36945  23558274.866    23558282.392
       211.000         151.000
 02  7 10 16 21 30.0000000  0  9G21G18G17G15G 6G29G26G23G22
  23213787.955    -9006581.13549  -7018536.94446  23213788.089    23213795.101
       225.000         170.000
  20850276.782    -8527559.49549  -6646836.98447  20850276.064    20850280.719
       241.000         207.000
  20801246.930    -4005687.02549  -3132065.91147  20801246.387    20801252.211
       240.000         204.000
  20947746.759    -5869682.27649  -4581727.39147  20947746.207    20947752.134
       240.000         201.000
  20717057.870     1371314.50449    815484.58247  20717057.709    20717063.164
       243.000         207.000
  22664685.406    -1432586.22949  -1127347.92046  22664685.495    22664689.824
       226.000         174.000
  21814310.608    -3845653.01249  -3003872.16046  21814311.386    21814316.947
       232.000         186.000
  21850018.672     4480752.07149   3161265.76847  21850018.257    21850024.537
       240.000         199.000
  23559859.921    -3388331.07349  -2649125.60245  23559859.509    23559867.243
       213.000         152.000
 02  7 10 16 22  0.0000000  0  9G21G18G17G15G 6G29G26G23G22
  23199756.851    -9080315.28049  -7075992.06246  23199755.853    23199764.490
       226.000         169.000
  20841776.755    -8572227.23049  -6681642.98847  20841776.019    20841780.581
       242.000         206.000
  20797876.693    -4023397.59649  -3145866.35447  20797876.180    20797881.997
       240.000         205.000
  20941380.872    -5903136.14149  -4607795.34147  20941380.294    20941385.921
       241.000         201.000
  20726458.090     1420712.85449    853976.77147  20726457.942    20726463.177
       244.000         207.000
  22669812.813    -1405641.63749  -1106352.15246  22669812.905    22669818.992
       228.000         175.000
  21816130.591    -3836089.26449  -2996419.88946  21816130.467    21816136.191
       232.000         185.000
  21862885.173     4548365.83249   3213951.78847  21862884.630    21862891.170
       239.000         199.000
  23561540.854    -3379498.31149  -2642242.97745  23561540.085    23561547.002
       214.000         154.000
 02  7 10 16 22 30.0000000  0 10G21G 2G18G17G15G 6G29G26G23G22
  23185772.840    -9153801.49449  -7133253.99646  23185771.285    23185779.486
       226.000         168.000
  25159463.401     3670502.50049   2742585.47644  25159463.026    25159470.388
       201.000         125.000
  20833357.535    -8616470.52149  -6716118.25447  20833357.037    20833361.505
       242.000         207.000
  20794535.669    -4040954.86549  -3159547.34547  20794534.993    20794540.684
       241.000         205.000
  20935048.124    -5936415.12849  -4633727.01247  20935046.909    20935053.117
       240.000         200.000
  20735948.085     1470582.90449    892836.51547  20735947.812    20735953.389
       243.000         207.000
  22675040.678    -1378169.05049  -1084944.95446  22675040.746    22675045.946
       228.000         175.000
  21818072.916    -3825882.06849  -2988466.22546  21818073.482    21818078.398
       232.000         185.000
  21875792.233     4616192.88549   3266804.01247  21875791.655    21875798.224
       239.000         199.000
  23563317.073    -3370165.07949  -2634970.34645  23563317.105    23563324.483
       217.000         156.000
 02  7 10 16 23  0.0000000  0 10G21G 2G18G17G15G 6G29G26G23G22
  23171837.206    -9227033.17749  -7190317.60946  23171836.421    23171844.052
       223.000         166.000
  25152285.092     3632781.93548   2713192.80444  25152283.896    25152293.772
       194.000         124.000
  20825020.266    -8660283.14149  -6750257.93747  20825019.689    20825024.000
       242.000         207.000
  20791224.966    -4058352.62249  -3173104.04347  20791224.505    20791229.803
       241.000         205.000
  20928749.691    -5969512.92249  -4659517.48247  20928748.689    20928754.647
       240.000         200.000
  20745528.843     1520930.00449    932067.97947  20745528.879    20745534.242
       244.000         208.000
  22680370.062    -1350163.16349  -1063122.20746  22680370.726    22680377.093
       228.000         176.000
  21820138.923    -3815025.52849  -2980006.58946  21820139.142    21820144.520
       232.000         185.000
  21888740.647     4684237.04649   3319825.41047  21888740.380    21888746.185
       238.000         198.000
  23565189.535    -3360326.49049  -2627303.96345  23565189.579    23565195.887
       219.000         157.000
 02  7 10 16 23 30.0000000  0 10G21G 2G18G17G15G 6G29G26G23G22
  23157950.217    -9300008.65449  -7247181.55146  23157949.495    23157957.062
       224.000         165.000
  25145186.370     3595477.96049   2684124.68244  25145185.950    25145191.610
       199.000         121.000
  20816765.189    -8703663.77549  -6784061.01047  20816764.634    20816769.083
       242.000         207.000
  20787945.023    -4075589.29949  -3186535.22947  20787944.805    20787950.038
       241.000         205.000
  20922486.144    -6002427.96549  -4685165.56147  20922485.844    20922491.543
       241.000         201.000
  20755200.451     1571754.52449    971671.46347  20755200.124    20755205.690
       243.000         208.000
  22685800.977    -1321623.33349  -1040883.39546  22685800.987    22685807.269
       227.000         176.000
  21822328.617    -3803518.45449  -2971040.03846  21822328.107    21822334.714
       231.000         184.000
  21901730.240     4752497.28949   3373015.17847  21901729.908    21901735.541
       239.000         198.000
  23567157.992    -3349982.47349  -2619243.72845  23567156.997    23567164.479
       219.000         158.000
 02  7 10 16 24  0.0000000  0 10G21G 2G18G17G15G 6G29G26G23G22
  23144111.950    -9372728.47149  -7303846.24646  23144110.506    23144117.901
       224.000         165.000
  25138167.337     3558590.00349   2655380.82944  25138167.029    25138174.804
       199.000         125.000
  20808592.047    -8746613.74949  -6817528.49347  20808591.572    20808595.958
       242.000         207.000
  20784695.502    -4092665.96249  -3199841.71747  20784695.085    20784700.522
       241.000         205.000
  20916257.162    -6035161.54149  -4710672.23047  20916256.277    20916262.165
       241.000         201.000
  20764962.470     1623054.19249   1011645.20647  20764962.086    20764967.789
       242.000         207.000
  22691333.058    -1292551.73949  -1018230.23046  22691332.757    22691339.046
       227.000         176.000
  21824641.745    -3791362.39849  -2961567.78746  21824641.725    21824647.207
       231.000         183.000
  21914760.215     4820969.91449   3426370.44147  21914759.698    21914765.379
       239.000         197.000
  23569222.017    -3339135.73349  -2610791.76945  23569221.278    23569229.138
       221.000         158.000
 02  7 10 16 24 30.0000000  0 10G21G 2G18G17G15G 6G29G26G23G22
  23130322.524    -9445191.99849  -7360311.25546  23130322.241    23130329.407
       226.000         166.000
  25131226.840     3522118.57849   2626961.47644  25131228.063    25131236.421
       200.000         126.000
  20800500.974    -8789132.75749  -6850660.17447  20800500.413    20800504.691
       242.000         208.000
  20781476.478    -4109582.41349  -3213023.37347  20781476.183    20781481.342
       241.000         205.000
  20910062.804    -6067713.36649  -4736037.27947  20910062.145    20910068.088
       240.000         201.000
  20774814.662     1674828.01349   1051988.41147  20774814.465    20774819.826
       243.000         207.000
  22696966.201    -1262949.35749   -995163.46346  22696965.828    22696972.472
       228.000         176.000
  21827078.475    -3778557.44049  -2951589.91946  21827078.528    21827084.335
       230.000         184.000
  21927830.171     4889652.87249   3479889.60547  21927829.749    21927835.587
       238.000         197.000
  23571381.608    -3327787.58049  -2601949.12045  23571380.953    23571388.573
       220.000         158.000
 02  7 10 16 25  0.0000000  0 10G21G 2G18G17G15G 6G29G26G23G22
  23116582.036    -9517398.85349  -7416576.28046  23116581.973    23116589.149
       226.000         167.000
  25124366.061     3486064.36748   2598867.31744  25124366.293    25124373.387
       193.000         128.000
  20792491.901    -8831220.64749  -6883455.90347  20792491.068    20792495.866
       242.000         207.000
  20778287.922    -4126338.45649  -3226080.02547  20778287.171    20778292.834
       241.000         205.000
  20903903.042    -6100083.11349  -4761260.44247  20903902.250    20903908.111
       240.000         201.000
  20784756.986     1727075.24049   1092700.50047  20784756.902    20784762.285
       243.000         206.000
  22702700.295    -1232817.28649   -971683.94646  22702699.808    22702705.447
       228.000         175.000
  21829638.685    -3765103.85349  -2941106.59146  21829638.786    21829644.588
       232.000         184.000
  21940939.712     4958543.92149   3533570.91747  21940939.164    21940945.207
       238.000         196.000
  23573636.349    -3315939.31349  -2592716.74945  23573634.582    23573643.781
       219.000         158.000
 02  7 10 16 25 30.0000000  0 10G21G 2G18G17G15G 6G29G26G23G22
  23102890.431    -9589349.18449  -7472641.41846  23102890.182    23102897.166
       225.000         168.000
  25117584.169     3450426.87949   2571097.80044  25117583.489    25117591.484
       198.000         127.000
  20784564.650    -8872878.39549  -6915916.46847  20784564.106    20784568.413
       242.000         207.000
  20775129.773    -4142934.56649  -3239012.06247  20775129.127    20775134.706
       241.000         205.000
  20897777.730    -6132271.50649  -4786342.30047  20897776.830    20897782.623
       241.000         201.000
  20794789.106     1779793.91849   1133779.93547  20794789.247    20794794.395
       244.000         206.000
  22708534.724    -1202157.12849   -947792.93446  22708534.579    22708540.009
       228.000         175.000
  21832322.270    -3751002.81549  -2930118.77446  21832322.258    21832327.397
       232.000         184.000
  21954088.285     5027639.92849   3587411.93447  21954087.821    21954093.602
       237.000         195.000
  23575985.642    -3303593.13149  -2583096.43345  23575986.005    23575993.633
       222.000         156.000
 02  7 10 16 26  0.0000000  0 10G21G 2G18G17G15G 6G29G26G23G22
  23089247.693    -9661041.98949  -7528505.92046  23089246.207    23089255.100
       224.000         167.000
  25110881.881     3415206.98448   2543653.69544  25110879.830    25110888.245
       193.000         126.000
  20776719.309    -8914105.78049  -6948041.68647  20776718.627    20776723.120
       242.000         207.000
  20772002.250    -4159370.05949  -3251818.93547  20772001.483    20772007.055
       241.000         205.000
  20891687.141    -6164277.85949  -4811282.30747  20891686.516    20891692.071
       242.000         201.000
  20804910.840     1832983.50449   1175226.32347  20804911.050    20804915.854
       244.000         207.000
  22714469.614    -1170969.36149   -923490.78746  22714469.630    22714474.554
       227.000         175.000
  21835128.953    -3736254.25949  -2918626.38446  21835129.904    21835134.450
       234.000         185.000
  21967275.536     5096939.06149   3641411.22847  21967275.212    21967281.014
       237.000         195.000
  23578429.668    -3290750.01749  -2573088.86045  23578429.973    23578436.135
       222.000         154.000
 02  7 10 16 26 30.0000000  0 10G21G 2G18G17G15G 6G29G26G23G22
  23075654.115    -9732475.99049  -7584168.71846  23075653.228    23075662.114
       223.000         166.000
  25104259.217     3380406.39848   2516536.34344  25104259.273    25104266.607
       193.000         125.000
  20768956.119    -8954901.48749  -6979830.53247  20768955.471    20768959.941
       242.000         207.000
  20768905.519    -4175643.57349  -3264499.59147  20768905.046    20768910.478
       241.000         205.000
  20885631.552    -6196100.87249  -4836079.46247  20885630.739    20885636.378
       242.000         202.000
  20815122.170     1886644.26349   1217039.87347  20815121.831    20815127.178
       242.000         206.000
  22720504.969    -1139253.93549   -898777.50146  22720505.172    22720510.428
       229.000         174.000
  21838059.059    -3720857.30149  -2906628.75546  21838058.996    21838063.661
       233.000         185.000
  21980501.266     5166440.19449   3695567.92147  21980500.286    21980506.089
       236.000         194.000
  23580968.267    -3277410.20249  -2562694.28145  23580965.647    23580975.229
       218.000         152.000
 02  7 10 16 27  0.0000000  0 10G21G 2G18G17G15G 6G29G26G23G22
  23062109.359    -9803653.64949  -7639631.75046  23062108.455    23062116.258
       225.000         167.000
  25097716.240     3346022.76848   2489743.89344  25097716.333    25097725.672
       194.000         127.000
  20761274.530    -8995268.39249  -7011285.23947  20761273.949    20761278.417
       243.000         208.000
  20765839.139    -4191757.52249  -3277055.91547  20765838.649    20765843.831
       242.000         205.000
  20879610.255    -6227742.72749  -4860735.44447  20879609.287    20879615.235
       241.000         202.000
  20825422.416     1940772.36349   1259217.59247  20825422.310    20825427.870
       242.000         206.000
  22726639.912    -1107014.55849   -873655.92446  22726640.304    22726646.453
       228.000         174.000
  21841111.858    -3704815.13949  -2894128.37146  21841112.263    21841116.183
       235.000         185.000
  21993764.237     5236138.11349   3749877.95447  21993763.494    21993769.326
       236.000         193.000
  23583600.420    -3263577.84149  -2551915.87445  23583600.013    23583608.539
       215.000         150.000
 02  7 10 16 27 30.0000000  0 10G21G 2G18G17G15G 6G29G26G23G22
  23048613.123    -9874577.04449  -7694896.64846  23048611.888    23048619.622
       226.000         167.000
  25091252.270     3312053.91148   2463274.59144  25091249.989    25091261.888
       193.000         126.000
  20753674.080    -9035209.11549  -7042407.86947  20753673.521    20753677.936
       242.000         209.000
  20762802.705    -4207714.17149  -3289489.66347  20762801.811    20762807.556
       242.000         205.000
  20873622.944    -6259205.75449  -4885252.08247  20873621.952    20873627.978
       241.000         202.000
  20835810.898     1995363.96249   1301756.48147  20835810.838    20835816.226
       242.000         207.000
  22732873.961    -1074254.75249   -848128.83446  22732873.649    22732878.740
       228.000         174.000
  21844286.879    -3688130.75049  -2881127.53946  21844286.435    21844292.346
       234.000         185.000
  22007063.817     5306028.18849   3804337.72847  22007063.067    22007068.925
       236.000         193.000
  23586325.673    -3249256.95949  -2540756.79545  23586325.876    23586332.316
       217.000         150.000
 02  7 10 16 28  0.0000000  0 10G21G 2G18G17G15G 6G29G26G23G22
  23035166.831    -9945237.53549  -7749956.72646  23035166.256    23035173.404
       228.000         168.000
  25084868.757     3278508.04749   2437134.93544  25084869.206    25084875.912
       195.000         126.000
  20746156.165    -9074715.93249  -7073192.38247  20746155.685    20746159.979
       242.000         209.000
  20759797.664    -4223505.54649  -3301794.63947  20759797.201    20759802.590
       241.000         205.000
  20867671.097    -6290482.23449  -4909623.35747  20867670.472    20867676.246
       241.000         202.000
  20846288.832     2050425.82049   1344661.78747  20846288.495    20846294.072
       242.000         206.000
  22739208.352    -1040967.91549   -822191.06446  22739208.234    22739214.399
       227.000         174.000
  21847585.385    -3670796.80349  -2867620.58146  21847584.782    21847590.744
       232.000         185.000
  22020401.012     5376115.98149   3858951.56347  22020400.774    22020406.289
       236.000         193.000
  23589144.983    -3234441.27849  -2529212.16045  23589142.576    23589151.748
       214.000         148.000
 02  7 10 16 28 30.0000000  0 10G21G 2G18G17G15G 6G29G26G23G22
  23021770.462   -10015635.68549  -7804812.35946  23021769.641    23021777.944
       227.000         168.000
  25078565.960     3245385.19349   2411324.90144  25078567.629    25078576.080
       197.000         128.000
  20738720.703    -9113789.70349  -7103639.45847  20738720.383    20738724.495
       242.000         209.000
  20756824.062    -4239132.04149  -3313971.13147  20756823.380    20756829.050
       241.000         205.000
  20861754.791    -6321572.41949  -4933849.46247  20861754.128    20861760.103
       241.000         202.000
  20856855.942     2105956.37949   1387932.31447  20856856.179    20856861.421
       243.000         206.000
  22745642.628    -1007155.82349   -795844.00146  22745642.499    22745647.663
       227.000         175.000
  21851007.171    -3652814.37149  -2853608.28846  21851006.943    21851013.609
       232.000         185.000
  22033775.476     5446398.72549   3913717.31647  22033775.175    22033780.893
       236.000         193.000
  23592057.939    -3219133.06449  -2517283.73645  23592057.399    23592067.081
       211.000         147.000
 02  7 10 16 29  0.0000000  0 10G21G 2G18G17G15G 6G29G26G23G22
  23008423.954   -10085772.14149  -7859464.08746  23008423.180    23008430.983
       226.000         169.000
  25072343.336     3212684.56148   2385843.82944  25072341.000    25072351.659
       192.000         126.000
  20731367.454    -9152431.37549  -7133749.83947  20731367.043    20731371.297
       242.000         208.000
  20753881.654    -4254594.46649  -3326019.77247  20753880.977    20753886.482
       241.000         205.000
  20855873.866    -6352477.27649  -4957931.16147  20855873.429    20855879.017
       242.000         203.000
  20867511.944     2161953.34049   1431566.27147  20867511.942    20867517.297
       243.000         206.000
  22752176.395     -972820.49049   -769089.21346  22752176.056    22752181.657
       226.000         175.000
  21854552.075    -3634185.16049  -2839092.02646  21854552.258    21854557.196
       233.000         185.000
  22047186.328     5516873.02549   3968632.33247  22047186.181    22047192.216
       236.000         193.000
  23595064.228    -3203334.80749  -2504973.44045  23595063.178    23595072.749
       209.000         148.000
 02  7 10 16 29 30.0000000  0 10G21G 2G18G17G15G 6G29G26G23G22
  22995127.268   -10155646.16649  -7913911.31646  22995126.635    22995134.874
       227.000         171.000
  25066201.159     3180406.58849   2360692.16044  25066201.969    25066211.294
       196.000         127.000
  20724096.359    -9190641.00849  -7163523.56047  20724095.757    20724100.139
       242.000         208.000
  20750970.587    -4269892.27849  -3337940.15147  20750970.172    20750975.547
       241.000         205.000
  20850028.336    -6383196.22649  -4981868.00947  20850027.866    20850033.432
       242.000         203.000
  20878256.408     2218415.74049   1475562.89947  20878256.354    20878261.601
       243.000         205.000
  22758809.526     -937962.98349   -741927.54446  22758809.324    22758815.759
       226.000         175.000
  21858220.167    -3614909.65049  -2824072.15546  21858220.189    21858225.365
       233.000         184.000
  22060633.243     5587536.77449   4023694.96247  22060632.862    22060638.967
       236.000         193.000
  23598163.632    -3187047.88849  -2492282.38345  23598163.391    23598171.478
       210.000         148.000
 02  7 10 16 30  0.0000000  0 10G21G 2G18G17G15G 6G29G26G23G22
  22981880.448   -10225258.63549  -7968154.75946  22981878.896    22981888.046
       227.000         173.000
  25060139.004     3148550.59549   2335869.26544  25060139.506    25060149.726
       197.000         126.000
  20716907.184    -9228419.92549  -7192961.65847  20716906.644    20716910.909
       242.000         208.000
  20748090.687    -4285026.26849  -3349732.86747  20748090.216    20748095.886
       241.000         205.000
  20844217.867    -6413730.39449  -5005660.85747  20844217.229    20844223.061
       243.000         203.000
  20889089.002     2275341.40649   1519920.52247  20889088.875    20889094.297
       242.000         204.000
  22765541.630     -902585.46949   -714360.67346  22765541.823    22765547.355
       226.000         174.000
  21862010.994    -3594989.25549  -2808549.76046  21862011.634    21862016.185
       234.000         185.000
  22074115.541     5658386.45049   4078902.47847  22074115.248    22074121.182
       235.000         192.000
  23601355.362    -3170275.01949  -2479212.68245  23601355.252    23601363.075
       213.000         149.000
 02  7 10 16 30 30.0000000  0 10G21G 2G18G17G15G 6G29G26G23G22
  22968683.453   -10294608.85249  -8022193.84246  22968683.201    22968690.741
       227.000         173.000
  25054157.757     3117117.72149   2311376.06744  25054159.516    25054163.912
       200.000         125.000
  20709800.236    -9265767.36649  -7222063.55147  20709799.824    20709804.161
       242.000         208.000
  20745242.213    -4299995.29649  -3361397.04247  20745241.468    20745247.191
       240.000         205.000
  20838442.816    -6444078.47449  -5029308.70747  20838442.267    20838448.072
       243.000         204.000
  20900009.722     2332729.98949   1564638.86447  20900009.564    20900015.584
       243.000         205.000
  22772372.679     -866688.23249   -686388.82846  22772372.205    22772377.702
       225.000         174.000
  21865924.548    -3574423.72349  -2792524.68446  21865924.855    21865930.165
       232.000         185.000
  22087632.854     5729420.71349   4134253.82547  22087632.080    22087639.117
       235.000         192.000
  23604639.626    -3153016.73049  -2465764.68645  23604638.968    23604646.433
       213.000         151.000
 02  7 10 16 31  0.0000000  0 10G21G 2G18G17G15G 6G29G26G23G22
  22955536.585   -10363695.72749  -8076027.70446  22955535.623    22955543.258
       228.000         172.000
  25048256.991     3086108.42649   2287212.94544  25048255.044    25048264.449
       195.000         127.000
  20702775.315    -9302683.47149  -7250829.33247  20702774.877    20702778.904
       242.000         209.000
  20742425.087    -4314798.91949  -3372932.33147  20742424.468    20742430.161
       241.000         205.000
  20832703.332    -6474239.94249  -5052811.13647  20832702.710    20832708.722
       243.000         204.000
  20911018.309     2390580.49249   1609717.13147  20911018.183    20911024.002
       243.000         205.000
  22779302.376     -830272.20949   -658012.72346  22779301.967    22779308.908
       226.000         173.000
  21869960.727    -3553213.61849  -2775997.32746  21869960.721    21869965.622
       234.000         184.000
  22101184.986     5800637.70649   4189747.55047  22101184.588    22101190.341
       235.000         191.000
  23608015.733    -3135274.64249  -2451939.71545  23608015.141    23608022.711
       216.000         153.000
 02  7 10 16 31 30.0000000  0 10G21G 2G18G17G15G 6G29G26G23G22
  22942439.924   -10432519.06149  -8129656.21246  22942439.280    22942446.727
       228.000         171.000
  25042436.393     3055522.82649   2263379.98444  25042436.882    25042448.366
       195.000         126.000
  20695832.392    -9339168.76549  -7279259.42047  20695832.164    20695836.086
       243.000         209.000
  20739639.540    -4329437.16349  -3384338.75147  20739639.007    20739644.339
       241.000         205.000
  20826999.221    -6504214.95649  -5076168.28247  20826998.649    20827004.071
       243.000         204.000
  20922114.596     2448891.43449   1655154.19847  20922114.581    20922120.032
       243.000         205.000
  22786330.430     -793339.07049   -629233.66646  22786330.871    22786337.788
       224.000         172.000
  21874119.345    -3531360.06849  -2758968.59646  21874119.412    21874124.142
       231.000         183.000
  22114771.372     5872034.72749   4245381.56147  22114770.463    22114776.951
       235.000         191.000
  23611483.798    -3117050.55149  -2437739.19445  23611484.040    23611490.895
       219.000         156.000
 02  7 10 16 32  0.0000000  0 10G21G 2G18G17G15G 6G29G26G23G22
  22929393.547   -10501078.24449  -8183078.87946  22929393.181    22929400.099
       229.000         171.000
  25036696.720     3025361.44249   2239877.61244  25036696.216    25036706.138
       196.000         125.000
  20688971.598    -9375222.70049  -7307353.38147  20688971.233    20688975.505
       243.000         209.000
  20736885.613    -4343909.27149  -3395615.71647  20736885.083    20736890.763
       241.000         205.000
  20821330.799    -6534002.77549  -5099379.56047  20821330.083    20821335.722
       243.000         204.000
  20933298.315     2507661.98749   1700949.39747  20933297.770    20933303.614
       243.000         205.000
  22793456.747     -755889.71549   -600052.38146  22793456.428    22793463.106
       225.000         172.000
  21878400.248    -3508863.12049  -2741438.51846  21878399.699    21878406.035
       230.000         183.000
  22128391.652     5943609.87549   4301154.37747  22128390.784    22128397.092
       234.000         190.000
  23615043.396    -3098345.90749  -2423164.16645  23615043.236    23615050.488
       218.000         157.000
 02  7 10 16 32 30.0000000  0 10G21G 2G18G17G15G 6G29G26G23G22
  22916397.695   -10569372.05949  -8236294.78346  22916396.699    22916404.034
       229.000         172.000
  25031038.083     2995625.47249   2216706.65744  25031035.984    25031049.090
       197.000         128.000
  20682192.949    -9410844.82149  -7335110.86247  20682192.326    20682196.791
       242.000         210.000
  20734163.580    -4358213.96049  -3406762.22747  20734163.088    20734168.620
       242.000         205.000
  20815698.209    -6563602.27449  -5122444.09347  20815697.642    20815703.199
       243.000         204.000
  20944569.306     2566891.76849   1747102.44147  20944568.917    20944574.537
       242.000         204.000
  22800681.380     -717924.51149   -570469.13046  22800682.146    22800686.796
       226.000         172.000
  21882803.415    -3485722.78349  -2723407.09046  21882802.991    21882808.877
       230.000         182.000
  22142045.620     6015361.97049   4357065.06547  22142045.071    22142051.276
       234.000         189.000
  23618694.095    -3079161.36649  -2408215.20045  23618693.149    23618701.007
       217.000         157.000
 02  7 10 16 33  0.0000000  0 10G21G 2G18G17G15G 6G29G26G23G22
  22903452.083   -10637401.27449  -8289304.50246  22903451.720    22903458.741
       228.000         173.000
  25025460.250     2966314.20749   2193866.67644  25025460.384    25025470.394
       198.000         128.000
  20675496.160    -9446036.44749  -7362532.89947  20675495.892    20675500.074
       242.000         210.000
  20731473.193    -4372352.11849  -3417778.97547  20731472.720    20731478.095
       242.000         206.000
  20810101.232    -6593014.45349  -5145362.67247  20810100.547    20810105.727
       243.000         204.000
  20955927.217     2626578.37049   1793611.43447  20955926.824    20955932.527
       240.000         203.000
  22808003.787     -679445.65849   -540485.62846  22808003.648    22808010.156
       226.000         172.000
  21887328.722    -3461940.77849  -2704875.66646  21887328.808    21887334.944
       228.000         182.000
  22155732.645     6087287.79049   4413111.12947  22155732.126    22155738.056
       234.000         189.000
  23622435.652    -3059499.71749  -2392894.47745  23622434.859    23622442.308
       220.000         158.000
 02  7 10 16 33 30.0000000  0 10G21G 2G18G17G15G 6G29G26G23G22
  22890556.931   -10705165.19249  -8342107.50046  22890555.908    22890563.920
       226.000         174.000
  25019963.684     2937427.93348   2171357.83244  25019963.360    25019970.286
       193.000         128.000
  20668881.348    -9480797.71549  -7389619.59447  20668881.001    20668885.185
       243.000         210.000
  20728814.615    -4386323.05249  -3428665.41547  20728814.101    20728819.753
       243.000         206.000
  20804540.031    -6622238.57849  -5168134.71347  20804539.007    20804544.969
       243.000         204.000
  20967371.901     2686720.83949   1840475.65647  20967371.581    20967377.318
       241.000         202.000
  22815423.595     -640454.10649   -510102.62246  22815423.481    22815429.649
       224.000         170.000
  21891976.204    -3437517.79649  -2685844.79646  21891976.280    21891981.515
       230.000         181.000
  22169452.328     6159385.30149   4469290.97247  22169451.888    22169457.978
       233.000         189.000
  23626267.818    -3039362.45149  -2377203.13845  23626267.585    23626274.682
       220.000         159.000
 02  7 10 16 34  0.0000000  0 10G21G 2G18G17G15G 6G29G26G23G22
  22877712.222   -10772663.99349  -8394703.92846  22877711.420    22877718.691
       227.000         174.000
  25014547.660     2908966.86348   2149180.37144  25014547.909    25014557.169
       194.000         127.000
  20662348.310    -9515128.95249  -7416371.19147  20662347.744    20662351.995
       243.000         210.000
  20726187.936    -4400126.44449  -3439421.30447  20726187.289    20726192.943
       243.000         206.000
  20799014.708    -6651274.22149  -5190759.88047  20799013.742    20799019.815
       242.000         204.000
  20978903.162     2747317.78849   1887694.02247  20978903.397    20978908.747
       242.000         203.000
  22822940.799     -600951.52849   -479321.41646  22822940.807    22822945.803
       224.000         170.000
  21896745.611    -3412454.57549  -2666315.01746  21896745.469    21896751.783
       231.000         182.000
  22183204.248     6231652.36449   4525602.93647  22183203.758    22183209.804
       235.000         188.000
  23630190.004    -3018751.33949  -2361142.56945  23630189.560    23630196.148
       220.000         158.000
 02  7 10 16 34 30.0000000  0 10G21G 2G18G17G15G 6G29G26G23G22
  22864918.005   -10839898.05349  -8447094.07146  22864917.447    22864925.995
       229.000         174.000
  25009212.526     2880930.05149   2127333.42744  25009213.822    25009219.274
       199.000         127.000
  20655896.932    -9549031.14549  -7442788.47347  20655896.540    20655900.811
       244.000         210.000
  20723592.946    -4413763.12449  -3450047.29147  20723592.166    20723597.653
       242.000         205.000
  20793525.059    -6680122.18349  -5213238.80347  20793524.363    20793530.009
       244.000         204.000
  20990520.598     2808367.00949   1935264.80547  20990520.685    20990526.265
       242.000         205.000
  22830554.757     -560940.28449   -448143.83946  22830555.355    22830560.074
       224.000         169.000
  21901636.453    -3386753.03549  -2646287.86046  21901636.313    21901642.859
       229.000         183.000
  22196987.854     6304085.75349   4582044.51247  22196987.076    22196993.410
       234.000         188.000
  23634201.854    -2997669.20549  -2344714.98645  23634201.892    23634209.097
       220.000         157.000
 02  7 10 16 35  0.0000000  0 10G21G 2G18G17G15G 6G29G26G23G22
  22852174.657   -10906865.02049  -8499276.07346  22852174.259    22852181.220
       230.000         174.000
  25003958.554     2853320.11249   2105819.14844  25003955.702    25003966.704
       198.000         126.000
  20649527.543    -9582502.44349  -7468869.99347  20649527.210    20649531.380
       244.000         210.000
  20721030.184    -4427230.32349  -3460541.21547  20721029.899    20721035.343
       243.000         205.000
  20788071.695    -6708779.93849  -5235569.51947  20788071.168    20788076.903
       245.000         204.000
  21002224.186     2869869.60949   1983188.86347  21002224.283    21002229.949
       242.000         205.000
  22838265.701     -520419.13449   -416568.94746  22838264.938    22838271.010
       223.000         169.000
  21906649.046    -3360411.61649  -2625762.08746  21906649.322    21906655.473
       232.000         184.000
  22210803.066     6376685.65049   4638615.83047  22210802.591    22210808.740
       233.000         188.000
  23638303.588    -2976115.11049  -2327919.64545  23638303.113    23638310.592
       219.000         156.000
 02  7 10 16 35 30.0000000  0 10G21G 2G18G17G15G 6G29G26G23G22
  22839482.221   -10973564.30649  -8551249.45946  22839482.215    22839488.402
       229.000         174.000
  24998786.115     2826137.85049   2084638.11944  24998785.571    24998795.847
       196.000         128.000
  20643240.272    -9615542.34149  -7494615.35147  20643239.872    20643244.124
       244.000         210.000
  20718499.968    -4440526.90149  -3470902.18547  20718499.321    20718504.806
       242.000         205.000
  20782654.769    -6737246.53349  -5257751.27947  20782654.308    20782659.687
       245.000         205.000
  21014013.928     2931824.73249   2031465.54347  21014013.801    21014019.826
       242.000         204.000
  22846073.449     -479388.88249   -384597.32346  22846073.003    22846079.032
       222.000         170.000
  21911783.445    -3333430.75949  -2604738.05346  21911783.628    21911789.813
       232.000         185.000
  22224649.815     6449450.38749   4695315.59547  22224649.136    22224656.174
       234.000         188.000
  23642494.669    -2954090.57249  -2310757.71445  23642494.032    23642500.525
       216.000         152.000
 02  7 10 16 36  0.0000000  0 10G21G 2G18G17G15G 6G29G26G23G22
  22826840.703   -11039996.01449  -8603014.35546  22826840.507    22826847.391
       229.000         174.000
  24993695.168     2799382.82449   2063789.95844  24993696.594    24993704.423
       197.000         128.000
  20637034.895    -9648151.92149  -7520025.39747  20637034.528    20637038.515
       244.000         210.000
  20716002.070    -4453653.36149  -3481130.59647  20716001.511    20716007.191
       243.000         205.000
  20777274.190    -6765522.39249  -5279784.41147  20777273.753    20777279.147
       246.000         205.000
  21025889.379     2994230.33249   2080093.25147  21025888.850    21025895.051
       239.000         203.000
  22853977.614     -437851.66049   -352230.66146  22853977.451    22853982.761
       224.000         169.000
  21917039.310    -3305811.94849  -2583216.90746  21917040.009    21917045.720
       234.000         185.000
  22238527.359     6522377.26449   4752141.70047  22238527.338    22238533.757
       234.000         188.000
  23646774.893    -2931597.95049  -2293231.07645  23646776.657    23646782.172
       214.000         148.000
 02  7 10 16 36 30.0000000  0 10G21G 2G18G17G15G 6G29G26G23G22
  22814250.180   -11106159.36149  -8654570.15846  22814249.404    22814257.220
       228.000         173.000
  24988685.091     2773054.99649   2043274.76744  24988684.604    24988695.680
       197.000         128.000
  20630911.328    -9680331.71149  -7545100.54747  20630910.908    20630915.146
       244.000         210.000
  20713536.654    -4466609.22849  -3491226.07147  20713535.868    20713541.919
       243.000         205.000
  20771929.926    -6793607.09449  -5301668.59247  20771929.323    20771934.587
       246.000         205.000
  21037850.107     3057085.05849   2129070.91847  21037849.850    21037855.806
       240.000         202.000
  22861978.151     -395808.86849   -319470.07646  22861977.622    22861984.100
       224.000         170.000
  21922416.300    -3277556.23649  -2561199.46846  21922416.187    21922422.534
       232.000         185.000
  22252435.470     6595464.06549   4809092.42347  22252435.040    22252441.527
       234.000         188.000
  23651143.887    -2908639.22849  -2275341.18645  23651142.175    23651150.752
       211.000         144.000
 02  7 10 16 37  0.0000000  0 10G21G 2G18G17G15G 6G29G26G23G22
  22801710.646   -11172054.20249  -8705916.75446  22801710.075    22801717.474
       227.000         172.000
  24983756.215     2747154.59949   2023092.59244  24983756.225    24983765.860
       199.000         129.000
  20624869.384    -9712081.91749  -7569840.94947  20624868.531    20624873.112
       243.000         210.000
  20711103.743    -4479394.12449  -3501188.32647  20711103.172    20711109.126
       243.000         206.000
  20766622.080    -6821500.15849  -5323403.44447  20766621.527    20766627.180
       246.000         205.000
  21049896.206     3120387.42649   2178397.38747  21049896.260    21049901.839
       242.000         203.000
  22870074.600     -353261.78149   -286316.51346  22870074.357    22870080.279
       224.000         170.000
  21927914.279    -3248664.56649  -2538686.48746  21927914.651    21927919.385
       234.000         185.000
  22266373.591     6668708.74949   4866166.17346  22266373.530    22266378.717
       234.000         187.000
  23655601.157    -2885216.06849  -2257089.44245  23655600.988    23655609.055
       210.000         142.000
 02  7 10 16 37 30.0000000  0 10G21G 2G18G17G15G 6G29G26G23G22
  22789222.344   -11237680.31649  -8757053.96146  22789222.190    22789229.102
       229.000         174.000
  24978908.904     2721682.31149   2003244.02244  24978909.871    24978919.042
       200.000         129.000
  20618909.266    -9743402.09749  -7594246.27347  20618908.986    20618913.366
       243.000         210.000
  20708703.577    -4492006.89149  -3511016.45447  20708702.763    20708709.012
       243.000         206.000
  20761350.852    -6849200.78649  -5344988.34647  20761350.066    20761355.822
       245.000         205.000
  21062027.445     3184136.73249   2228072.11347  21062027.692    21062033.204
       242.000         203.000
  22878266.869     -310211.23949   -252770.65946  22878266.546    22878273.340
       223.000         169.000
  21933533.160    -3219137.24549  -2515678.19446  21933533.721    21933539.036
       233.000         183.000
  22280341.472     6742109.65349   4923361.64646  22280341.191    22280346.912
       234.000         186.000
  23660146.391    -2861329.56749  -2238476.65945  23660144.283    23660153.686
       208.000         138.000
 02  7 10 16 38  0.0000000  0 10G21G 2G18G17G15G 6G29G26G23G22
  22776785.324   -11303037.56849  -8807981.64546  22776785.330    22776792.500
       231.000         177.000
  24974143.180     2696637.89349   1983728.82544  24974146.018    24974152.003
       200.000         128.000
  20613030.878    -9774293.30549  -7618317.32847  20613030.446    20613034.695
       243.000         210.000
  20706336.198    -4504447.47149  -3520710.41147  20706335.812    20706341.497
       243.000         206.000
  20756116.174    -6876708.94449  -5366423.26647  20756115.360    20756121.055
       246.000         205.000
  21074243.342     3248331.11749   2278093.66747  21074243.575    21074248.844
       243.000         204.000
  22886554.487     -266658.97449   -218833.84146  22886554.728    22886559.526
       224.000         168.000
  21939272.625    -3188975.64149  -2492175.64546  21939272.348    21939278.161
       231.000         183.000
  22294338.597     6815664.30249   4980676.93246  22294338.800    22294344.097
       236.000         186.000
  23664779.597    -2836982.06949  -2219504.62545  23664778.805    23664786.956
       211.000         141.000
 02  7 10 16 38 30.0000000  0 10G21G 2G18G17G15G 6G29G26G23G22
  22764399.400   -11368126.22749  -8858700.03046  22764398.745    22764405.997
       230.000         178.000
  24969459.042     2672020.90449   1964546.73544  24969458.194    24969467.487
       199.000         128.000
  20607233.969    -9804756.06149  -7642054.52747  20607233.419    20607238.000
       243.000         210.000
  20704001.548    -4516715.98749  -3530270.29347  20704000.759    20704006.947
       242.000         205.000
  20750918.168    -6904024.64049  -5387708.22747  20750917.319    20750923.028
       244.000         205.000
  21086543.562     3312968.78149   2328460.63747  21086543.370    21086549.212
       240.000         203.000
  22894937.335     -222606.91249   -184507.59346  22894937.794    22894943.180
       225.000         168.000
  21945132.486    -3158181.32249  -2468180.07846  21945133.080    21945138.199
       232.000         182.000
  22308364.463     6889370.11449   5038110.00146  22308363.751    22308369.687
       233.000         186.000
  23669500.199    -2812175.80749  -2200175.11545  23669498.857    23669507.989
       213.000         142.000
 02  7 10 16 39  0.0000000  0 10G21G 2G18G17G15G 6G29G26G23G22
  22752064.794   -11432944.95149  -8909208.09446  22752064.024    22752070.691
       230.000         177.000
  24964856.218     2647832.49449   1945698.58144  24964856.380    24964866.245
       200.000         129.000
  20601518.683    -9834789.81849  -7665457.43947  20601518.176    20601522.604
       243.000         210.000
  20701699.962    -4528810.90249  -3539694.89847  20701699.252    20701705.316
       242.000         205.000
  20745756.946    -6931146.42849  -5408842.08947  20745756.182    20745761.783
       244.000         205.000
  21098927.966     3378049.47549   2379172.82747  21098927.616    21098933.699
       240.000         202.000
  22903415.358     -178055.47149   -149792.20546  22903415.056    22903421.956
       225.000         169.000
  21951112.937    -3126754.32449  -2443691.51346  21951112.831    21951118.709
       232.000         182.000
  22322418.773     6963226.08149   5095660.05246  22322417.962    22322424.851
       233.000         186.000
  23674307.706    -2786911.50549  -2180488.76045  23674308.068    23674315.104
       217.000         146.000
 02  7 10 16 39 30.0000000  0 10G21G 2G18G17G15G 6G29G26G23G22
  22739781.368   -11497494.19249  -8959506.15746  22739780.448    22739787.322
       228.000         175.000
  24960334.837     2624072.34749   1927184.16844  24960335.479    24960341.864
       205.000         129.000
  20595884.962    -9864395.38349  -7688526.70347  20595884.746    20595888.748
       244.000         211.000
  20699431.372    -4540732.20949  -3548984.22647  20699430.512    20699436.530
       243.000         205.000
  20740632.675    -6958074.32349  -5429824.86147  20740631.829    20740637.757
       244.000         205.000
  21111396.355     3443571.39149   2430228.82147  21111396.344    21111402.156
       240.000         202.000
  22911987.968     -133006.79749   -114689.35646  22911988.730    22911992.597
       223.000         170.000
  21957213.352    -3094696.16749  -2418711.14446  21957213.517    21957218.993
       233.000         182.000
  22336501.180     7037229.73949   5153325.19646  22336500.742    22336506.958
       232.000         185.000
  23679202.228    -2761191.67849  -2160447.38045  23679201.610    23679209.935
       217.000         151.000
 02  7 10 16 40  0.0000000  0 10G21G 2G18G17G15G 6G29G26G23G22
  22727549.536   -11561772.36949  -9009592.99246  22727548.526    22727556.835
       227.000         173.000
  24955895.108     2600741.05749   1909003.90544  24955895.793    24955904.760
       208.000         130.000
  20590332.758    -9893572.28649  -7711261.93647  20590332.200    20590336.775
       243.000         210.000
  20697196.088    -4552478.79249  -3558137.41147  20697195.680    20697201.114
       243.000         205.000
  20735545.495    -6984807.26749  -5450655.72247  20735544.561    20735550.680
       244.000         205.000
  21123948.661     3509533.80749   2481628.06047  21123948.535    21123954.055
       241.000         202.000
  22920655.016      -87461.45749    -79199.50246  22920654.201    22920660.357
       222.000         169.000
  21963433.947    -3062007.21249  -2393239.24246  21963434.121    21963440.060
       235.000         183.000
  22350611.426     7111379.69649   5211104.35746  22350610.714    22350616.644
       232.000         185.000
  23684183.141    -2735017.40949  -2140051.89945  23684182.452    23684189.259
       219.000         154.000
 02  7 10 16 40 30.0000000  0 10G21G 2G18G17G15G 6G29G26G23G22
  22715369.127   -11625780.24649  -9059469.21146  22715368.288    22715375.253
       228.000         172.000
  24951536.983     2577838.05749   1891157.38344  24951536.601    24951542.675
       198.000         127.000
  20584861.940    -9922321.54749  -7733663.94547  20584861.557    20584865.821
       243.000         211.000
  20694994.038    -4564050.61849  -3567154.41447  20694993.764    20694999.112
       242.000         205.000
  20730495.381    -7011345.32349  -5471334.72047  20730494.587    20730500.570
       243.000         206.000
  21136584.349     3575934.47949   2533368.79147  21136584.427    21136589.825
       241.000         201.000
  22929415.922      -41421.61049    -43324.31046  22929415.066    22929420.795
       223.000         168.000
  21969774.180    -3028689.18749  -2367277.15446  21969774.072    21969780.788
       234.000         183.000
  22364748.986     7185673.19949   5268995.36446  22364748.207    22364754.857
       231.000         185.000
  23689249.928    -2708391.30949  -2119304.34345  23689250.263    23689257.219
       220.000         156.000
 02  7 10 16 41  0.0000000  0 10G21G 2G18G17G15G 6G29G26G23G22
  22703240.379   -11689517.00349  -9109134.17646  22703240.214    22703247.114
       231.000         175.000
  24947260.413     2555364.55749   1873645.48944  24947259.941    24947269.516
       207.000         128.000
  20579472.610    -9950642.81649  -7755732.46147  20579472.188    20579476.633
       244.000         210.000
  20692825.519    -4575446.38349  -3576034.23747  20692825.065    20692830.421
       243.000         205.000
  20725482.666    -7037687.15949  -5491860.82247  20725481.907    20725487.707
       242.000         206.000
  21149303.365     3642772.86549   2585450.59347  21149303.122    21149308.897
       240.000         201.000
  22938271.109        5112.20849     -7064.22246  22938271.985    22938275.926
       224.000         168.000
  21976234.190    -2994742.42549  -2340825.13846  21976234.929    21976239.916
       233.000         183.000
  22378913.643     7260109.22149   5326997.42346  22378912.531    22378920.059
       231.000         184.000
  23694402.720    -2681314.27849  -2098205.42545  23694401.927    23694410.056
       219.000         157.000
 02  7 10 16 41 30.0000000  0 10G21G 2G18G17G15G 6G29G26G23G22
  22691163.376   -11752982.41249  -9158587.69846  22691163.374    22691169.653
       232.000         178.000
  24943065.425     2533319.83049   1856467.73344  24943064.376    24943071.320
       208.000         130.000
  20574164.508    -9978536.96549  -7777468.15747  20574163.973    20574168.464
       243.000         211.000
  20690690.527    -4586666.10449  -3584776.87947  20690690.063    20690695.408
       242.000         205.000
  20720507.219    -7063833.13249  -5512234.30747  20720506.822    20720512.282
       243.000         206.000
  21162105.223     3710047.09449   2637872.01847  21162104.830    21162111.047
       240.000         201.000
  22947219.894       52137.71549     29579.00746  22947220.280    22947225.648
       224.000         168.000
  21982813.544    -2960168.62849  -2313884.53146  21982813.785    21982819.388
       233.000         183.000
  22393104.913     7334685.16049   5385108.50946  22393104.227    22393111.028
       231.000         184.000
  23699640.644    -2653788.91549  -2076757.12945  23699639.271    23699648.533
       217.000         158.000
 02  7 10 16 42  0.0000000  0 10G21G 2G18G17G15G 6G29G26G23G22
  22679137.760   -11816177.56849  -9207830.63746  22679137.650    22679144.297
       231.000         180.000
  24938952.073     2511702.84449   1839623.31745  24938952.303    24938960.547
       208.000         132.000
  20568937.476   -10006005.12649  -7798871.90747  20568937.091    20568941.209
       243.000         210.000
  20688588.957    -4597710.18749  -3593382.66247  20688588.488    20688593.799
       241.000         205.000
  20715569.011    -7089783.52149  -5532455.38047  20715568.251    20715574.059
       243.000         206.000
  21174989.518     3777754.72849   2690631.17447  21174989.190    21174995.647
       238.000         200.000
  22956261.685       99652.76749     66603.70046  22956261.211    22956267.127
       224.000         167.000
  21989511.701    -2924969.83049  -2286456.90646  21989511.628    21989517.781
       233.000         183.000
  22407322.247     7409398.09049   5443326.34746  22407321.464    22407328.984
       231.000         184.000
  23704963.371    -2625817.90649  -2054961.58445  23704962.956    23704970.602
       220.000         156.000
 02  7 10 16 42 30.0000000  0 10G21G 2G18G17G15G 6G29G26G23G22
  22667163.901   -11879100.93749  -9256861.80546  22667162.830    22667170.661
       230.000         180.000
  24934920.069     2490515.16849   1823113.38145  24934918.445    24934929.459
       209.000         135.000
  20563791.684   -10033046.67649  -7819943.24147  20563791.393    20563795.436
       244.000         210.000
  20686521.127    -4608576.78449  -3601850.14547  20686520.490    20686526.137
       241.000         205.000
  20710668.336    -7115536.64649  -5552522.75047  20710667.543    20710673.434
       243.000         206.000
  21187956.191     3845895.57449   2743727.90047  21187956.203    21187962.082
       240.000         200.000
  22965396.648      147656.93049    104009.51446  22965397.416    22965401.309
       224.000         167.000
  21996328.661    -2889146.00249  -2258542.25246  21996328.489    21996334.778
       232.000         182.000
  22421565.725     7484247.50049   5501650.52646  22421565.323    22421571.561
       233.000         184.000
  23710370.915    -2597401.89049  -2032819.28645  23710369.892    23710377.853
       214.000         155.000
 02  7 10 16 43  0.0000000  0 10G21G 2G18G17G15G 6G29G26G23G22
  22655241.873   -11941751.35049  -9305680.29046  22655241.073    22655248.858
       230.000         179.000
  24930970.157     2469757.19549   1806938.29445  24930969.189    24930978.814
       211.000         138.000
  20558727.027   -10059661.33649  -7840681.92447  20558726.310    20558730.980
       242.000         210.000
  20684487.302    -4619264.52249  -3610178.25247  20684486.668    20684492.185
       241.000         205.000
  20705805.443    -7141091.40849  -5572435.55347  20705804.880    20705810.577
       243.000         206.000
  21201005.322     3914468.85749   2797161.58647  21201005.629    21201011.262
       240.000         200.000
  22974624.510      196149.47749    141795.88646  22974624.099    22974630.201
       223.000         167.000
  22003264.525    -2852697.66249  -2230140.96646  22003264.877    22003269.870
       231.000         182.000
  22435834.929     7559231.89849   5560079.88346  22435834.905    22435841.163
       231.000         184.000
  23715862.535    -2568542.20449  -2010331.27545  23715861.761    23715869.901
       213.000         152.000
 02  7 10 16 43 30.0000000  0 10G21G 2G18G17G15G 6G29G26G23G22
  22643371.825   -12004128.65249  -9354285.94046  22643371.600    22643378.789
       230.000         178.000
  24927101.910     2449428.93849   1791098.05545  24927101.357    24927112.544
       213.000         141.000
  20553743.574   -10085849.58649  -7861088.34547  20553743.489    20553747.493
       244.000         210.000
  20682487.546    -4629773.05349  -3618366.72447  20682487.142    20682492.744
       241.000         205.000
  20700980.356    -7166447.33149  -5592193.41447  20700979.960    20700985.422
       243.000         206.000
  21214136.477     3983472.97549   2850930.97547  21214136.509    21214142.245
       241.000         200.000
  22983944.808      245128.74649    179961.53146  22983944.077    22983950.236
       223.000         167.000
  22010318.944    -2815626.09049  -2201254.03646  22010318.783    22010324.205
       231.000         181.000
  22450129.315     7634349.24149   5618612.83446  22450128.799    22450135.249
       231.000         183.000
  23721438.482    -2539240.89449  -1987499.13145  23721438.230    23721444.108
       213.000         149.000
 02  7 10 16 44  0.0000000  0 10G21G 2G18G17G15G 6G29G26G23G22
  22631553.610   -12066233.59949  -9402679.36546  22631553.601    22631559.514
       232.000         177.000
  24923315.248     2429529.46049   1775591.93045  24923314.798    24923324.135
       214.000         143.000
  20548841.021   -10111612.99749  -7881163.72847  20548840.714    20548844.923
       244.000         211.000
  20680521.828    -4640102.98149  -3626416.02447  20680521.283    20680527.100
       241.000         205.000
  20696193.091    -7191604.76849  -5611796.61647  20696192.814    20696198.303
       244.000         206.000
  21227349.119     4052905.31149   2905034.03247  21227349.322    21227355.042
       240.000         200.000
  22993357.463      294591.94849    218504.25346  22993357.320    22993362.503
       223.000         167.000
  22017491.616    -2777933.71949  -2171883.37346  22017491.108    22017497.457
       231.000         181.000
  22464448.485     7709596.52449   5677247.02846  22464447.577    22464454.096
       230.000         182.000
  23727097.951    -2509501.17049  -1964325.36245  23727097.082    23727103.051
       209.000         147.000
 02  7 10 16 44 30.0000000  0 11G21G 2G18G17G15G 6G29G26G 3G23G22
  22619787.237   -12128066.52949  -9450860.82746  22619786.747    22619792.519
       233.000         177.000
  24919609.883     2410058.08549   1760419.38445  24919609.214    24919619.786
       214.000         143.000
  20544019.136   -10136952.18449  -7900908.54347  20544018.672    20544022.879
       243.000         211.000
  20678590.181    -4650253.80449  -3634325.76147  20678589.720    20678595.392
       241.000         204.000
  20691443.680    -7216563.52849  -5631244.99847  20691443.412    20691448.468
       243.000         207.000
  21240642.832     4122764.09749   2959469.39747  21240642.569    21240648.310
       238.000         199.000
  23002861.794      344537.43749    257422.79446  23002861.850    23002867.793
       221.000         167.000
  22024781.854    -2739622.18049  -2142030.23746  22024781.101    22024787.566
       231.000         180.000
  24626404.302     -656440.09849   -512059.84844  24626401.817    24626412.097
       202.000         124.000
  22478791.935     7784971.38949   5735980.65446  22478791.357    22478796.949
       231.000         181.000
  23732840.007    -2479324.94449  -1940811.47845  23732840.446    23732846.404
       214.000         144.000
 02  7 10 16 45  0.0000000  0 11G21G 2G18G17G15G 6G29G26G 3G23G22
  22608072.548   -12189627.88649  -9498830.66846  22608072.357    22608078.784
       233.000         178.000
  24915986.092     2391014.16049   1745579.93845  24915984.063    24915994.676
       214.000         144.000
  20539277.747   -10161868.33049  -7920323.71947  20539277.304    20539281.668
       241.000         212.000
  20676692.592    -4660225.83649  -3642096.18147  20676692.004    20676697.847
       242.000         204.000
  20686732.042    -7241323.78949  -5650538.71247  20686731.694    20686737.005
       243.000         207.000
  21254017.175     4193047.08149   3014235.31647  21254016.910    21254023.277
       238.000         198.000
  23012457.243      394962.74349    296715.19346  23012456.918    23012462.572
       222.000         166.000
  22032189.698    -2700693.61149  -2111696.29946  22032189.962    22032194.939
       232.000         180.000
  24607235.926     -757169.46049   -590550.18044  24607234.946    24607244.048
       205.000         127.000
  22493159.118     7860471.11849   5794811.56146  22493158.940    22493165.152
       230.000         181.000
  23738664.941    -2448715.22849  -1916959.82545  23738665.414    23738670.961
       210.000         142.000
 02  7 10 16 45 30.0000000  0 11G21G 2G18G17G15G 6G29G26G 3G23G22
  22596409.975   -12250914.87949  -9546586.70846  22596409.231    22596417.034
       231.000         180.000
  24912444.052     2372400.62749   1731075.84945  24912443.904    24912453.022
       217.000         145.000
  20534617.321   -10186359.02849  -7939407.37347  20534617.060    20534621.502
       243.000         212.000
  20674829.798    -4670015.36649  -3649724.39447  20674829.304    20674835.081
       241.000         204.000
  20682058.847    -7265882.01949  -5669674.99747  20682058.499    20682063.803
       244.000         206.000
  21267472.607     4263755.76849   3069332.94747  21267472.555    21267478.607
       239.000         198.000
  23022144.264      445869.20149    336382.52746  23022144.681    23022150.938
       220.000         166.000
  22039715.230    -2661146.29649  -2080880.22546  22039715.293    22039720.689
       230.000         180.000
  24588092.742     -857767.91849   -668938.53944  24588093.557    24588102.322
       207.000         129.000
  22507550.241     7936096.87349   5853740.68246  22507549.788    22507556.149
       230.000         181.000
  23744572.604    -2417670.90849  -1892769.49645  23744571.805    23744579.958
       209.000         143.000
 02  7 10 16 46  0.0000000  0 11G21G 2G18G17G15G 6G29G26G 3G23G22
  22584799.557   -12311927.07649  -9594128.65246  22584798.359    22584806.498
       229.000         180.000
  24908983.931     2354217.13249   1716906.83345  24908982.920    24908991.787
       218.000         147.000
  20530037.787   -10210424.76249  -7958159.88747  20530037.221    20530041.731
       241.000         212.000
  20673001.702    -4679622.00249  -3657210.09647  20673001.169    20673006.864
       241.000         205.000
  20677424.151    -7290237.80449  -5688653.53047  20677423.558    20677428.793
       243.000         206.000
  21281008.808     4334888.36549   3124760.89547  21281009.114    21281014.950
       240.000         200.000
  23031922.595      497255.16549    376423.49846  23031922.652    23031929.704
       222.000         167.000
  22047358.274    -2620981.68349  -2049583.13746  22047359.431    22047364.017
       231.000         181.000
  24568975.063     -958232.81449   -747222.85944  24568975.612    24568981.743
       209.000         130.000
  22521965.030     8011846.80649   5912766.56546  22521964.528    22521970.849
       230.000         181.000
  23750562.299    -2386194.27349  -1868242.33945  23750563.067    23750569.883
       216.000         145.000
 02  7 10 16 46 30.0000000  0 11G21G 2G18G17G15G 6G29G26G 3G23G22
  22573241.280   -12372665.57149  -9641457.33946  22573240.551    22573248.337
       229.000         179.000
  24905605.367     2336462.62449   1703072.11045  24905605.068    24905613.672
       218.000         148.000
  20525538.753   -10234066.88149  -7976582.31047  20525538.415    20525542.733
       242.000         212.000
  20671208.334    -4689045.92749  -3664553.43047  20671207.691    20671213.563
       240.000         204.000
  20672827.890    -7314391.58549  -5707474.65747  20672827.170    20672832.754
       243.000         206.000
  21294625.175     4406442.27049   3180517.12447  21294625.298    21294631.088
       239.000         200.000
  23041791.870      549117.88449    416835.98346  23041791.969    23041798.161
       223.000         167.000
  22055118.599    -2580202.04349  -2017806.79746  22055118.989    22055123.989
       232.000         181.000
  24549882.700    -1058563.15749   -825402.29644  24549882.370    24549892.168
       208.000         131.000
  22536402.853     8087717.79249   5971886.76246  22536402.293    22536409.020
       231.000         182.000
  23756633.971    -2354288.27449  -1843380.56145  23756632.396    23756641.090
       213.000         146.000
 02  7 10 16 47  0.0000000  0 11G21G 2G18G17G15G 6G29G26G 3G23G22
  22561735.121   -12433130.32849  -9688572.70646  22561734.516    22561741.999
       231.000         180.000
  24902308.650     2319136.83349   1689571.43745  24902308.191    24902315.906
       216.000         150.000
  20521120.291   -10257286.25149  -7994675.32047  20521119.834    20521124.334
       241.000         212.000
  20669449.677    -4698287.00249  -3671754.27347  20669449.048    20669454.897
       240.000         204.000
  20668270.038    -7338343.12149  -5726138.19447  20668269.545    20668274.976
       244.000         206.000
  21308321.336     4478415.73749   3236600.28847  21308321.286    21308327.085
       239.000         199.000
  23051751.334      601455.38849    457618.43146  23051752.094    23051758.006
       223.000         167.000
  22062995.349    -2538809.27149  -1985552.71746  22062996.455    22063001.327
       233.000         182.000
  24530816.330    -1158757.00749   -903475.44345  24530815.330    24530822.772
       205.000         133.000
  22550863.305     8163707.56149   6031099.53946  22550862.932    22550868.955
       231.000         183.000
  23762786.738    -2321955.18149  -1818186.03545  23762786.805    23762793.839
       216.000         149.000
 02  7 10 16 47 30.0000000  0 11G21G 2G18G17G15G 6G29G26G 3G23G22
  22550281.194   -12493321.29449  -9735474.71546  22550280.735    22550287.296
       232.000         180.000
  24899093.010     2302239.37149   1676404.54145  24899092.887    24899101.735
       216.000         149.000
  20516781.997   -10280084.03949  -8012439.82047  20516781.448    20516785.885
       241.000         211.000
  20667726.061    -4707344.57149  -3678812.13447  20667725.721    20667730.948
       240.000         204.000
  20663750.866    -7362092.05549  -5744643.86247  20663750.473    20663755.717
       244.000         207.000
  21322096.958     4550806.92649   3293008.95947  21322096.959    21322102.807
       238.000         197.000
  23061801.126      654265.90149    498769.45246  23061801.677    23061807.930
       223.000         168.000
  22070988.695    -2496804.99249  -1952822.13246  22070988.533    22070994.316
       232.000         182.000
  24511776.520    -1258812.12149   -981440.40145  24511775.631    24511782.953
       205.000         133.000
  22565346.054     8239814.21149   6090403.36746  22565345.696    22565351.638
       231.000         182.000
  23769020.398    -2289197.42949  -1792660.56645  23769020.899    23769027.842
       219.000         151.000
 02  7 10 16 48  0.0000000  0 11G21G 2G18G17G15G 6G29G26G 3G23G22
  22538879.505   -12553237.89649  -9782162.93046  22538878.939    22538884.835
       232.000         179.000
  24895959.230     2285770.51749   1663571.63645  24895958.197    24895966.399
       214.000         149.000
  20512524.020   -10302459.68249  -8029875.37847  20512523.585    20512528.078
       241.000         211.000
  20666037.683    -4716217.52649  -3685726.12547  20666037.620    20666042.929
       241.000         204.000
  20659270.396    -7385637.21549  -5762990.73747  20659269.745    20659275.106
       245.000         207.000
  21335951.786     4623614.78349   3349742.30847  21335951.238    21335957.538
       238.000         196.000
  23071940.635      707548.49649    540288.33246  23071940.958    23071947.392
       224.000         168.000
  22079098.007    -2454190.00549  -1919615.66046  22079098.038    22079103.444
       231.000         182.000
  24492763.600    -1358725.57849  -1059294.97945  24492761.954    24492772.118
       207.000         134.000
  22579850.737     8316036.56049   6149797.34746  22579850.435    22579856.000
       230.000         181.000
  23775334.709    -2256016.30349  -1766805.20245  23775333.779    23775341.445
       218.000         153.000
 02  7 10 16 48 30.0000000  0 11G21G 2G18G17G15G 6G29G26G 3G23G22
  22527529.796   -12612880.63949  -9828637.74646  22527529.336    22527536.152
       231.000         177.000
  24892906.715     2269729.65449   1651072.23745  24892906.100    24892915.435
       216.000         149.000
  20508346.249   -10324414.04649  -8046982.66147  20508345.798    20508350.262
       241.000         211.000
  20664384.458    -4724905.56949  -3692496.03847  20664384.175    20664389.790
       241.000         204.000
  20654828.790    -7408978.34249  -5781178.63047  20654827.990    20654833.512
       244.000         208.000
  21349885.632     4696837.38849   3406798.82047  21349885.742    21349891.407
       239.000         196.000
  23082169.350      761300.92849    582173.30946  23082169.666    23082175.567
       222.000         168.000
  22087323.238    -2410966.16849  -1885934.77146  22087323.144    22087328.831
       231.000         181.000
  24473777.958    -1458495.40649  -1137037.64345  24473778.646    24473785.335
       211.000         136.000
  22594376.974     8392372.19049   6209279.62546  22594375.919    22594381.924
       228.000         180.000
  23781729.014    -2222414.29549  -1740621.91145  23781727.902    23781736.676
       217.000         154.000
 02  7 10 16 49  0.0000000  0 11G21G 2G18G17G15G 6G29G26G 3G23G22
  22516232.482   -12672248.07549  -9874898.01246  22516232.527    22516238.652
       231.000         177.000
  24889935.682     2254117.68349   1638906.99145  24889935.246    24889944.127
       213.000         149.000
  20504248.605   -10345946.89149  -8063761.49247  20504248.294    20504252.351
       241.000         211.000
  20662766.731    -4733407.12149  -3699120.62847  20662766.494    20662771.982
       241.000         204.000
  20650426.282    -7432113.67949  -5799206.16547  20650425.568    20650431.004
       245.000         208.000
  21363898.300     4770474.13349   3464178.03847  21363898.701    21363904.309
       240.000         198.000
  23092487.298      815522.37349    624423.76246  23092487.593    23092493.105
       222.000         167.000
  22095664.169    -2367134.02449  -1851779.87346  22095665.019    22095670.125
       231.000         181.000
  24454820.417    -1558118.40649  -1214665.98045  24454820.700    24454828.374
       210.000         134.000
  22608924.380     8468820.19849   6268849.46246  22608923.108    22608929.970
       227.000         179.000
  23788203.301    -2188392.68849  -1714111.57945  23788201.980    23788209.807
       215.000         155.000
 02  7 10 16 49 30.0000000  0 11G21G 2G18G17G15G 6G29G26G 3G23G22
  22504987.096   -12731342.83349  -9920945.85146  22504986.742    22504993.654
       231.000         178.000
  24887045.986     2238931.74349   1627073.78045  24887045.337    24887055.489
       213.000         149.000
  20500230.664   -10367061.52849  -8080214.44947  20500230.536    20500234.544
       242.000         211.000
  20661184.158    -4741724.06249  -3705601.37047  20661183.470    20661189.380
       241.000         204.000
  20646062.446    -7455045.55449  -5817075.15847  20646061.819    20646067.342
       244.000         208.000
  21377989.045     4844520.57149   3521876.50147  21377989.216    21377995.171
       239.000         199.000
  23102893.797      870208.53449    667036.31046  23102893.570    23102900.450
       223.000         166.000
  22104120.080    -2322697.80449  -1817154.26946  22104119.317    22104126.198
       230.000         181.000
  24435890.739    -1657594.91849  -1292180.11745  24435890.215    24435897.585
       207.000         133.000
  22623492.365     8545376.10249   6328503.37646  22623491.793    22623498.470
       228.000         178.000
  23794756.309    -2153956.12649  -1687277.94845  23794755.683    23794764.129
       216.000         155.000
 02  7 10 16 50  0.0000000  0 11G21G 2G18G17G15G 6G29G26G 3G23G22
  22493794.150   -12790161.87749  -9966778.83846  22493793.421    22493800.758
       230.000         180.000
  24884237.900     2224174.36149   1615574.42545  24884237.631    24884246.746
       212.000         149.000
  20496292.782   -10387755.56449  -8096339.66147  20496292.522    20496296.449
       242.000         211.000
  20659637.217    -4749853.06049  -3711935.66447  20659636.841    20659642.631
       241.000         204.000
  20641737.984    -7477770.57849  -5834782.96847  20641737.283    20641742.983
       244.000         208.000
  21392157.841     4918977.89849   3579895.14847  21392157.438    21392163.892
       238.000         198.000
  23113389.021      925360.59749    710011.93446  23113389.154    23113394.866
       224.000         165.000
  22112691.105    -2277656.43449  -1782057.12946  22112691.312    22112697.059
       230.000         181.000
  24416990.019    -1756919.43549  -1369575.78144  24416990.459    24416996.334
       206.000         131.000
  22638081.245     8622040.98949   6388242.20546  22638080.653    22638087.982
       230.000         179.000
  23801388.487    -2119104.01549  -1660120.52645  23801386.703    23801396.049
       213.000         154.000
 02  7 10 16 50 30.0000000  0 11G21G 2G18G17G15G 6G29G26G 3G23G22
  22482653.550   -12848706.09449 -10012397.66846  22482653.403    22482660.676
       232.000         183.000
  24881510.945     2209844.55549   1604408.32945  24881510.539    24881519.989
       210.000         149.000
  20492434.689   -10408030.37549  -8112138.20947  20492434.163    20492438.342
       241.000         211.000
  20658126.034    -4757794.11849  -3718123.51047  20658125.527    20658131.063
       241.000         204.000
  20637452.917    -7500288.59049  -5852329.46847  20637452.229    20637457.942
       245.000         208.000
  21406404.248     4993843.84149   3638232.19647  21406403.665    21406410.102
       236.000         196.000
  23123972.336      980976.05649    753348.62146  23123972.667    23123978.807
       223.000         165.000
  22121376.883    -2232011.97849  -1746490.05446  22121376.300    22121384.130
       229.000         181.000
  24398118.205    -1856090.17449  -1446851.65444  24398116.995    24398127.351
       204.000         129.000
  22652690.538     8698812.30849   6448063.96846  22652690.289    22652697.529
       230.000         181.000
  23808099.215    -2083839.23749  -1632641.51845  23808098.576    23808107.724
       212.000         154.000
 02  7 10 16 51  0.0000000  0 11G21G 2G18G17G15G 6G29G26G 3G23G22
  22471565.307   -12906975.40849 -10057802.30546  22471564.709    22471572.198
       234.000         185.000
  24878865.360     2195941.83549   1593574.96945  24878865.110    24878874.026
       212.000         150.000
  20488656.077   -10427886.77449  -8127610.70947  20488655.699    20488659.804
       242.000         212.000
  20656650.855    -4765546.68649  -3724164.47647  20656650.578    20656656.136
       241.000         204.000
  20633207.344    -7522599.30349  -5869714.43247  20633206.448    20633212.018
       244.000         208.000
  21420728.134     5069116.32549   3696886.03547  21420727.959    21420733.898
       237.000         195.000
  23134643.327     1037052.72449    797044.69846  23134643.210    23134648.885
       224.000         165.000
  22130177.139    -2185766.33849  -1710454.50846  22130177.307    22130183.500
       231.000         181.000
  24379276.220    -1955105.27749  -1524006.21144  24379273.420    24379284.341
       205.000         130.000
  22667319.573     8775688.02349   6507967.08146  22667318.902    22667325.765
       231.000         181.000
  23814887.772    -2048164.20049  -1604842.84245  23814887.886    23814895.268
       209.000         152.000
 02  7 10 16 51 30.0000000  0 11G21G 2G18G17G15G 6G29G26G 3G23G22
  22460529.544   -12964968.92049 -10102992.01646  22460528.570    22460535.616
       232.000         183.000
  24876300.885     2182466.10749   1583074.37145  24876300.595    24876309.745
       210.000         150.000
  20484957.067   -10447325.18549  -8142757.51847  20484956.680    20484960.818
       241.000         212.000
  20655211.651    -4773109.91249  -3730057.90447  20655211.185    20655216.992
       241.000         205.000
  20629001.363    -7544701.86449  -5886937.20347  20629000.570    20629006.225
       244.000         207.000
  21435129.206     5144793.82949   3755855.45547  21435129.599    21435135.429
       238.000         195.000
  23145401.971     1093589.10449    841098.98846  23145401.922    23145406.401
       220.000         164.000
  22139091.699    -2138920.99149  -1673951.67246  22139092.085    22139097.885
       231.000         181.000
  24360464.418    -2053962.10249  -1601037.43644  24360463.362    24360471.988
       204.000         128.000
  22681968.012     8852666.41649   6567950.19046  22681967.750    22681973.747
       230.000         180.000
  23821754.377    -2012080.72949  -1576725.88345  23821754.243    23821762.325
       214.000         151.000
 02  7 10 16 52  0.0000000  0 11G21G 2G18G17G15G 6G29G26G 3G23G22
  22449546.209   -13022686.51949 -10147966.71046  22449546.063    22449551.765
       233.000         182.000
  24873817.857     2169417.63149   1572906.70645  24873817.564    24873826.621
       211.000         148.000
  20481337.549   -10466345.69649  -8157578.68647  20481337.045    20481341.493
       242.000         212.000
  20653808.748    -4780482.52649  -3735802.80647  20653808.186    20653814.018
       241.000         205.000
  20624835.108    -7566595.33649  -5903997.05447  20624834.234    20624840.155
       244.000         207.000
  21449607.121     5220875.30849   3815139.64947  21449607.176    21449612.840
       239.000         195.000
  23156247.492     1150584.06149    885510.61545  23156247.633    23156252.793
       219.000         162.000
  22148120.003    -2091476.85849  -1636982.24046  22148120.275    22148126.540
       230.000         181.000
  24341683.210    -2152657.50349  -1677942.87244  24341683.793    24341689.544
       205.000         125.000
  22696635.916     8929746.20549   6628012.33046  22696635.396    22696642.748
       228.000         179.000
  23828698.462    -1975590.54449  -1548292.04545  23828698.425    23828705.426
       216.000         153.000
 02  7 10 16 52 30.0000000  0 11G21G 2G18G17G15G 6G29G26G 3G23G22
  22438615.219   -13080129.21549 -10192727.21446  22438614.550    22438621.299
       231.000         180.000
  24871415.938     2156795.45049   1563071.17045  24871415.987    24871423.491
       212.000         147.000
  20477797.385   -10484949.39049  -8172075.06447  20477796.916    20477801.099
       241.000         212.000
  20652442.058    -4787664.49749  -3741399.14847  20652441.522    20652447.244
       241.000         205.000
  20620708.637    -7588279.90349  -5920894.11247  20620708.101    20620713.559
       243.000         207.000
  21464161.351     5297358.19249   3874736.65247  21464161.590    21464167.347
       238.000         195.000
  23167179.979     1208034.98949    930277.54345  23167180.435    23167185.066
       223.000         162.000
  22157261.751    -2043436.49649  -1599548.22246  22157262.177    22157266.727
       230.000         180.000
  24322933.091    -2251190.03649  -1754721.45444  24322933.064    24322939.057
       206.000         126.000
  22711322.451     9006924.88949   6688151.52246  22711321.509    22711328.367
       227.000         178.000
  23835719.186    -1938696.60849  -1519543.57745  23835717.976    23835725.829
       216.000         153.000
 02  7 10 16 53  0.0000000  0 11G21G 2G18G17G15G 6G29G26G 3G23G22
  22427736.380   -13137297.37149 -10237273.77046  22427735.832    22427741.849
       232.000         179.000
  24869094.888     2144598.58049   1553567.08645  24869094.784    24869103.349
       208.000         146.000
  20474336.239   -10503137.57349  -8186247.66747  20474335.752    20474339.913
       241.000         212.000
  20651111.574    -4794655.82249  -3746846.94347  20651111.013    20651116.890
       241.000         205.000
  20616621.975    -7609755.23749  -5937628.13447  20616621.270    20616626.936
       244.000         207.000
  21478791.534     5374240.23549   3934644.68847  21478791.132    21478797.315
       237.000         194.000
  23178199.053     1265939.63749    975398.01445  23178199.097    23178204.440
       221.000         162.000
  22166516.656    -1994802.19549  -1561651.39546  22166517.100    22166522.185
       232.000         179.000
  24304214.385    -2349557.74149  -1831371.55744  24304213.633    24304221.736
       209.000         128.000
  22726027.278     9084200.28949   6748366.07446  22726026.899    22726033.720
       227.000         177.000
  23842816.123    -1901401.53849  -1490482.58545  23842816.042    23842823.341
       217.000         153.000
 02  7 10 16 53 30.0000000  0 11G21G 2G18G17G15G 6G29G26G 3G23G22
  22416910.025   -13194190.31649 -10281605.89446  22416910.026    22416916.508
       235.000         181.000
  24866854.996     2132826.88649   1544394.30345  24866853.655    24866861.790
       209.000         146.000
  20470954.217   -10520910.49949  -8200096.69847  20470953.794    20470958.105
       242.000         212.000
  20649817.592    -4801455.29149  -3752145.23247  20649816.989    20649822.836
       241.000         204.000
  20612575.370    -7631020.24049  -5954198.26347  20612574.731    20612580.511
       244.000         208.000
  21493497.472     5451520.20949   3994862.81947  21493497.271    21493504.035
       237.000         194.000
  23189303.989     1324296.45249   1020870.81946  23189304.099    23189309.929
       222.000         163.000
  22175884.326    -1945575.32049  -1523292.81146  22175884.355    22175890.264
       231.000         179.000
  24285527.493    -2447758.07849  -1907891.26244  24285529.937    24285533.241
       210.000         130.000
  22740750.511     9161570.93449   6808654.84246  22740750.156    22740756.813
       229.000         177.000
  23849989.250    -1863707.34349  -1461110.52445  23849988.696    23849996.061
       217.000         152.000
 02  7 10 16 54  0.0000000  0 11G21G 2G18G17G15G 6G29G26G 3G23G22
  22406136.242   -13250807.46849 -10325723.10346  22406136.145    22406142.854
       234.000         183.000
  24864695.612     2121480.59849   1535553.03445  24864695.330    24864705.617
       208.000         144.000
  20467651.114   -10538268.20749  -8213622.17947  20467650.800    20467655.110
       242.000         212.000
  20648560.439    -4808061.69149  -3757293.08947  20648560.079    20648565.576
       241.000         204.000
  20608569.004    -7652073.90249  -5970603.71247  20608568.305    20608573.864
       244.000         208.000
  21508278.825     5529196.76449   4055389.95547  21508278.479    21508285.305
       237.000         194.000
  23200494.653     1383104.04349   1066694.86746  23200494.632    23200500.783
       219.000         163.000
  22185364.412    -1895757.05549  -1484473.40146  22185364.632    22185369.262
       231.000         179.000
  24266872.785    -2545788.00849  -1984278.16745  24266872.414    24266881.831
       204.000         134.000
  22755491.495     9239035.38749   6869016.71346  22755490.712    22755497.619
       227.000         176.000
  23857237.757    -1825615.72149  -1431428.84345  23857237.978    23857246.167
       218.000         153.000
 02  7 10 16 54 30.0000000  0 11G21G 2G18G17G15G 6G29G26G 3G23G22
  22395414.754   -13307148.79749 -10369625.40946  22395414.277    22395421.125
       234.000         184.000
  24862617.483     2110559.58349   1527043.10045  24862618.248    24862625.764
       207.000         143.000
  20464426.960   -10555211.53749  -8226824.77047  20464426.622    20464430.735
       242.000         212.000
  20647340.287    -4814474.02949  -3762289.72247  20647340.014    20647345.376
       241.000         204.000
  20604603.030    -7672915.08549  -5986843.59647  20604602.441    20604607.714
       244.000         208.000
  21523135.317     5607268.37549   4116224.91247  21523135.353    21523141.687
       237.000         193.000
  23211770.889     1442360.83649   1112868.95845  23211770.516    23211776.751
       221.000         162.000
  22194956.879    -1845348.84349  -1445194.30446  22194957.750    22194962.680
       230.000         178.000
  24248250.985    -2643644.75349  -2060530.09545  24248250.356    24248260.397
       203.000         135.000
  22770250.071     9316592.36749   6929450.66146  22770250.034    22770256.345
       229.000         176.000
  23864561.643    -1787128.64449  -1401439.00945  23864562.387    23864568.578
       218.000         152.000
 02  7 10 16 55  0.0000000  0 11G21G 2G18G17G15G 6G29G26G 3G23G22
  22384745.754   -13363214.88549 -10413313.23646  22384745.143    22384752.412
       233.000         185.000
  24860620.154     2100062.49049   1518863.54045  24860618.512    24860629.617
       203.000         140.000
  20461281.369   -10571741.77549  -8239705.47447  20461280.840    20461284.984
       241.000         212.000
  20646156.959    -4820692.39349  -3767135.20847  20646156.493    20646162.098
       241.000         204.000
  20600677.440    -7693543.87849  -6002917.98047  20600676.778    20600682.170
       244.000         208.000
  21538066.649     5685732.41949   4177365.66247  21538066.787    21538072.100
       238.000         193.000
  23223132.078     1502064.23149   1159391.05046  23223132.290    23223138.601
       221.000         163.000
  22204660.988    -1794353.41149  -1405457.61946  22204660.593    22204665.965
       228.000         177.000
  24229662.796    -2741326.61149  -2136645.73245  24229661.904    24229668.577
       204.000         134.000
  22785025.968     9394239.24549   6989954.68446  22785026.115    22785031.832
       230.000         177.000
  23871960.307    -1748249.23149  -1371143.41145  23871960.456    23871968.668
       216.000         152.000
 02  7 10 16 55 30.0000000  0 11G21G 2G18G17G15G 6G29G26G 3G23G22
  22374128.972   -13419005.82749 -10456786.67446  22374128.833    22374135.571
       232.000         185.000
  24858703.272     2089989.21249   1511014.16745  24858703.258    24858711.012
       204.000         138.000
  20458214.257   -10587859.32749  -8252264.59547  20458213.933    20458218.059
       241.000         211.000
  20645010.669    -4826715.92649  -3771828.87547  20645010.537    20645015.800
       241.000         204.000
  20596792.432    -7713959.68349  -6018826.39847  20596791.888    20596796.999
       244.000         208.000
  21553072.273     5764587.13649   4238810.81447  21553072.299    21553078.356
       236.000         192.000
  23234578.070     1562212.21749   1206259.55546  23234577.137    23234583.804
       219.000         163.000
  22214476.392    -1742772.37949  -1365264.64346  22214476.638    22214481.570
       229.000         176.000
  24211108.422    -2838831.14749  -2212623.26245  24211108.259    24211115.266
       202.000         132.000
  22799818.644     9471974.31249   7050527.42346  22799818.534    22799823.897
       229.000         177.000
  23879433.017    -1708979.55449  -1340543.75345  23879432.603    23879440.370
       213.000         152.000
 02  7 10 16 56  0.0000000  0 11G21G 2G18G17G15G 6G29G26G 3G23G22
  22363564.771   -13474520.95749 -10500045.18046  22363564.476    22363571.189
       234.000         184.000
  24856866.961     2080339.70549   1503495.07645  24856867.119    24856877.476
       207.000         135.000
  20455225.630   -10603564.58849  -8264502.46147  20455225.272    20455229.139
       241.000         211.000
  20643901.809    -4832543.23049  -3776369.63847  20643901.394    20643907.232
       241.000         204.000
  20592948.232    -7734161.08949  -6034567.75247  20592947.439    20592953.280
       244.000         208.000
  21568151.939     5843831.38949   4300559.51447  21568151.529    21568158.022
       235.000         191.000
  23246108.219     1622803.65449   1253473.60846  23246109.134    23246114.678
       221.000         163.000
  22224403.197    -1690607.11249  -1324616.40946  22224403.156    22224409.572
       230.000         177.000
  24192588.186    -2936155.29949  -2288460.16745  24192586.781    24192596.624
       204.000         132.000
  22814627.796     9549796.50749   7111168.05146  22814627.232    22814633.570
       229.000         176.000
  23886979.676    -1669321.27749  -1309641.26845  23886979.938    23886987.646
       215.000         151.000
 02  7 10 16 56 30.0000000  0 11G21G 2G18G17G15G 6G29G26G 3G23G22
  22353052.910   -13529761.26049 -10543089.53146  22353052.344    22353058.686
       234.000         183.000
  24855111.135     2071112.43449   1496304.96545  24855108.986    24855120.030
       205.000         135.000
  20452315.091   -10618859.40549  -8276420.49347  20452314.497    20452319.155
       240.000         211.000
  20642830.193    -4838174.93949  -3780757.99147  20642829.906    20642835.439
       242.000         204.000
  20589144.703    -7754148.84749  -6050142.62347  20589144.062    20589149.557
       244.000         208.000
  21583305.126     5923462.13449   4362609.39547  21583304.809    21583311.743
       235.000         191.000
  23257722.565     1683835.47149   1301030.83346  23257722.374    23257728.113
       220.000         163.000
  22234440.544    -1637860.64349  -1283515.29646  22234441.407    22234446.796
       230.000         178.000
  24174102.710    -3033297.65849  -2364155.48345  24174102.567    24174109.870
       208.000         132.000
  22829452.779     9627702.85949   7171874.25146  22829452.539    22829459.449
       226.000         175.000
  23894599.715    -1629278.13349  -1278438.87045  23894599.013    23894608.585
       213.000         151.000
 02  7 10 16 57  0.0000000  0 11G21G 2G18G17G15G 6G29G26G 3G23G22
  22342593.484   -13584725.72549 -10585918.92646  22342593.125    22342599.457
       235.000         183.000
  24853435.875     2062307.90049   1489444.27045  24853437.253    24853444.538
       203.000         134.000
  20449482.733   -10633743.28749  -8288018.32047  20449482.268    20449486.813
       241.000         211.000
  20641796.147    -4843609.06649  -3784992.38247  20641795.712    20641801.271
       242.000         204.000
  20585382.218    -7773921.12649  -6065549.58947  20585381.577    20585387.200
       244.000         208.000
  21598531.787     6003478.65649   4424959.88747  21598532.227    21598538.388
       235.000         192.000
  23269420.120     1745306.72649   1348930.47045  23269419.916    23269425.782
       221.000         162.000
  22244588.432    -1584533.81349  -1241961.95846  22244588.452    22244594.331
       230.000         178.000
  24155652.556    -3130255.00849  -2439706.59645  24155652.140    24155660.278
       209.000         134.000
  22844293.702     9705692.72449   7232645.53146  22844293.465    22844299.449
       227.000         174.000
  23902292.736    -1588851.21949  -1246937.44345  23902292.767    23902299.907
       215.000         151.000
 02  7 10 16 57 30.0000000  0 11G21G 2G18G17G15G 6G29G26G 3G23G22
  22332186.217   -13639416.48149 -10628535.03746  22332185.829    22332192.642
       234.000         182.000
  24851840.530     2053923.88149   1482911.23445  24851840.109    24851849.338
       204.000         134.000
  20446728.092   -10648218.98449  -8299298.08147  20446727.565    20446731.842
       241.000         211.000
  20640799.455    -4848846.95249  -3789073.85947  20640798.812    20640804.767
       241.000         204.000
  20581660.478    -7793479.04849  -6080789.52347  20581659.983    20581665.610
       245.000         208.000
  21613831.252     6083877.01149   4487607.89347  21613831.806    21613837.613
       237.000         193.000
  23281200.664     1807213.57749   1397169.51846  23281200.440    23281206.482
       221.000         163.000
  22254845.927    -1530630.32949  -1199959.26746  22254846.450    22254852.268
       229.000         178.000
  24137237.557    -3227026.65449  -2515113.06745  24137236.099    24137244.459
       204.000         133.000
  22859149.941     9783762.36749   7293478.97846  22859148.751    22859156.043
       228.000         175.000
  23910057.954    -1548044.85549  -1215140.31445  23910057.152    23910066.307
       212.000         151.000
 02  7 10 16 58  0.0000000  0 11G21G 2G18G17G15G 6G29G26G 3G23G22
  22321831.409   -13693830.91949 -10670935.85846  22321830.788    22321837.853
       234.000         182.000
  24850325.597     2045962.44449   1476707.48245  24850323.309    24850335.493
       203.000         132.000
  20444051.532   -10662284.52849  -8310258.24347  20444051.318    20444055.579
       241.000         211.000
  20639840.744    -4853884.89549  -3792999.53147  20639840.196    20639845.918
       240.000         204.000
  20577980.141    -7812819.50149  -6095860.00447  20577979.491    20577985.051
       244.000         209.000
  21629203.518     6164658.13849   4550554.16147  21629203.724    21629209.924
       236.000         193.000
  23293064.187     1869556.69549   1445748.55345  23293063.078    23293070.426
       219.000         162.000
  22265213.312    -1476149.48849  -1157506.69646  22265213.423    22265218.877
       230.000         178.000
  24118858.214    -3323607.54249  -2590370.84645  24118856.603    24118867.030
       203.000         132.000
  22874021.478     9861912.90149   7354375.45046  22874021.305    22874027.657
       228.000         175.000
  23917895.457    -1506858.59949  -1183047.18845  23917894.746    23917902.975
       214.000         152.000
 02  7 10 16 58 30.0000000  0 11G21G 2G18G17G15G 6G29G26G 3G23G22
  22311529.200   -13747969.18449 -10713121.48946  22311528.210    22311535.923
       232.000         183.000
  24848891.021     2038422.90849   1470832.48445  24848892.100    24848899.564
       205.000         134.000
  20441452.788   -10675940.92549  -8320899.58447  20441452.357    20441456.608
       241.000         211.000
  20638920.140    -4858722.45849  -3796769.06547  20638919.593    20638925.327
       240.000         203.000
  20574341.243    -7831941.84649  -6110760.52547  20574340.700    20574346.449
       244.000         208.000
  21644648.176     6245820.02249   4613797.11847  21644648.282    21644653.673
       234.000         191.000
  23305010.121     1932334.05549   1494665.93246  23305010.407    23305016.511
       222.000         163.000
  22275690.174    -1421093.44449  -1114605.92046  22275690.300    22275697.266
       227.000         178.000
  24100516.177    -3419995.43649  -2665478.24044  24100518.029    24100523.187
       205.000         131.000
  22888908.160     9940142.36449   7415333.42646  22888907.979    22888913.731
       228.000         175.000
  23925804.893    -1465295.05849  -1150660.07145  23925803.241    23925813.322
       214.000         153.000
 02  7 10 16 59  0.0000000  0 11G21G 2G18G17G15G 6G29G26G 3G23G22
  22301279.300   -13801832.11749 -10755092.56546  22301278.156    22301285.218
       232.000         184.000
  24847536.209     2031303.73649   1465285.02645  24847537.098    24847542.915
       205.000         133.000
  20438931.652   -10689189.69349  -8331223.30347  20438931.492    20438935.530
       241.000         211.000
  20638037.688    -4863359.80049  -3800382.58047  20638037.154    20638043.042
       241.000         204.000
  20570743.833    -7850846.13849  -6125491.14647  20570743.191    20570748.974
       244.000         208.000
  21660164.570     6327359.80949   4677334.55647  21660163.741    21660169.796
       234.000         188.000
  23317038.552     1995542.69249   1543919.35546  23317038.500    23317045.129
       221.000         164.000
  22286275.928    -1365465.10249  -1071259.18346  22286276.542    22286282.205
       228.000         177.000
  24082211.356    -3516188.88349  -2740434.09445  24082211.172    24082219.448
       209.000         134.000
  22903809.320    10018448.26649   7476350.96846  22903809.313    22903815.697
       228.000         174.000
  23933785.436    -1423357.43949  -1117981.48445  23933784.945    23933793.663
       216.000         154.000
 02  7 10 16 59 30.0000000  0 11G21G 2G18G17G15G 6G29G26G 3G23G22
  22291081.664   -13855420.77649 -10796849.94746  22291080.986    22291087.806
       234.000         185.000
  24846261.241     2024603.40349   1460063.95545  24846257.404    24846270.022
       203.000         135.000
  20436487.772   -10702032.63649  -8341230.79147  20436487.404    20436491.823
       241.000         212.000
  20637193.352    -4867796.95349  -3803840.11447  20637193.059    20637198.651
       241.000         204.000
  20567187.892    -7869532.81249  -6140052.19347  20567187.143    20567192.849
       244.000         208.000
  21675752.336     6409274.54849   4741164.15847  21675752.079    21675758.640
       234.000         188.000
  23329148.276     2059179.48449   1593506.41746  23329148.137    23329154.818
       219.000         164.000
  22296970.094    -1309267.52249  -1027468.90546  22296971.158    22296976.250
       229.000         177.000
  24063943.833    -3612186.26449  -2815237.18345  24063942.389    24063950.614
       206.000         136.000
  22918724.493    10096827.95849   7537425.99646  22918724.947    22918730.428
       229.000         175.000
  23941836.593    -1381049.23749  -1085014.11845  23941836.292    23941845.064
       216.000         154.000
 02  7 10 17  0  0.0000000  0 11G21G 2G18G17G15G 6G29G26G 3G23G22
  22280936.664   -13908732.82049 -10838391.76446  22280936.069    22280943.128
       234.000         186.000
  24845066.175     2018323.69349   1455170.62445  24845066.988    24845075.710
       212.000         137.000
  20434121.328   -10714468.29549  -8350920.91647  20434120.962    20434124.976
       241.000         212.000
  20636387.720    -4872031.00949  -3807139.38347  20636387.456    20636392.468
       242.000         204.000
  20563673.905    -7887998.64049  -6154441.15147  20563673.095    20563679.189
       244.000         208.000
  21691411.735     6491564.74349   4805286.32647  21691412.038    21691417.978
       235.000         189.000
  23341339.285     2123244.83749   1643427.42446  23341339.617    23341345.705
       217.000         163.000
  22307772.674    -1252500.24449   -983234.69746  22307773.160    22307778.813
       227.000         177.000
  24045714.106    -3707982.96049  -2889883.88645  24045712.400    24045721.552
       203.000         135.000
  22933653.980    10175282.13649   7598559.06446  22933653.592    22933659.983
       228.000         175.000
  23949958.147    -1338370.43149  -1051757.97945  23949957.220    23949964.662
       214.000         150.000
 02  7 10 17  0 30.0000000  0 11G21G 2G18G17G15G 6G29G26G 3G23G22
  22270844.115   -13961769.57849 -10879719.06046  22270843.916    22270850.541
       236.000         187.000
  24843951.158     2012462.96749   1450603.76845  24843949.482    24843959.924
       210.000         135.000
  20431832.063   -10726498.56349  -8360295.14647  20431831.657    20431835.938
       241.000         212.000
  20635620.600    -4876062.18349  -3810280.56047  20635620.077    20635625.561
       241.000         204.000
  20560202.013    -7906243.78749  -6168658.14647  20560201.379    20560207.045
       244.000         209.000
  21707142.213     6574227.61249   4869698.88747  21707142.838    21707148.626
       236.000         191.000
  23353611.167     2187735.97249   1693680.21645  23353610.752    23353617.585
       217.000         161.000
  22318682.904    -1195166.25649   -938558.89446  22318682.787    22318688.997
       229.000         175.000
  24027523.020    -3803577.18849  -2964372.83344  24027523.182    24027529.258
       204.000         131.000
  22948597.031    10253808.01049   7659748.01246  22948596.897    22948602.982
       227.000         174.000
  23958149.476    -1295324.47649  -1018215.73645  23958149.138    23958158.092
       213.000         148.000
 02  7 10 17  1  0.0000000  0 11G21G 2G18G17G15G 6G29G26G 3G23G22
  22260803.831   -14014531.68549 -10920832.34746  22260803.297    22260810.172
       236.000         186.000
  24842915.252     2007019.94049   1446362.39645  24842913.909    24842924.354
       208.000         134.000
  20429619.639   -10738124.81149  -8369354.55447  20429619.219    20429623.432
       240.000         212.000
  20634892.130    -4879890.04749  -3813263.31447  20634891.642    20634897.266
       241.000         204.000
  20556772.045    -7924268.30349  -6182703.22247  20556771.483    20556777.461
       243.000         208.000
  21722943.028     6657260.62649   4934399.87647  21722942.890    21722949.420
       235.000         191.000
  23365964.067     2252650.16549   1744262.65945  23365964.689    23365971.776
       219.000         162.000
  22329700.505    -1137268.35049   -893443.67546  22329700.340    22329707.183
       227.000         176.000
  24009371.189    -3898967.24549  -3038702.68444  24009371.678    24009377.040
       208.000         130.000
  22963553.177    10332403.26249   7720991.03346  22963552.793    22963560.046
       226.000         173.000
  23966410.145    -1251914.22649   -984389.68645  23966409.590    23966417.009
       211.000         145.000
 02  7 10 17  1 30.0000000  0 11G21G 2G18G17G15G 6G29G26G 3G23G22
  22250815.746   -14067019.29249 -10961731.73246  22250814.961    22250822.109
       234.000         185.000
  24841958.663     2001993.55549   1442445.68245  24841958.530    24841967.228
       211.000         136.000
  20427483.962   -10749348.08449  -8378099.95947  20427483.497    20427487.737
       241.000         212.000
  20634202.455    -4883514.33949  -3816087.43747  20634202.179    20634207.873
       241.000         204.000
  20553384.074    -7942071.92549  -6196576.16947  20553383.589    20553389.280
       244.000         209.000
  21738813.651     6740661.28749   4999387.34247  21738813.243    21738819.775
       234.000         189.000
  23378396.820     2317984.74849   1795172.68146  23378397.802    23378402.214
       221.000         163.000
  22340824.907    -1078808.88849   -847890.87446  22340824.979    22340830.144
       229.000         175.000
  23991258.488    -3994151.05549  -3112871.82944  23991257.918    23991264.526
       206.000         128.000
  22978522.183    10411065.93449   7782286.57046  22978521.431    22978527.778
       224.000         173.000
  23974739.602    -1208142.63549   -950282.00745  23974738.664    23974748.529
       210.000         142.000
 02  7 10 17  2  0.0000000  0 11G21G 2G18G17G15G 6G29G26G 3G23G22
  22240880.111   -14119231.06349 -11002416.19246  22240879.090    22240885.905
       233.000         184.000
  24841081.766     1997384.81349   1438854.40045  24841082.057    24841091.895
       211.000         136.000
  20425425.035   -10760167.59149  -8386530.74047  20425424.493    20425428.841
       241.000         211.000
  20633552.075    -4886932.59449  -3818751.01647  20633551.869    20633557.480
       243.000         205.000
  20550038.646    -7959652.15749  -6210275.05447  20550038.055    20550043.905
       244.000         209.000
  21754754.169     6824429.29749   5064661.06146  21754754.317    21754759.838
       234.000         187.000
  23390909.640     2383739.54449   1846410.13745  23390909.940    23390915.398
       219.000         162.000
  22352056.355    -1019788.36349   -801900.91146  22352056.433    22352061.674
       228.000         175.000
  23973186.006    -4089124.26449  -3186876.89544  23973185.139    23973192.696
       208.000         130.000
  22993504.004    10489796.14449   7843634.73846  22993504.128    22993509.700
       227.000         173.000
  23983137.755    -1164010.49649   -915893.42045  23983134.831    23983146.125
       210.000         141.000
 02  7 10 17  2 30.0000000  0 11G21G 2G18G17G15G 6G29G26G 3G23G22
  22230996.626   -14171168.57949 -11042886.95746  22230996.012    22231003.420
       234.000         184.000
  24840283.896     1993191.99149   1435587.21045  24840284.189    24840293.008
       211.000         137.000
  20423442.557   -10770585.65849  -8394648.71147  20423442.385    20423446.308
       242.000         212.000
  20632940.755    -4890145.17849  -3821254.33547  20632940.622    20632945.938
       243.000         205.000
  20546735.676    -7977009.61449  -6223800.34147  20546735.091    20546741.133
       244.000         209.000
  21770764.066     6908561.50549   5130218.57146  21770764.194    21770769.778
       235.000         187.000
  23403501.626     2449911.21449   1897972.44246  23403501.523    23403508.192
       220.000         163.000
  22363393.701     -960210.06649   -755476.30346  22363394.404    22363399.821
       229.000         175.000
  23955153.478    -4183885.76149  -3260716.96644  23955152.953    23955158.598
       206.000         131.000
  23008498.401    10568590.99649   7905033.29346  23008498.488    23008503.878
       229.000         173.000
  23991603.679    -1119521.33149   -881226.62945  23991603.069    23991611.434
       210.000         141.000
 02  7 10 17  3  0.0000000  0 11G21G 2G18G17G15G 6G29G26G 3G23G22
  22221165.314   -14222831.91849 -11083144.06146  22221164.738    22221171.332
       234.000         185.000
  24839564.819     1989413.89049   1432643.17845  24839564.208    24839573.596
       212.000         137.000
  20421536.283   -10780603.29949  -8402454.66147  20421535.555    20421540.078
       241.000         211.000
  20632368.654    -4893151.54149  -3823596.96847  20632368.199    20632373.464
       242.000         205.000
  20543475.170    -7994143.84849  -6237151.69347  20543474.549    20543480.223
       244.000         209.000
  21786842.859     6993055.61649   5196058.05746  21786843.082    21786848.489
       235.000         187.000
  23416172.597     2516497.61749   1949857.91346  23416173.271    23416178.979
       219.000         163.000
  22374836.682     -900076.49949   -708619.00746  22374837.123    22374842.945
       226.000         175.000
  23937161.634    -4278433.33549  -3334390.33945  23937161.238    23937167.553
       206.000         135.000
  23023504.783    10647448.58849   7966480.71046  23023504.689    23023510.714
       228.000         174.000
  24000137.282    -1074678.00749   -846283.84145  24000136.901    24000145.955
       212.000         143.000
 02  7 10 17  3 30.0000000  0 11G21G 2G18G17G15G 6G29G26G 3G23G22
  22211386.307   -14274220.87249 -11123187.38046  22211386.047    22211393.007
       235.000         187.000
  24838925.075     1986050.55749   1430022.33645  24838923.761    24838935.371
       210.000         139.000
  20419706.123   -10790220.53249  -8409948.60247  20419705.772    20419709.850
       241.000         211.000
  20631836.153    -4895950.22649  -3825777.77347  20631835.857    20631841.123
       243.000         205.000
  20540257.482    -8011053.23949  -6250327.84347  20540256.996    20540262.692
       245.000         209.000
  21802990.316     7077910.40549   5262178.59346  21802990.714    21802996.101
       235.000         187.000
  23428922.322     2583496.98449   2002065.15546  23428923.204    23428929.488
       221.000         163.000
  22386385.043     -839389.12749   -661330.18846  22386385.967    22386391.249
       228.000         174.000
  23919210.842    -4372763.91549  -3407894.63345  23919209.816    23919217.253
       206.000         134.000
  23038522.736    10726368.03949   8027976.33146  23038522.703    23038528.302
       228.000         173.000
  24008737.917    -1029482.16549   -811066.36345  24008737.077    24008746.221
       212.000         146.000
 02  7 10 17  4  0.0000000  0 11G21G 2G18G17G15G 6G29G26G 3G23G22
  22201659.651   -14325334.82249 -11163016.39647  22201659.311    22201666.035
       237.000         188.000
  24838364.004     1983101.77349   1427724.54145  24838364.408    24838372.276
       213.000         139.000
  20417952.125   -10799438.07549  -8417131.10247  20417951.596    20417955.886
       240.000         211.000
  20631343.385    -4898540.06149  -3827795.83647  20631342.849    20631348.506
       242.000         205.000
  20537082.782    -8027736.64249  -6263327.89947  20537082.164    20537087.707
       245.000         209.000
  21819206.035     7163124.30649   5328578.95246  21819206.218    21819212.003
       235.000         187.000
  23441750.304     2650907.88749   2054593.08446  23441750.154    23441756.040
       220.000         163.000
  22398038.708     -778149.54649   -613611.09346  22398039.260    22398044.549
       226.000         173.000
  23901301.934    -4466874.72749  -3481227.67145  23901300.184    23901309.944
       202.000         135.000
  23053552.133    10805348.07849   8089519.16146  23053551.958    23053559.174
       226.000         173.000
  24017405.117     -983936.02849   -775575.95845  24017404.467    24017413.361
       215.000         148.000
 02  7 10 17  4 30.0000000  0 11G21G 2G18G17G15G 6G29G26G 3G23G22
  22191985.131   -14376175.29949 -11202632.31647  22191984.529    22191991.605
       235.000         189.000
  24837881.201     1980565.20249   1425747.90745  24837881.233    24837890.327
       214.000         140.000
  20416273.649   -10808258.10549  -8424003.84447  20416273.448    20416277.575
       241.000         211.000
  20630890.231    -4900921.44849  -3829651.47547  20630889.892    20630895.171
       242.000         205.000
  20533950.921    -8044194.76249  -6276152.40847  20533950.142    20533955.901
       244.000         209.000
  21835489.381     7248693.83849   5395256.46446  21835489.325    21835495.838
       232.000         187.000
  23454655.870     2718726.70749   2107438.87046  23454655.890    23454661.856
       220.000         164.000
  22409796.660     -716361.36649   -565464.49946  22409795.711    22409803.185
       225.000         173.000
  23883434.912    -4560764.58649  -3554388.55245  23883434.952    23883442.246
       204.000         134.000
  23068592.532    10884385.79249   8151106.92546  23068591.766    23068598.849
       225.000         172.000
  24026138.200     -938043.26349   -739815.42645  24026136.942    24026147.708
       214.000         150.000
 02  7 10 17  5  0.0000000  0 11G21G 2G18G17G15G 6G29G26G 3G23G22
  22182362.550   -14426742.13049 -11242035.00147  22182362.120    22182368.400
       236.000         188.000
  24837477.016     1978440.42349   1424092.17645  24837476.513    24837486.741
       212.000         140.000
  20414670.874   -10816681.16149  -8430567.26547  20414670.548    20414674.567
       240.000         211.000
  20630476.914    -4903093.44649  -3831343.94847  20630476.358    20630481.794
       242.000         205.000
  20530862.056    -8060426.64149  -6288800.62847  20530861.320    20530867.002
       244.000         209.000
  21851840.031     7334617.14949   5462209.63646  21851840.036    21851846.667
       232.000         186.000
  23467638.939     2786951.56449   2160601.04446  23467639.841    23467646.162
       223.000         165.000
  22421658.344     -654026.83449   -516892.18946  22421658.379    22421664.939
       225.000         173.000
  23865610.408    -4654430.81349  -3627375.17145  23865610.042    23865617.814
       206.000         137.000
  23083643.656    10963479.75649   8212738.53646  23083643.266    23083650.313
       225.000         172.000
  24034936.902     -891806.44249   -703786.80345  24034937.289    24034944.899
       215.000         151.000
 02  7 10 17  5 30.0000000  0 11G21G 2G18G17G15G 6G29G26G 3G23G22
  22172792.255   -14477034.35049 -11281223.72047  22172791.306    22172798.396
       234.000         188.000
  24837151.376     1976727.93049   1422757.73945  24837149.739    24837161.496
       211.000         142.000
  20413143.511   -10824707.17549  -8436821.29747  20413143.135    20413147.314
       241.000         211.000
  20630103.805    -4905054.16049  -3832871.78547  20630103.237    20630109.021
       243.000         205.000
  20527816.647    -8076430.28049  -6301270.99747  20527816.209    20527821.555
       244.000         208.000
  21868257.910     7420893.44849   5529437.85546  21868257.810    21868264.382
       232.000         185.000
  23480699.005     2855581.54249   2214078.90946  23480699.340    23480704.473
       222.000         165.000
  22433624.013     -591146.80149   -467894.79146  22433623.785    22433630.267
       225.000         173.000
  23847829.443    -4747869.53549  -3700184.52345  23847829.381    23847836.839
       208.000         139.000
  23098705.333    11042629.79549   8274413.84646  23098704.480    23098711.290
       224.000         170.000
  24043800.821     -845226.64249   -667490.89745  24043799.274    24043809.718
       215.000         150.000
 02  7 10 17  6  0.0000000  0 11G21G 2G18G17G15G 6G29G26G 3G23G22
  22163274.006   -14527052.73649 -11320199.04346  22163273.135    22163280.415
       234.000         186.000
  24836903.998     1975426.19449   1421743.36145  24836903.490    24836911.586
       209.000         141.000
  20411691.527   -10832337.38649  -8442766.91447  20411691.420    20411695.502
       241.000         212.000
  20629771.029    -4906802.95249  -3834234.49647  20629770.407    20629776.138
       242.000         205.000
  20524814.743    -8092205.45249  -6313563.34347  20524814.297    20524819.617
       244.000         208.000
  21884742.465     7507520.25149   5596939.17546  21884742.708    21884747.991
       233.000         185.000
  23493835.689     2924614.01849   2267870.42346  23493835.676    23493841.393
       222.000         164.000
  22445693.006     -527724.06749   -418474.51246  22445692.410    22445699.592
       225.000         172.000
  23830091.991    -4841078.62449  -3772814.96745  23830091.711    23830099.920
       203.000         140.000
  23113777.330    11121833.71849   8336131.12746  23113776.845    23113783.357
       225.000         169.000
  24052729.393     -798307.04749   -630930.22645  24052729.582    24052736.460
       217.000         151.000
 02  7 10 17  6 30.0000000  0 11G21G 2G18G17G15G 6G29G26G 3G23G22
  22153807.706   -14576798.26449 -11358961.75846  22153807.158    22153814.100
       234.000         186.000
  24836734.183     1974533.85149   1421047.96645  24836734.976    24836743.289
       210.000         141.000
  20410314.582   -10839573.43449  -8448405.39247  20410314.144    20410318.386
       241.000         212.000
  20629478.544    -4908339.74549  -3835432.00447  20629477.930    20629483.669
       242.000         205.000
  20521856.428    -8107751.72949  -6325677.32647  20521855.705    20521861.331
       244.000         208.000
  21901293.368     7594494.85849   5664711.50746  21901292.930    21901299.013
       234.000         185.000
  23507048.291     2994046.31849   2321973.46446  23507047.470    23507054.190
       219.000         163.000
  22457864.632     -463761.41949   -368633.53646  22457865.333    22457870.069
       227.000         172.000
  23812398.727    -4934056.36549  -3845265.09845  23812399.159    23812406.778
       203.000         139.000
  23128859.296    11201089.38449   8397888.74946  23128859.194    23128865.559
       225.000         171.000
  24061722.008     -751050.59649   -594107.07045  24061720.448    24061729.647
       211.000         149.000
 02  7 10 17  7  0.0000000  0 11G21G 2G18G17G15G 6G29G26G 3G23G22
  22144393.558   -14626269.54349 -11397510.76846  22144393.166    22144399.655
       236.000         187.000
  24836642.298     1974051.55049   1420672.11945  24836641.081    24836649.090
       208.000         138.000
  20409012.735   -10846414.77349  -8453736.30647  20409012.595    20409016.749
       241.000         212.000
  20629226.909    -4909662.14549  -3836462.46447  20629226.284    20629231.685
       241.000         205.000
  20518942.004    -8123067.06949  -6337611.35647  20518941.542    20518946.923
       244.000         208.000
  21917910.163     7681816.52149   5732754.27846  21917909.827    21917916.241
       232.000         185.000
  23520336.737     3063877.60049   2376387.41645  23520336.700    23520343.230
       220.000         162.000
  22470139.042     -399259.80749   -318372.58346  22470138.177    22470145.897
       226.000         172.000
  23794750.463    -5026798.92549  -3917531.98445  23794749.448    23794759.315
       203.000         138.000
  23143950.987    11280396.72849   8459686.61446  23143950.926    23143956.858
       225.000         172.000
  24070778.451     -703458.55449   -557022.43445  24070778.467    24070787.554
       215.000         148.000
 02  7 10 17  7 30.0000000  0 11G21G 2G18G17G15G 6G29G26G 3G23G22
  22135031.405   -14675468.16049 -11435847.32347  22135030.857    22135038.024
       236.000         188.000
  24836628.426     1973976.95449   1420613.97045  24836625.282    24836637.435
       205.000         139.000
  20407785.613   -10852863.63049  -8458761.39447  20407785.124    20407789.413
       240.000         212.000
  20629015.854    -4910770.88649  -3837326.43747  20629015.440    20629020.969
       242.000         204.000
  20516071.379    -8138152.13149  -6349365.95747  20516070.760    20516076.313
       244.000         208.000
  21934592.315     7769481.79549   5801064.80846  21934592.258    21934598.371
       231.000         184.000
  23533700.534     3134104.43949   2431109.57345  23533700.698    23533705.882
       219.000         161.000
  22482515.146     -334222.86849   -267694.47746  22482515.319    22482521.795
       227.000         173.000
  23777147.161    -5119305.12149  -3989614.65645  23777147.823    23777155.795
       202.000         137.000
  23159051.927    11359752.81149   8521522.46246  23159050.993    23159058.354
       226.000         171.000
  24079898.155     -655534.79549   -519679.30845  24079897.104    24079907.029
       211.000         146.000
 02  7 10 17  8  0.0000000  0 11G21G 2G18G17G15G 6G29G26G 3G23G22
  22125721.202   -14724393.42749 -11473970.85947  22125720.922    22125727.122
       238.000         189.000
  24836691.849     1974309.93349   1420873.37745  24836691.236    24836700.741
       202.000         137.000
  20406632.964   -10858920.63449  -8463481.13347  20406632.662    20406636.826
       241.000         212.000
  20628845.760    -4911664.49149  -3838022.76247  20628845.188    20628851.220
       242.000         205.000
  20513244.817    -8153005.70249  -6360940.17547  20513244.047    20513249.853
       244.000         208.000
  21951339.545     7857489.32649   5869642.03146  21951339.684    21951346.181
       231.000         184.000
  23547139.335     3204725.06449   2486138.57845  23547139.195    23547145.223
       219.000         162.000
  22494993.001     -268652.44249   -216600.68946  22494993.280    22494999.106
       229.000         173.000
  23759589.478    -5211571.89549  -4061510.79445  23759588.319    23759597.621
       208.000         135.000
  23174162.043    11439156.58949   8583395.48746  23174162.001    23174167.278
       226.000         170.000
  24089080.493     -607281.30749   -482079.26545  24089079.867    24089089.613
       214.000         146.000
 02  7 10 17  8 30.0000000  0 11G21G 2G18G17G15G 6G29G26G 3G23G22
  22116462.938   -14773046.31849 -11511882.17547  22116462.432    22116469.119
       236.000         189.000
  24836832.348     1975049.16549   1421449.36345  24836831.240    24836841.607
       199.000         136.000
  20405554.755   -10864586.95649  -8467896.45447  20405554.429    20405558.595
       241.000         212.000
  20628716.773    -4912342.44149  -3838551.04547  20628716.307    20628722.184
       242.000         205.000
  20510462.454    -8167627.13349  -6372333.50447  20510461.823    20510467.755
       244.000         208.000
  21968151.537     7945836.65649   5938484.03946  21968151.655    21968158.111
       231.000         184.000
  23560652.469     3275737.03949   2541472.53346  23560651.590    23560659.656
       218.000         164.000
  22507571.825     -202551.07649   -165093.15646  22507572.452    22507578.530
       228.000         174.000
  23742078.233    -5303596.91749  -4133218.56145  23742079.001    23742084.617
       207.000         135.000
  23189281.029    11518606.17749   8645304.21146  23189280.415    23189286.658
       225.000         170.000
  24098325.060     -558701.05049   -444224.61445  24098323.338    24098333.602
       212.000         144.000
 02  7 10 17  9  0.0000000  0 11G21G 2G18G17G15G 6G29G26G 3G23G22
  22107256.283   -14821427.37449 -11549581.65247  22107255.505    22107262.805
       236.000         189.000
  24837050.235     1976193.41549   1422340.93145  24837050.118    24837057.966
       200.000         137.000
  20404550.536   -10869863.80149  -8472008.27847  20404550.004    20404554.506
       241.000         212.000
  20628629.044    -4912803.89949  -3838910.63947  20628628.648    20628634.341
       243.000         205.000
  20507724.446    -8182015.71549  -6383545.39347  20507723.848    20507729.775
       245.000         208.000
  21985027.812     8034521.38049   6007588.94946  21985028.591    21985034.365
       234.000         185.000
  23574239.432     3347137.95949   2597109.54946  23574239.384    23574246.066
       220.000         165.000
  22520251.226     -135921.40849   -113173.98446  22520250.795    22520256.729
       227.000         173.000
  23724613.155    -5395377.74549  -4204736.01745  23724613.722    23724621.556
       209.000         136.000
  23204408.157    11598099.81549   8707247.26046  23204407.133    23204414.941
       223.000         169.000
  24107631.275     -509796.77249   -406117.46445  24107631.504    24107638.397
       213.000         143.000
 02  7 10 17  9 30.0000000  0 11G21G 2G18G17G15G 6G29G26G 3G23G22
  22098101.482   -14869536.03449 -11587068.88447  22098100.833    22098107.788
       235.000         188.000
  24837344.973     1977742.14949   1423547.69445  24837345.024    24837355.138
       205.000         137.000
  20403620.436   -10874751.58149  -8475816.94447  20403620.258    20403624.155
       242.000         212.000
  20628582.711    -4913047.80549  -3839100.70547  20628582.120    20628587.934
       242.000         205.000
  20505030.964    -8196170.37449  -6394575.00247  20505030.333    20505035.923
       245.000         208.000
  22001967.941     8123541.52049   6076955.21246  22001967.945    22001973.993
       233.000         184.000
  23587900.236     3418925.98749   2653048.22646  23587900.386    23587905.882
       219.000         163.000
  22533030.662      -68765.37349    -60844.64246  22533030.737    22533037.072
       229.000         173.000
  23707194.802    -5486911.85349  -4276061.23645  23707194.491    23707200.369
       205.000         135.000
  23219543.322    11677636.53049   8769223.85246  23219541.316    23219550.225
       220.000         168.000
  24116998.785     -460570.56849   -367759.46545  24116998.309    24117007.734
       211.000         145.000
 02  7 10 17 10  0.0000000  0 11G21G 2G18G17G15G 6G29G26G 3G23G22
  22088998.642   -14917371.23549 -11624343.04046  22088997.395    22089004.921
       234.000         187.000
  24837717.085     1979695.78249   1425069.95045  24837713.888    24837723.992
       198.000         135.000
  20402764.391   -10879250.29249  -8479322.43447  20402763.870    20402768.383
       241.000         212.000
  20628578.040    -4913071.91249  -3839119.50347  20628577.383    20628583.267
       242.000         205.000
  20502382.383    -8210089.02649  -6405420.70347  20502381.607    20502387.563
       244.000         208.000
  22018971.618     8212896.34149   6146582.25646  22018971.213    22018977.383
       231.000         182.000
  23601634.415     3491100.05549   2709287.70945  23601634.448    23601640.459
       216.000         160.000
  22545910.002       -1084.12649     -8106.06146  22545910.271    22545916.730
       226.000         173.000
  23689824.116    -5578195.36149  -4347191.17945  23689822.927    23689830.022
       209.000         137.000
  23234686.615    11757216.19449   8831233.92846  23234685.542    23234693.693
       222.000         168.000
  24126427.375     -411023.80949   -329151.67945  24126427.682    24126434.927
       209.000         148.000
 02  7 10 17 10 30.0000000  0 11G21G 2G18G17G15G 6G29G26G 3G23G22
  22079947.568   -14964934.50949 -11661405.29047  22079947.410    22079953.759
       236.000         188.000
  24838165.246     1982051.99649   1426905.93345  24838164.896    24838174.082
       200.000         134.000
  20401981.903   -10883362.15549  -8482526.48447  20401981.772    20401985.650
       241.000         212.000
  20628615.156    -4912876.74849  -3838967.44047  20628614.767    20628620.299
       243.000         205.000
  20499778.458    -8223772.43449  -6416083.09747  20499777.729    20499783.635
       243.000         208.000
  22036038.272     8302582.46649   6216467.46246  22036038.248    22036044.227
       231.000         181.000
  23615441.356     3563656.79549   2765825.37845  23615439.621    23615448.003
       211.000         156.000
  22558888.585       67118.61449     45038.89746  22558889.216    22558894.422
       226.000         173.000
  23672501.122    -5669227.41349  -4418125.20245  23672500.199    23672507.987
       210.000         139.000
  23249837.996    11836835.96549   8893275.25646  23249837.772    23249845.078
       225.000         168.000
  24135915.972     -361160.52449   -290297.22645  24135915.004    24135924.809
       210.000         146.000
 02  7 10 17 11  0.0000000  0 11G21G 2G18G17G15G 6G29G26G 3G23G22
  22070948.213   -15012226.45149 -11698256.11747  22070947.491    22070954.395
       236.000         189.000
  24838690.185     1984810.18349   1429055.11944  24838687.165    24838696.274
       203.000         130.000
  20401272.937   -10887087.97849  -8485429.72947  20401272.493    20401276.557
       241.000         212.000
  20628694.312    -4912461.24549  -3838643.68547  20628694.002    20628699.471
       243.000         205.000
  20497219.493    -8237219.30349  -6426561.17947  20497218.761    20497224.512
       243.000         208.000
  22053167.702     8392598.07349   6286609.40846  22053167.760    22053173.674
       231.000         181.000
  23629320.484     3636594.13949   2822659.58345  23629320.552    23629328.806
       214.000         155.000
  22571965.863      135840.62149     98588.47046  22571965.653    22571971.519
       224.000         171.000
  23655226.399    -5760004.94049  -4488860.88445  23655226.607    23655234.339
       208.000         141.000
  23264996.748    11916494.59149   8955346.85746  23264996.028    23265002.892
       226.000         169.000
  24145464.547     -310983.02649   -251197.95345  24145463.813    24145473.294
       211.000         148.000
 02  7 10 17 11 30.0000000  0 11G21G 2G18G17G15G 6G29G26G 3G23G22
  22062000.444   -15059247.38049 -11734895.77047  22062000.215    22062006.534
       237.000         189.000
  24839291.170     1987969.03549   1431516.53645  24839288.608    24839301.711
       203.000         134.000
  20400637.116   -10890428.98749  -8488033.11147  20400636.813    20400641.126
       241.000         212.000
  20628815.458    -4911824.65349  -3838147.65147  20628814.969    20628820.938
       241.000         205.000
  20494705.716    -8250429.06449  -6436854.50047  20494705.061    20494710.959
       244.000         208.000
  22070359.515     8482940.65149   6357006.15546  22070360.198    22070366.264
       233.000         182.000
  23643272.197     3709909.68449   2879788.52845  23643272.683    23643279.367
       217.000         156.000
  22585141.447      205079.12749    152540.49846  22585141.742    22585148.366
       225.000         171.000
  23638000.582    -5850525.61249  -4559396.42745  23637998.434    23638007.701
       205.000         138.000
  23280162.494    11996190.35149   9017447.38046  23280162.199    23280168.920
       226.000         171.000
  24155072.332     -260494.23549   -211856.11545  24155071.442    24155079.836
       208.000         146.000
 02  7 10 17 12  0.0000000  0 11G21G 2G18G17G15G 6G29G26G 3G23G22
  22053104.149   -15105998.10749 -11771324.86547  22053103.634    22053110.292
       237.000         190.000
  24839968.150     1991526.77249   1434288.76345  24839969.197    24839974.183
       210.000         136.000
  20400074.298   -10893386.90149  -8490337.97547  20400073.833    20400078.158
       240.000         212.000
  20628978.680    -4910966.76349  -3837479.18247  20628978.385    20628983.929
       242.000         206.000
  20492237.132    -8263401.76049  -6446963.08547  20492236.630    20492242.247
       244.000         208.000
  22087613.013     8573607.34649   6427655.45846  22087612.954    22087619.778
       233.000         184.000
  23657295.387     3783600.25849   2937209.71245  23657296.584    23657303.067
       220.000         160.000
  22598414.794      274831.10049    206892.63146  22598413.824    22598421.467
       224.000         170.000
  23620824.157    -5940787.75849  -4629730.49245  23620823.234    23620831.318
       203.000         137.000
  23295334.883    12075921.04549   9079575.12546  23295333.646    23295342.196
       224.000         171.000
  24164738.649     -209697.38049   -172274.19445  24164738.220    24164747.367
       207.000         145.000
 02  7 10 17 12 30.0000000  0 11G21G 2G18G17G15G 6G29G26G 3G23G22
  22044259.280   -15152477.83449 -11807542.80447  22044258.377    22044265.670
       237.000         190.000
  24840721.483     1995483.80649   1437372.10145  24840720.057    24840729.075
       210.000         138.000
  20399584.363   -10895961.47849  -8492344.14247  20399583.882    20399587.800
       240.000         211.000
  20629184.458    -4909885.62549  -3836636.75047  20629183.623    20629189.710
       242.000         206.000
  20489814.045    -8276135.24449  -6456885.27947  20489813.497    20489819.293
       244.000         208.000
  22104928.024     8664597.35949   6498556.69646  22104928.217    22104935.151
       231.000         184.000
  23671389.798     3857665.24149   2994922.63645  23671389.978    23671396.971
       220.000         161.000
  22611785.571      345095.32049    261643.93246  22611786.576    22611792.977
       224.000         170.000
  23603697.143    -6030787.44749  -4699860.05645  23603697.950    23603705.521
       206.000         137.000
  23310513.694    12155686.56949   9141730.01846  23310513.038    23310519.524
       223.000         170.000
  24174463.189     -158593.95349   -132453.40745  24174462.918    24174471.731
       206.000         144.000
 02  7 10 17 13  0.0000000  0 11G21G 2G18G17G15G 6G29G26G 3G23G22
  22035465.720   -15198688.16349 -11843550.82347  22035465.045    22035471.558
       236.000         190.000
  24841549.820     1999836.71849   1440763.91045  24841548.774    24841558.904
       215.000         138.000
  20399166.768   -10898155.67849  -8494053.90047  20399165.971    20399170.831
       240.000         211.000
  20629432.449    -4908582.21949  -3835621.12147  20629432.241    20629437.832
       242.000         206.000
  20487436.217    -8288630.61649  -6466621.92947  20487435.454    20487441.404
       244.000         208.000
  22122303.504     8755906.43449   6569706.55046  22122303.528    22122309.995
       230.000         182.000
  23685554.287     3932100.06749   3052923.72545  23685554.422    23685561.127
       216.000         160.000
  22625253.010      415867.26349    316790.84846  22625252.983    22625260.132
       225.000         170.000
  23586621.009    -6120524.29249  -4769784.81045  23586620.512    23586628.135
       208.000         138.000
  23325698.478    12235483.43149   9203909.34046  23325697.855    23325704.610
       223.000         169.000
  24184245.096     -107188.54549    -92397.30345  24184244.876    24184253.189
       208.000         141.000
 02  7 10 17 13 30.0000000  0 11G21G 2G18G17G15G 6G29G26G 3G23G22
  22026723.728   -15244627.46449 -11879347.65347  22026723.307    22026729.786
       237.000         190.000
  24842453.802     2004586.79249   1444465.18445  24842454.507    24842462.315
       215.000         139.000
  20398821.696   -10899968.63349  -8495466.59147  20398821.420    20398825.924
       240.000         211.000
  20629723.488    -4907053.31749  -3834429.77947  20629723.310    20629728.829
       242.000         206.000
  20485104.358    -8300884.61049  -6476170.49847  20485103.668    20485109.692
       244.000         208.000
  22139739.682     8847534.77149   6641105.16646  22139739.577    22139745.828
       230.000         180.000
  23699788.982     4006904.64349   3111212.95945  23699788.388    23699795.668
       215.000         158.000
  22638816.967      487146.76549    372333.27746  22638817.663    22638824.299
       224.000         169.000
  23569595.780    -6209993.15049  -4839500.75845  23569595.269    23569603.297
       210.000         140.000
  23340889.419    12315312.67749   9266113.87346  23340889.598    23340895.176
       223.000         167.000
  24194084.858      -55481.46749    -52106.11345  24194085.173    24194094.168
       208.000         141.000
 02  7 10 17 14  0.0000000  0 11G21G 2G18G17G15G 6G29G26G 3G23G22
  22018033.247   -15290296.45349 -11914933.84947  22018032.653    22018039.057
       235.000         190.000
  24843433.151     2009732.83949   1448474.99545  24843432.609    24843442.097
       209.000         135.000
  20398549.042   -10901401.44449  -8496583.06347  20398548.759    20398552.888
       240.000         211.000
  20630057.477    -4905298.34649  -3833062.27947  20630056.889    20630062.591
       243.000         205.000
  20482818.566    -8312896.90649  -6485530.72747  20482818.350    20482823.736
       244.000         208.000
  22157236.152     8939479.70949   6712750.49346  22157236.364    22157241.731
       231.000         178.000
  23714093.861     4082076.78849   3169788.57645  23714093.854    23714100.366
       215.000         156.000
  22652476.977      558930.92449    428268.94346  22652477.196    22652482.608
       223.000         168.000
  23552621.704    -6299192.22849  -4909006.50645  23552622.579    23552629.076
       210.000         141.000
  23356086.266    12395172.40949   9328342.17446  23356086.768    23356093.061
       222.000         167.000
  24203981.191       -3475.62849    -11582.19045  24203980.483    24203990.098
       208.000         140.000
 02  7 10 17 14 30.0000000  0 11G21G 2G18G17G15G 6G29G26G 3G23G22
  22009393.983   -15335695.59749 -11950309.77047  22009393.894    22009399.728
       238.000         189.000
  24844487.490     2015273.60049   1452792.41345  24844487.040    24844494.933
       213.000         135.000
  20398348.527   -10902455.32349  -8497404.27047  20398348.407    20398352.760
       241.000         211.000
  20630434.489    -4903316.65349  -3831518.11547  20630433.818    20630439.814
       243.000         205.000
  20480578.899    -8324666.90049  -6494702.14847  20480578.541    20480583.834
       245.000         208.000
  22174792.621     9031738.76249   6784640.58246  22174792.840    22174798.992
       232.000         179.000
  23728467.941     4157613.81149   3228648.52645  23728469.173    23728474.577
       217.000         154.000
  22666232.641      631217.12449    484595.82446  22666232.903    22666239.657
       224.000         168.000
  23535699.784    -6388119.34749  -4978300.32145  23535699.384    23535707.602
       210.000         142.000
  23371288.615    12475061.07849   9390593.03346  23371287.834    23371296.766
       222.000         168.000
  24213934.030       48826.02349     29172.28945  24213933.952    24213942.228
       210.000         142.000
 02  7 10 17 15  0.0000000  0 11G21G 2G18G17G15G 6G29G26G 3G23G22
  22000805.929   -15380826.19549 -11985476.42747  22000805.259    22000811.726
       236.000         189.000
  24845616.701     2021207.13149   1457415.90245  24845615.638    24845626.352
       209.000         136.000
  20398219.732   -10903132.13149  -8497931.64847  20398219.227    20398223.417
       240.000         211.000
  20630854.766    -4901108.03549  -3829797.12447  20630854.427    20630860.009
       243.000         205.000
  20478385.350    -8336194.28049  -6503684.51747  20478384.389    20478390.261
       243.000         208.000
  22192408.273     9124309.11449   6856773.24746  22192408.525    22192415.246
       231.000         180.000
  23742911.283     4233512.61349   3287790.39345  23742911.734    23742917.971
       217.000         153.000
  22680083.064      704001.89749    541311.19146  22680082.596    22680088.926
       222.000         167.000
  23518829.707    -6476772.73649  -5047380.81745  23518828.624    23518836.244
       207.000         141.000
  23386495.987    12554976.48049   9452864.70446  23386494.956    23386502.989
       223.000         168.000
  24223942.566      101420.09649     70154.56445  24223942.494    24223949.749
       212.000         143.000
 02  7 10 17 15 30.0000000  0 11G21G 2G18G17G15G 6G29G26G 3G23G22
  21992268.938   -15425687.86649 -12020433.53147  21992268.279    21992274.565
       236.000         189.000
  24846820.298     2027532.48649   1462344.71545  24846818.346    24846827.920
       211.000         137.000
  20398162.567   -10903432.58249  -8498165.77247  20398162.506    20398166.376
       241.000         211.000
  20631318.569    -4898671.28649  -3827898.36847  20631318.236    20631323.811
       243.000         205.000
  20476238.056    -8347478.09349  -6512477.10547  20476237.306    20476243.017
       244.000         208.000
  22210082.904     9217189.03049   6929147.12546  22210083.059    22210090.164
       230.000         181.000
  23757423.014     4309771.35349   3347212.72845  23757423.728    23757428.161
       221.000         155.000
  22694027.908      777283.26549    598413.50746  22694029.121    22694033.916
       224.000         167.000
  23502011.815    -6565149.08949  -5116245.46445  23502010.747    23502019.990
       204.000         141.000
  23401708.335    12634917.63749   9515156.43446  23401707.985    23401715.251
       224.000         170.000
  24234006.233      154304.24849    111362.92945  24234005.027    24234014.307
       210.000         142.000
 02  7 10 17 16  0.0000000  0 11G21G 2G18G17G15G 6G29G26G 3G23G22
  21983783.178   -15470280.72449 -12055181.17147  21983782.624    21983789.401
       237.000         190.000
  24848098.223     2034249.10649   1467578.35445  24848099.479    24848107.877
       215.000         139.000
  20398177.021   -10903357.12849  -8498106.97847  20398176.506    20398181.054
       241.000         212.000
  20631825.931    -4896005.02649  -3825820.76847  20631825.245    20631831.160
       243.000         205.000
  20474137.385    -8358516.90049  -6521078.76547  20474136.600    20474142.360
       245.000         208.000
  22227815.903     9310376.68649   7001760.81746  22227815.933    22227823.061
       230.000         181.000
  23772002.811     4386388.16549   3406914.10545  23772003.714    23772009.166
       219.000         155.000
  22708067.276      851059.14249    655901.17046  22708067.862    22708073.852
       222.000         166.000
  23485247.366    -6653245.79749  -5184892.19645  23485246.952    23485254.297
       207.000         141.000
  23416925.501    12714883.64549   9577467.54246  23416925.420    23416932.692
       223.000         170.000
  24244124.494      207476.35949    152795.65345  24244124.012    24244133.287
       209.000         143.000
 02  7 10 17 16 30.0000000  0 11G21G 2G18G17G15G 6G29G26G 3G23G22
  21975348.616   -15514604.54149 -12089719.17147  21975348.203    21975354.893
       236.000         190.000
  24849450.906     2041356.15249   1473116.28645  24849451.183    24849458.975
       217.000         139.000
  20398262.649   -10902906.99149  -8497756.22047  20398262.367    20398266.484
       241.000         212.000
  20632377.213    -4893107.89149  -3823563.27447  20632376.803    20632382.443
       243.000         205.000
  20472083.601    -8369309.69749  -6529488.74447  20472083.142    20472088.782
       245.000         208.000
  22245607.116     9403869.93749   7074612.62646  22245606.547    22245613.576
       229.000         180.000
  23786650.396     4463360.97849   3466892.85445  23786650.345    23786657.220
       219.000         157.000
  22722200.047      925327.08549    713772.25046  22722200.888    22722206.270
       224.000         167.000
  23468537.034    -6741059.95749  -5253318.76145  23468536.550    23468544.273
       208.000         142.000
  23432146.975    12794873.32449   9639797.09446  23432147.382    23432154.697
       222.000         169.000
  24254297.212      260933.99049    194450.87545  24254296.360    24254305.625
       207.000         143.000
 02  7 10 17 17  0.0000000  0 11G21G 2G18G17G15G 6G29G26G 3G23G22
  21966964.916   -15558661.13049 -12124048.95847  21966964.327    21966971.049
       236.000         191.000
  24850877.234     2048850.79349   1478956.18545  24850878.225    24850886.915
       213.000         138.000
  20398419.136   -10902084.85649  -8497115.60247  20398418.739    20398422.979
       241.000         212.000
  20632972.313    -4889980.96649  -3821126.72447  20632971.921    20632977.647
       243.000         205.000
  20470076.485    -8379857.34949  -6537707.69947  20470076.271    20470081.587
       245.000         209.000
  22263455.619     9497664.76249   7147699.43646  22263455.141    22263461.407
       230.000         178.000
  23801364.701     4540685.75349   3527145.84945  23801363.679    23801372.216
       217.000         157.000
  22736425.659     1000082.77349    772023.36146  22736425.650    22736432.684
       221.000         168.000
  23451880.311    -6828590.62149  -5321524.42345  23451879.242    23451888.174
       211.000         143.000
  23447372.533    12874883.60549   9702142.71046  23447371.982    23447379.275
       223.000         168.000
  24264523.513      314672.61949    236325.06845  24264523.930    24264531.746
       208.000         143.000
 02  7 10 17 17 30.0000000  0 11G21G 2G18G17G15G 6G29G26G 3G23G22
  21958632.131   -15602449.80349 -12158169.97347  21958631.836    21958638.715
       237.000         192.000
  24852377.314     2056733.15849   1485098.20945  24852376.678    24852386.220
       210.000         137.000
  20398646.361   -10900890.31749  -8496184.78547  20398645.921    20398650.427
       241.000         212.000
  20633611.591    -4886621.68049  -3818509.11347  20633611.198    20633616.564
       243.000         205.000
  20468116.474    -8390157.42049  -6545733.73247  20468115.898    20468121.203
       245.000         209.000
  22281361.578     9591760.46149   7221020.67046  22281361.265    22281367.391
       230.000         177.000
  23816145.996     4618361.65249   3587672.43845  23816145.815    23816151.626
       215.000         156.000
  22750743.643     1075325.06249    830653.68646  22750743.918    22750751.186
       223.000         168.000
  23435278.443    -6915834.07849  -5389506.31745  23435279.284    23435285.143
       210.000         142.000
  23462601.933    12954914.73349   9764504.56446  23462601.649    23462608.714
       221.000         166.000
  24274802.927      368690.99649    278417.26845  24274801.774    24274811.272
       207.000         144.000
 02  7 10 17 18  0.0000000  0 11G21G 2G18G17G15G 6G29G26G 3G23G22
  21950350.149   -15645972.00349 -12192083.34447  21950349.469    21950356.311
       237.000         193.000
  24853950.887     2065001.23649   1491540.79045  24853950.168    24853959.730
       211.000         139.000
  20398944.174   -10899325.42349  -8494965.38647  20398944.095    20398948.132
       241.000         212.000
  20634295.006    -4883030.24449  -3815710.60047  20634294.665    20634300.016
       243.000         205.000
  20466203.565    -8400209.87649  -6553566.81047  20466202.773    20466208.638
       244.000         209.000
  22299324.137     9686153.83749   7294573.85746  22299324.229    22299330.434
       228.000         176.000
  23830993.570     4696385.47849   3648470.15645  23830993.277    23831000.857
       217.000         156.000
  22765153.760     1151050.49449    889660.46346  22765155.451    22765159.900
       224.000         168.000
  23418731.727    -7002788.66949  -5457263.08845  23418732.119    23418737.620
       211.000         143.000
  23477834.896    13034964.45249   9826880.91346  23477833.534    23477841.234
       220.000         165.000
  24285134.841      422985.66149    320724.73545  24285134.781    24285144.515
       209.000         145.000
 02  7 10 17 18 30.0000000  0 11G21G 2G18G17G15G 6G29G26G 3G23G22
  21942118.828   -15689227.75149 -12225789.09347  21942118.128    21942124.951
       237.000         193.000
  24855597.547     2073654.42449   1498283.46945  24855596.868    24855605.539
       208.000         139.000
  20399312.372   -10897390.55649  -8493457.69547  20399311.730    20399316.314
       240.000         212.000
  20635022.970    -4879204.91949  -3812729.83847  20635022.591    20635028.442
       243.000         205.000
  20464338.078    -8410013.27849  -6561205.82347  20464337.284    20464342.928
       246.000         209.000
  22317343.104     9780843.40449   7368357.83746  22317343.225    22317350.240
       228.000         177.000
  23845906.841     4774755.53949   3709537.68345  23845905.973    23845914.827
       218.000         156.000
  22779655.808     1227256.93149    949042.05946  22779656.232    22779661.843
       225.000         169.000
  23402240.466    -7089451.14949  -5524792.22645  23402240.716    23402246.916
       212.000         144.000
  23493071.349    13115032.07749   9889271.21846  23493070.696    23493078.044
       222.000         164.000
  24295519.070      477554.44549    363245.79445  24295519.082    24295528.021
       214.000         148.000
 02  7 10 17 19  0.0000000  0 11G21G 2G18G17G15G 6G29G26G 3G23G22
  21933938.242   -15732216.81249 -12259287.03347  21933938.021    21933944.405
       239.000         193.000
  24857317.143     2082691.20049   1505325.04045  24857315.608    24857326.459
       199.000         138.000
  20399750.708   -10895087.01149  -8491662.72747  20399750.716    20399754.709
       242.000         212.000
  20635795.551    -4875144.84649  -3809566.15747  20635795.156    20635800.827
       242.000         205.000
  20462520.032    -8419567.03249  -6568650.31247  20462519.223    20462524.972
       246.000         209.000
  22335417.792     9875826.72249   7442370.72846  22335417.322    22335424.741
       227.000         178.000
  23860885.633     4853469.21349   3770872.93345  23860885.133    23860892.231
       216.000         156.000
  22794248.623     1303941.73649   1008796.40346  22794249.290    22794255.296
       225.000         169.000
  23385805.359    -7175819.14449  -5592091.90145  23385804.534    23385812.753
       211.000         144.000
  23508310.744    13195116.20149   9951674.35546  23508309.326    23508318.079
       219.000         163.000
  24305955.020      532394.54949    405978.26545  24305954.828    24305963.797
       212.000         149.000
 02  7 10 17 19 30.0000000  0 11G21G 2G18G17G15G 6G29G26G 3G23G22
  21925808.334   -15774940.12149 -12292577.89547  21925808.069    21925814.255
       239.000         193.000
  24859109.450     2092110.14549   1512664.43545  24859110.376    24859118.132
       206.000         139.000
  20400258.993   -10892416.30749  -8489581.66148  20400258.745    20400262.862
       241.000         213.000
  20636612.896    -4870849.47749  -3806219.12847  20636612.600    20636618.321
       243.000         205.000
  20460749.558    -8428870.46649  -6575899.75147  20460748.948    20460754.830
       247.000         209.000
  22353547.909     9971101.08749   7516610.41346  22353546.762    22353556.015
       226.000         178.000
  23875929.222     4932523.97149   3832473.98245  23875929.258    23875935.298
       218.000         153.000
  22808931.769     1381101.89349   1068921.15846  22808931.056    22808937.544
       225.000         169.000
  23369426.497    -7261890.49149  -5659160.43045  23369425.224    23369433.185
       210.000         143.000
  23523553.197    13275215.22749  10014089.10046  23523553.683    23523559.580
       222.000         164.000
  24316441.992      587502.97449    448919.80945  24316442.677    24316449.691
       214.000         149.000
 02  7 10 17 20  0.0000000  0 11G21G 2G18G17G15G 6G29G26G 3G23G22
  21917728.901   -15817397.61749 -12325661.62047  21917728.302    21917735.005
       238.000         192.000
  24860974.199     2101910.38449   1520300.94145  24860973.046    24860982.604
       203.000         138.000
  20400836.926   -10889379.23349  -8487215.10647  20400836.775    20400840.685
       243.000         212.000
  20637475.356    -4866317.44349  -3802687.68847  20637474.803    20637480.820
       242.000         204.000
  20459027.078    -8437922.33349  -6582953.15947  20459026.701    20459032.501
       247.000         209.000
  22371732.967    10066664.58949   7591075.40946  22371733.012    22371741.552
       227.000         178.000
  23891037.427     5011917.84549   3894339.31045  23891038.258    23891042.962
       217.000         152.000
  22823704.978     1458735.22349   1129414.62346  22823705.577    22823709.471
       226.000         167.000
  23353104.360    -7347662.30349  -5725995.58045  23353102.454    23353110.507
       209.000         143.000
  23538798.458    13355328.21749  10076514.73746  23538797.739    23538805.216
       223.000         165.000
  24326979.541      642877.27849    492068.52745  24326978.613    24326987.837
       212.000         149.000
 02  7 10 17 20 30.0000000  0 11G21G 2G18G17G15G 6G29G26G 3G23G22
  21909700.056   -15859589.55649 -12358538.42547  21909699.441    21909705.838
       238.000         191.000
  24862911.207     2112090.61249   1528233.54345  24862908.537    24862920.085
       199.000         138.000
  20401484.391   -10885976.84049  -8484563.89247  20401483.997    20401488.219
       242.000         212.000
  20638382.947    -4861547.91649  -3798971.18047  20638382.395    20638388.199
       242.000         204.000
  20457352.664    -8446721.87949  -6589809.94947  20457351.940    20457357.927
       247.000         210.000
  22389972.866    10162515.01749   7665763.97946  22389973.374    22389979.683
       228.000         177.000
  23906209.867     5091648.34549   3956466.92745  23906208.866    23906215.806
       213.000         150.000
  22838567.781     1536838.91449   1190274.59846  22838568.748    22838574.564
       226.000         168.000
  23336839.900    -7433131.96249  -5792595.28545  23336837.813    23336847.490
       208.000         143.000
  23554045.912    13435453.77849  10138950.17946  23554046.083    23554052.765
       224.000         165.000
  24337567.117      698514.68749    535422.26745  24337566.983    24337575.544
       215.000         148.000
 02  7 10 17 21  0.0000000  0 11G21G 2G18G17G15G 6G29G26G 3G23G22
  21901721.147   -15901518.41749 -12391210.22547  21901720.794    21901727.424
       238.000         191.000
  24864920.206     2122647.64649   1536459.72245  24864920.714    24864930.117
       208.000         141.000
  20402200.738   -10882212.19049  -8481630.38947  20402200.441    20402204.703
       243.000         212.000
  20639335.532    -4856541.71149  -3795070.23947  20639335.166    20639340.788
       243.000         204.000
  20455725.954    -8455269.98249  -6596470.80947  20455725.056    20455731.216
       246.000         209.000
  22408266.611    10258648.29749   7740672.92846  22408267.819    22408273.014
       230.000         176.000
  23921445.200     5171711.40049   4018853.66245  23921444.618    23921450.620
       213.000         147.000
  22853519.210     1615408.38049   1251497.52546  22853519.308    22853525.504
       226.000         170.000
  23320632.713    -7518298.70849  -5858958.92345  23320631.333    23320639.151
       205.000         144.000
  23569295.221    13515588.78749  10201392.97546  23569295.266    23569301.158
       225.000         166.000
  24348203.815      754410.70349    578977.51545  24348202.390    24348211.127
       210.000         145.000
 02  7 10 17 21 30.0000000  0 11G21G 2G18G17G15G 6G29G26G 3G23G22
  21893792.739   -15943182.65649 -12423675.84647  21893791.913    21893799.025
       237.000         191.000
  24867001.185     2133581.85949   1544979.86045  24867000.314    24867011.746
       211.000         146.000
  20402986.210   -10878084.76549  -8478414.21947  20402986.047    20402990.051
       243.000         212.000
  20640333.808    -4851296.30649  -3790982.92147  20640333.714    20640339.138
       241.000         204.000
  20454147.544    -8463564.21849  -6602933.86147  20454146.769    20454152.733
       247.000         209.000
  22426614.143    10355063.74249   7815801.73246  22426614.488    22426619.861
       227.000         174.000
  23936743.375     5252106.21849   4081498.91045  23936742.218    23936749.894
       207.000         147.000
  22868558.860     1694442.70249   1313082.65846  22868558.936    22868565.309
       224.000         170.000
  23304484.166    -7603158.77749  -5925083.58445  23304484.271    23304491.968
       212.000         146.000
  23584546.576    13595733.68249  10263843.48446  23584545.499    23584552.762
       223.000         166.000
  24358889.529      810564.18849    622733.40945  24358888.912    24358897.369
       212.000         144.000
 02  7 10 17 22  0.0000000  0 11G21G 2G18G17G15G 6G29G26G 3G23G22
  21885914.709   -15984581.62649 -12455934.74047  21885914.387    21885920.688
       239.000         192.000
  24869153.483     2144893.51349   1553794.01345  24869153.633    24869161.874
       212.000         147.000
  20403840.792   -10873594.23249  -8474915.10347  20403840.395    20403844.712
       243.000         212.000
  20641377.969    -4845809.13449  -3786707.21147  20641377.562    20641383.295
       241.000         204.000
  20452617.987    -8471602.05549  -6609197.11447  20452617.378    20452623.258
       247.000         209.000
  22445014.916    10451760.44549   7891149.72946  22445013.920    22445020.475
       226.000         172.000
  23952104.840     5332832.18649   4144402.17945  23952106.342    23952111.776
       211.000         148.000
  22883686.598     1773940.71549   1375029.09146  22883687.363    22883693.814
       225.000         170.000
  23288395.302    -7687707.89849  -5990965.97845  23288394.950    23288403.374
       212.000         148.000
  23599799.691    13675888.83049  10326301.99546  23599799.149    23599806.451
       223.000         166.000
  24369624.054      866974.06049    666689.03445  24369622.891    24369632.809
       211.000         143.000
 02  7 10 17 22 30.0000000  0 11G21G 2G18G17G15G 6G29G26G 3G23G22
  21878086.759   -16025717.78649 -12487988.86147  21878086.416    21878093.209
       239.000         193.000
  24871377.102     2156578.78349   1562899.34845  24871378.543    24871385.915
       215.000         149.000
  20404763.664   -10868744.11249  -8471135.78347  20404763.306    20404767.747
       243.000         212.000
  20642467.907    -4840081.60049  -3782244.20547  20642467.637    20642473.174
       241.000         204.000
  20451137.020    -8479384.82349  -6615261.60947  20451136.373    20451142.216
       247.000         209.000
  22463468.301    10548733.74549   7966713.25346  22463467.465    22463474.806
       224.000         172.000
  23967528.913     5413884.34049   4207559.63845  23967529.075    23967536.635
       210.000         151.000
  22898901.836     1853897.31049   1437332.87746  22898902.400    22898908.183
       222.000         169.000
  23272365.270    -7771945.97049  -6056605.98045  23272365.976    23272371.851
       213.000         148.000
  23615053.859    13756050.56449  10388765.62846  23615053.099    23615060.912
       222.000         165.000
  24380406.256      923635.16449    710840.46945  24380405.856    24380415.132
       209.000         142.000
 02  7 10 17 23  0.0000000  0 11G21G 2G18G17G15G 6G29G26G 3G23G22
  21870308.984   -16066590.21149 -12519837.47047  21870308.301    21870315.021
       239.000         194.000
  24873672.309     2168637.80249   1572295.95945  24873672.345    24873682.163
       213.000         150.000
  20405755.125   -10863534.11349  -8467076.04447  20405754.720    20405759.084
       243.000         212.000
  20643604.035    -4834111.34149  -3777592.06647  20643603.401    20643609.309
       241.000         204.000
  20449704.999    -8486910.22549  -6621125.56447  20449704.354    20449710.000
       247.000         209.000
  22481974.043    10645982.72849   8042491.61046  22481973.743    22481981.296
       227.000         174.000
  23983014.318     5495261.88749   4270970.63545  23983014.944    23983022.695
       211.000         152.000
  22914204.130     1934311.11549   1499992.92746  22914204.376    22914210.100
       223.000         169.000
  23256395.398    -7855869.04949  -6122000.54245  23256395.762    23256402.513
       216.000         150.000
  23630309.458    13836219.12649  10451234.57346  23630308.908    23630316.750
       221.000         166.000
  24391236.026      980546.21249    755186.68145  24391235.619    24391244.737
       210.000         141.000
 02  7 10 17 23 30.0000000  0 11G21G18G17G15G 6G14G29G26G 3G23G22
  21862580.433   -16107203.89049 -12551484.46247  21862579.861    21862586.586
       239.000         195.000
  20406813.913   -10857970.10149  -8462740.45547  20406813.647    20406817.740
       243.000         212.000
  20644785.573    -4827902.41149  -3772753.94647  20644785.063    20644791.148
       241.000         204.000
  20448321.112    -8494182.23849  -6626792.06747  20448320.482    20448326.003
       247.000         209.000
  22500531.043    10743500.31449   8118479.24446  22500530.927    22500539.540
       227.000         175.000
  24655597.499    -1065333.19549   -827584.48245  24655595.157    24655605.511
       205.000         136.000
  23998560.579     5576957.43249   4334629.42345  23998560.472    23998567.937
       212.000         151.000
  22929591.929     2015174.64549   1563003.42946  22929593.053    22929598.916
       225.000         169.000
  23240485.106    -7939479.45349  -6187151.47345  23240484.667    23240491.498
       211.000         150.000
  23645565.094    13916388.42749  10513704.08246  23645564.476    23645572.389
       221.000         166.000
  24402111.926     1037699.52849    799721.65445  24402110.261    24402120.539
       206.000         142.000
 02  7 10 17 24  0.0000000  0 11G21G18G17G15G 6G14G29G26G 3G23G22
  21854902.118   -16147553.43949 -12582925.63047  21854901.696    21854908.088
       239.000         195.000
  20407941.085   -10852047.00349  -8458125.05847  20407940.837    20407944.929
       242.000         212.000
  20646013.914    -4821447.20549  -3767723.92447  20646013.312    20646019.220
       240.000         204.000
  20446986.965    -8501193.55749  -6632255.43347  20446986.496    20446991.962
       247.000         209.000
  22519140.043    10841290.51849   8194679.30746  22519140.184    22519148.064
       228.000         176.000
  24633912.807    -1179285.08749   -916377.85345  24633910.928    24633922.639
       204.000         136.000
  24014168.012     5658975.11449   4398539.24745  24014166.828    24014176.046
       210.000         151.000
  22945065.970     2096491.52049   1626367.19246  22945066.091    22945072.279
       224.000         168.000
  23224635.556    -8022768.19049  -6252051.73445  23224636.139    23224642.736
       214.000         152.000
  23660821.882    13996563.78549  10576178.31146  23660821.604    23660829.132
       223.000         166.000
  24413034.554     1095098.86249    844448.31245  24413034.098    24413043.691
       208.000         144.000
 02  7 10 17 24 30.0000000  0 11G21G18G17G15G 6G14G29G26G 3G23G22
  21847273.943   -16187639.64049 -12614161.60947  21847273.327    21847279.772
       238.000         194.000
  20409136.122   -10845767.13349  -8453231.65947  20409135.569    20409139.910
       242.000         212.000
  20647289.112    -4814745.95149  -3762502.17847  20647288.779    20647294.296
       240.000         204.000
  20445702.388    -8507944.28449  -6637515.74947  20445701.765    20445707.538
       247.000         210.000
  22537800.300    10939349.98349   8271089.17946  22537799.896    22537808.215
       227.000         174.000
  24612229.003    -1293230.00749  -1005165.88045  24612228.589    24612236.549
       197.000         133.000
  24029835.922     5741311.42249   4462697.33145  24029836.350    24029843.740
       209.000         149.000
  22960625.493     2178258.03949   1690081.30746  22960626.639    22960632.192
       224.000         168.000
  23208847.980    -8105734.21849  -6316700.52745  23208846.850    23208854.185
       213.000         154.000
  23676079.742    14076742.83049  10638655.43246  23676080.111    23676086.045
       224.000         166.000
  24424003.343     1152740.38949    889363.70745  24424002.815    24424012.216
       207.000         143.000
 02  7 10 17 25  0.0000000  0 11G21G18G17G15G 6G14G29G26G 3G23G22
  21839695.374   -16227464.72749 -12645194.11347  21839694.904    21839701.531
       238.000         193.000
  20410398.512   -10839133.07549  -8448062.26047  20410398.025    20410402.265
       242.000         211.000
  20648611.124    -4807799.00049  -3757088.97547  20648610.594    20648616.253
       241.000         204.000
  20444467.253    -8514434.95149  -6642573.42047  20444466.680    20444472.638
       247.000         209.000
  22556510.982    11037675.03649   8347705.99946  22556510.813    22556519.235
       223.000         172.000
  24590546.950    -1407166.56549  -1093947.36745  24590543.971    24590555.989
       199.000         134.000
  24045564.096     5823962.54649   4527100.76145  24045564.992    24045570.874
       208.000         147.000
  22976269.907     2260469.81449   1754142.39146  22976270.379    22976276.169
       225.000         168.000
  23193121.368    -8188376.09749  -6381096.74445  23193120.277    23193128.418
       209.000         152.000
  23691337.690    14156923.06849  10701133.48746  23691338.378    23691344.948
       221.000         164.000
  24435017.441     1210619.82349    934464.50445  24435015.301    24435027.255
       209.000         143.000
 02  7 10 17 25 30.0000000  0 11G21G18G17G15G 6G14G29G26G 3G23G22
  21832166.746   -16267027.70449 -12676022.38647  21832166.336    21832172.729
       238.000         193.000
  20411728.348   -10832144.68849  -8442616.77247  20411727.935    20411732.004
       242.000         211.000
  20649980.204    -4800604.15849  -3751482.62147  20649979.597    20649985.264
       241.000         203.000
  20443282.006    -8520663.56649  -6647426.88847  20443281.331    20443287.109
       246.000         209.000
  22575271.846    11136264.62649   8424528.94846  22575271.165    22575278.814
       224.000         170.000
  24568867.195    -1521090.88149  -1182719.25045  24568866.008    24568876.367
       202.000         135.000
  24061351.685     5906927.33249   4591748.57645  24061351.613    24061359.234
       209.000         144.000
  22991998.746     2343125.35149   1818549.24846  22991998.061    22992005.669
       222.000         167.000
  23177457.346    -8270690.01349  -6445237.43845  23177457.410    23177464.373
       215.000         152.000
  23706595.712    14237104.38249  10763612.38245  23706596.405    23706602.307
       221.000         162.000
  24446076.583     1268735.64549    979749.46545  24446076.653    24446085.557
       207.000         143.000
 02  7 10 17 26  0.0000000  0 11G21G18G17G15G 6G14G29G26G 3G23G22
  21824687.553   -16306330.93149 -12706648.22947  21824687.024    21824693.543
       238.000         192.000
  20413125.095   -10824804.75149  -8436897.33947  20413124.698    20413128.772
       242.000         211.000
  20651396.368    -4793162.18749  -3745683.69547  20651395.906    20651402.052
       241.000         203.000
  20442146.431    -8526630.71049  -6652076.61647  20442145.687    20442151.462
       246.000         209.000
  22594082.287    11235114.82749   8501554.97646  22594082.422    22594090.429
       225.000         170.000
  24547190.272    -1635002.03949  -1271480.95145  24547188.825    24547199.394
       200.000         135.000
  24077198.704     5990202.03449   4656637.87845  24077199.602    24077206.094
       212.000         142.000
  23007811.107     2426220.52049   1883298.67546  23007811.573    23007818.016
       221.000         167.000
  23161856.373    -8352675.13249  -6509121.89845  23161856.600    23161863.740
       216.000         153.000
  23721853.439    14317284.23949  10826090.12545  23721852.543    23721861.050
       219.000         162.000
  24457179.912     1327083.54149   1025215.26645  24457179.617    24457189.751
       206.000         141.000
 02  7 10 17 26 30.0000000  0 11G21G18G17G15G 6G14G29G26G 3G23G22
  21817257.781   -16345374.64849 -12737071.88647  21817257.417    21817263.539
       239.000         193.000
  20414588.438   -10817114.52149  -8430904.95847  20414588.045    20414592.594
       243.000         211.000
  20652859.782    -4785471.80649  -3739691.20847  20652859.433    20652865.207
       241.000         203.000
  20441060.821    -8532335.28549  -6656521.74347  20441060.109    20441066.062
       246.000         210.000
  22612941.993    11334223.24949   8578782.20046  22612942.156    22612950.467
       224.000         171.000
  24525516.423    -1748897.47849  -1360230.39445  24525515.659    24525525.256
       205.000         138.000
  24093104.038     6073784.11249   4721766.70745  24093102.692    24093110.774
       207.000         141.000
  23023706.612     2509752.36949   1948388.38046  23023707.709    23023713.342
       223.000         167.000
  23146318.108    -8434328.73849  -6572748.07045  23146317.458    23146325.702
       216.000         155.000
  23737110.426    14397461.63749  10888565.93945  23737108.861    23737118.352
       218.000         162.000
  24468326.925     1385661.05549   1070859.99945  24468326.440    24468337.446
       204.000         139.000
 02  7 10 17 27  0.0000000  0 11G21G18G17G15G 6G14G29G26G 3G23G22
  21809877.330   -16384159.20549 -12767293.58047  21809877.126    21809883.175
       240.000         193.000
  20416118.379   -10809074.84349  -8424640.27447  20416118.126    20416122.251
       243.000         211.000
  20654370.711    -4777531.98549  -3733504.34747  20654370.447    20654376.126
       241.000         203.000
  20440025.400    -8537776.18449  -6660761.41147  20440024.955    20440030.731
       245.000         210.000
  22631850.559    11433587.72349   8656208.96946  22631850.816    22631859.466
       223.000         172.000
  24503846.447    -1862774.18249  -1448965.21845  24503846.870    24503855.927
       209.000         143.000
  24109067.019     6157671.42949   4787133.39545  24109065.981    24109073.356
       208.000         142.000
  23039685.057     2593718.46449   2013816.45246  23039686.227    23039691.852
       222.000         166.000
  23130843.445    -8515648.56549  -6636114.12845  23130844.300    23130849.991
       216.000         156.000
  23752366.912    14477635.55649  10951039.06346  23752367.278    23752374.709
       222.000         164.000
  24479517.174     1444465.36449   1116681.44945  24479517.333    24479526.187
       206.000         136.000
 02  7 10 17 27 30.0000000  0 11G21G18G17G15G 6G14G29G26G 3G23G22
  21802546.079   -16422685.61649 -12797314.12947  21802545.702    21802552.311
       240.000         194.000
  20417714.486   -10800687.63749  -8418104.78847  20417714.101    20417718.544
       242.000         212.000
  20655929.138    -4769342.31049  -3727122.79447  20655928.408    20655934.469
       240.000         203.000
  20439040.274    -8542953.19349  -6664795.44647  20439039.807    20439045.472
       245.000         210.000
  22650807.219    11533205.09849   8733832.81046  22650806.393    22650815.101
       224.000         172.000
  24482180.633    -1976630.50549  -1537684.19945  24482179.790    24482189.572
       212.000         144.000
  24125087.719     6241860.84249   4852735.50045  24125087.969    24125095.128
       211.000         144.000
  23055745.237     2678115.17049   2079580.07746  23055745.420    23055752.130
       223.000         166.000
  23115432.820    -8596632.44549  -6699218.35645  23115430.650    23115439.053
       214.000         155.000
  23767622.669    14557804.11049  11013507.99546  23767622.008    23767629.549
       221.000         165.000
  24490749.839     1503492.98449   1162676.93045  24490749.207    24490757.384
       202.000         133.000
 02  7 10 17 28  0.0000000  0 11G21G18G17G15G 6G14G29G26G 3G23G22
  21795263.905   -16460953.44549 -12827133.17847  21795263.773    21795269.699
       241.000         195.000
  20419376.595   -10791953.31449  -8411298.82947  20419376.210    20419380.302
       242.000         212.000
  20657535.412    -4760901.04049  -3720545.19647  20657535.446    20657541.133
       242.000         203.000
  20438105.824    -8547864.37149  -6668622.34547  20438105.324    20438111.288
       246.000         210.000
  22669811.822    11633074.09849   8811652.69646  22669811.826    22669818.932
       224.000         170.000
  24460518.780    -2090462.60249  -1626384.33445  24460518.435    24460527.298
       211.000         145.000
  24141165.975     6326351.10549   4918571.94445  24141166.798    24141175.082
       212.000         148.000
  23071887.210     2762940.77149   2145677.90846  23071886.935    23071893.553
       221.000         163.000
  23100086.398    -8677277.24849  -6762058.42245  23100085.863    23100092.967
       218.000         155.000
  23782877.248    14637967.15349  11075972.64346  23782876.917    23782884.609
       219.000         165.000
  24502024.639     1562742.22849   1208845.08945  24502025.271    24502032.630
       205.000         134.000
